<?xml version="1.0" encoding="UTF-8" standalone="yes"?>
<gpx
 xmlns="http://www.topografix.com/GPX/1/1"
 creator="OziExplorer Version 3956f - http://www.oziexplorer.com"
 version="1.1"
 xmlns:xsi="http://www.w3.org/2001/XMLSchema-instance"
 xsi:schemaLocation="http://www.topografix.com/GPX/1/1 http://www.topografix.com/GPX/1/1/gpx.xsd">
<metadata>
 <time>2018-05-30T03:37:10Z</time>
 <bounds minlat="31.774444" minlon="35.014076" maxlat="31.796609" maxlon="35.088380"/>
</metadata>
<trk>
 <name>Kisalon_Vech_24km</name>
 <desc>Kisalon_Vech_24km</desc>
<trkseg>
<trkpt lat="31.7785388" lon="35.0173417">
<ele>261.160004</ele>
<time>2018-05-29T15:57:28.000Z</time>
</trkpt>
<trkpt lat="31.7785792" lon="35.0174447">
<ele>279.970001</ele>
<time>2018-05-29T16:04:07.000Z</time>
</trkpt>
<trkpt lat="31.7786244" lon="35.0175999">
<ele>280.170013</ele>
<time>2018-05-29T16:06:52.000Z</time>
</trkpt>
<trkpt lat="31.7786713" lon="35.0176955">
<ele>280.730011</ele>
<time>2018-05-29T16:06:59.000Z</time>
</trkpt>
<trkpt lat="31.7787547" lon="35.0177748">
<ele>280.410004</ele>
<time>2018-05-29T16:07:04.000Z</time>
</trkpt>
<trkpt lat="31.7788343" lon="35.0178493">
<ele>281.100006</ele>
<time>2018-05-29T16:07:08.000Z</time>
</trkpt>
<trkpt lat="31.7789304" lon="35.0179060">
<ele>281.380005</ele>
<time>2018-05-29T16:07:12.000Z</time>
</trkpt>
<trkpt lat="31.7790224" lon="35.0179380">
<ele>281.299988</ele>
<time>2018-05-29T16:07:15.000Z</time>
</trkpt>
<trkpt lat="31.7791256" lon="35.0179631">
<ele>280.980011</ele>
<time>2018-05-29T16:07:18.000Z</time>
</trkpt>
<trkpt lat="31.7792416" lon="35.0179856">
<ele>281.269989</ele>
<time>2018-05-29T16:07:21.000Z</time>
</trkpt>
<trkpt lat="31.7793343" lon="35.0180139">
<ele>280.730011</ele>
<time>2018-05-29T16:07:23.000Z</time>
</trkpt>
<trkpt lat="31.7794437" lon="35.0180506">
<ele>280.480011</ele>
<time>2018-05-29T16:07:25.000Z</time>
</trkpt>
<trkpt lat="31.7795482" lon="35.0180916">
<ele>280.410004</ele>
<time>2018-05-29T16:07:27.000Z</time>
</trkpt>
<trkpt lat="31.7796775" lon="35.0181301">
<ele>280.399994</ele>
<time>2018-05-29T16:07:30.000Z</time>
</trkpt>
<trkpt lat="31.7797909" lon="35.0181525">
<ele>279.859985</ele>
<time>2018-05-29T16:07:33.000Z</time>
</trkpt>
<trkpt lat="31.7799228" lon="35.0182037">
<ele>279.250000</ele>
<time>2018-05-29T16:07:36.000Z</time>
</trkpt>
<trkpt lat="31.7800205" lon="35.0182420">
<ele>278.750000</ele>
<time>2018-05-29T16:07:38.000Z</time>
</trkpt>
<trkpt lat="31.7801197" lon="35.0182901">
<ele>279.010010</ele>
<time>2018-05-29T16:07:40.000Z</time>
</trkpt>
<trkpt lat="31.7802006" lon="35.0183502">
<ele>279.160004</ele>
<time>2018-05-29T16:07:42.000Z</time>
</trkpt>
<trkpt lat="31.7802865" lon="35.0184431">
<ele>279.729980</ele>
<time>2018-05-29T16:07:45.000Z</time>
</trkpt>
<trkpt lat="31.7803517" lon="35.0185352">
<ele>280.790009</ele>
<time>2018-05-29T16:07:48.000Z</time>
</trkpt>
<trkpt lat="31.7803948" lon="35.0186307">
<ele>279.970001</ele>
<time>2018-05-29T16:07:51.000Z</time>
</trkpt>
<trkpt lat="31.7804502" lon="35.0187591">
<ele>281.820007</ele>
<time>2018-05-29T16:07:55.000Z</time>
</trkpt>
<trkpt lat="31.7804866" lon="35.0188989">
<ele>281.850006</ele>
<time>2018-05-29T16:07:59.000Z</time>
</trkpt>
<trkpt lat="31.7805180" lon="35.0190047">
<ele>282.239990</ele>
<time>2018-05-29T16:08:02.000Z</time>
</trkpt>
<trkpt lat="31.7805474" lon="35.0191144">
<ele>282.509979</ele>
<time>2018-05-29T16:08:05.000Z</time>
</trkpt>
<trkpt lat="31.7805723" lon="35.0192203">
<ele>282.720001</ele>
<time>2018-05-29T16:08:08.000Z</time>
</trkpt>
<trkpt lat="31.7805848" lon="35.0193682">
<ele>282.579987</ele>
<time>2018-05-29T16:08:12.000Z</time>
</trkpt>
<trkpt lat="31.7805848" lon="35.0194863">
<ele>282.579987</ele>
<time>2018-05-29T16:08:15.000Z</time>
</trkpt>
<trkpt lat="31.7805944" lon="35.0195993">
<ele>283.190002</ele>
<time>2018-05-29T16:08:18.000Z</time>
</trkpt>
<trkpt lat="31.7805926" lon="35.0197312">
<ele>283.200012</ele>
<time>2018-05-29T16:08:21.000Z</time>
</trkpt>
<trkpt lat="31.7805740" lon="35.0198729">
<ele>282.970001</ele>
<time>2018-05-29T16:08:24.000Z</time>
</trkpt>
<trkpt lat="31.7805328" lon="35.0200008">
<ele>283.609985</ele>
<time>2018-05-29T16:08:27.000Z</time>
</trkpt>
<trkpt lat="31.7804771" lon="35.0201207">
<ele>283.890015</ele>
<time>2018-05-29T16:08:30.000Z</time>
</trkpt>
<trkpt lat="31.7804201" lon="35.0202395">
<ele>284.510010</ele>
<time>2018-05-29T16:08:33.000Z</time>
</trkpt>
<trkpt lat="31.7803641" lon="35.0203560">
<ele>284.279999</ele>
<time>2018-05-29T16:08:36.000Z</time>
</trkpt>
<trkpt lat="31.7802988" lon="35.0204660">
<ele>284.479980</ele>
<time>2018-05-29T16:08:39.000Z</time>
</trkpt>
<trkpt lat="31.7802353" lon="35.0205775">
<ele>284.549988</ele>
<time>2018-05-29T16:08:42.000Z</time>
</trkpt>
<trkpt lat="31.7801696" lon="35.0206921">
<ele>284.500000</ele>
<time>2018-05-29T16:08:45.000Z</time>
</trkpt>
<trkpt lat="31.7801000" lon="35.0208055">
<ele>284.269989</ele>
<time>2018-05-29T16:08:48.000Z</time>
</trkpt>
<trkpt lat="31.7800401" lon="35.0209129">
<ele>284.910004</ele>
<time>2018-05-29T16:08:51.000Z</time>
</trkpt>
<trkpt lat="31.7799876" lon="35.0210085">
<ele>285.489990</ele>
<time>2018-05-29T16:08:54.000Z</time>
</trkpt>
<trkpt lat="31.7799286" lon="35.0211211">
<ele>284.970001</ele>
<time>2018-05-29T16:08:57.000Z</time>
</trkpt>
<trkpt lat="31.7798576" lon="35.0212446">
<ele>284.970001</ele>
<time>2018-05-29T16:09:00.000Z</time>
</trkpt>
<trkpt lat="31.7797871" lon="35.0213587">
<ele>285.239990</ele>
<time>2018-05-29T16:09:03.000Z</time>
</trkpt>
<trkpt lat="31.7797244" lon="35.0214675">
<ele>285.309998</ele>
<time>2018-05-29T16:09:06.000Z</time>
</trkpt>
<trkpt lat="31.7796645" lon="35.0215731">
<ele>285.739990</ele>
<time>2018-05-29T16:09:09.000Z</time>
</trkpt>
<trkpt lat="31.7795992" lon="35.0216772">
<ele>285.850006</ele>
<time>2018-05-29T16:09:12.000Z</time>
</trkpt>
<trkpt lat="31.7795390" lon="35.0217852">
<ele>285.860016</ele>
<time>2018-05-29T16:09:15.000Z</time>
</trkpt>
<trkpt lat="31.7794800" lon="35.0218831">
<ele>286.470001</ele>
<time>2018-05-29T16:09:18.000Z</time>
</trkpt>
<trkpt lat="31.7794260" lon="35.0219779">
<ele>286.519989</ele>
<time>2018-05-29T16:09:21.000Z</time>
</trkpt>
<trkpt lat="31.7793671" lon="35.0220961">
<ele>286.769989</ele>
<time>2018-05-29T16:09:24.000Z</time>
</trkpt>
<trkpt lat="31.7793066" lon="35.0222155">
<ele>287.029999</ele>
<time>2018-05-29T16:09:27.000Z</time>
</trkpt>
<trkpt lat="31.7792520" lon="35.0223249">
<ele>287.089996</ele>
<time>2018-05-29T16:09:30.000Z</time>
</trkpt>
<trkpt lat="31.7792038" lon="35.0224399">
<ele>287.130005</ele>
<time>2018-05-29T16:09:33.000Z</time>
</trkpt>
<trkpt lat="31.7791534" lon="35.0225605">
<ele>287.300018</ele>
<time>2018-05-29T16:09:36.000Z</time>
</trkpt>
<trkpt lat="31.7791018" lon="35.0226731">
<ele>288.000000</ele>
<time>2018-05-29T16:09:39.000Z</time>
</trkpt>
<trkpt lat="31.7790608" lon="35.0227749">
<ele>288.170013</ele>
<time>2018-05-29T16:09:42.000Z</time>
</trkpt>
<trkpt lat="31.7790135" lon="35.0228886">
<ele>287.949982</ele>
<time>2018-05-29T16:09:45.000Z</time>
</trkpt>
<trkpt lat="31.7789623" lon="35.0230184">
<ele>288.170013</ele>
<time>2018-05-29T16:09:48.000Z</time>
</trkpt>
<trkpt lat="31.7789132" lon="35.0231438">
<ele>288.359985</ele>
<time>2018-05-29T16:09:51.000Z</time>
</trkpt>
<trkpt lat="31.7788671" lon="35.0232622">
<ele>289.109985</ele>
<time>2018-05-29T16:09:54.000Z</time>
</trkpt>
<trkpt lat="31.7788213" lon="35.0233798">
<ele>289.160004</ele>
<time>2018-05-29T16:09:57.000Z</time>
</trkpt>
<trkpt lat="31.7787745" lon="35.0234952">
<ele>288.419983</ele>
<time>2018-05-29T16:10:00.000Z</time>
</trkpt>
<trkpt lat="31.7787231" lon="35.0236101">
<ele>289.760010</ele>
<time>2018-05-29T16:10:03.000Z</time>
</trkpt>
<trkpt lat="31.7786727" lon="35.0237237">
<ele>289.950012</ele>
<time>2018-05-29T16:10:06.000Z</time>
</trkpt>
<trkpt lat="31.7786139" lon="35.0238307">
<ele>290.510010</ele>
<time>2018-05-29T16:10:09.000Z</time>
</trkpt>
<trkpt lat="31.7785505" lon="35.0239231">
<ele>291.130005</ele>
<time>2018-05-29T16:10:12.000Z</time>
</trkpt>
<trkpt lat="31.7784827" lon="35.0240132">
<ele>291.059998</ele>
<time>2018-05-29T16:10:15.000Z</time>
</trkpt>
<trkpt lat="31.7784115" lon="35.0241068">
<ele>291.100006</ele>
<time>2018-05-29T16:10:18.000Z</time>
</trkpt>
<trkpt lat="31.7783409" lon="35.0242061">
<ele>292.000000</ele>
<time>2018-05-29T16:10:21.000Z</time>
</trkpt>
<trkpt lat="31.7782784" lon="35.0243043">
<ele>292.209991</ele>
<time>2018-05-29T16:10:24.000Z</time>
</trkpt>
<trkpt lat="31.7782100" lon="35.0243908">
<ele>292.440002</ele>
<time>2018-05-29T16:10:27.000Z</time>
</trkpt>
<trkpt lat="31.7781382" lon="35.0244788">
<ele>292.480011</ele>
<time>2018-05-29T16:10:30.000Z</time>
</trkpt>
<trkpt lat="31.7780667" lon="35.0245736">
<ele>292.709991</ele>
<time>2018-05-29T16:10:33.000Z</time>
</trkpt>
<trkpt lat="31.7780051" lon="35.0246786">
<ele>292.920013</ele>
<time>2018-05-29T16:10:36.000Z</time>
</trkpt>
<trkpt lat="31.7779652" lon="35.0247881">
<ele>293.799988</ele>
<time>2018-05-29T16:10:39.000Z</time>
</trkpt>
<trkpt lat="31.7779321" lon="35.0248938">
<ele>293.869995</ele>
<time>2018-05-29T16:10:42.000Z</time>
</trkpt>
<trkpt lat="31.7779052" lon="35.0250088">
<ele>294.839996</ele>
<time>2018-05-29T16:10:45.000Z</time>
</trkpt>
<trkpt lat="31.7778741" lon="35.0251449">
<ele>294.380005</ele>
<time>2018-05-29T16:10:48.000Z</time>
</trkpt>
<trkpt lat="31.7778412" lon="35.0252658">
<ele>295.649994</ele>
<time>2018-05-29T16:10:51.000Z</time>
</trkpt>
<trkpt lat="31.7778142" lon="35.0253977">
<ele>296.260010</ele>
<time>2018-05-29T16:10:55.000Z</time>
</trkpt>
<trkpt lat="31.7777866" lon="35.0255393">
<ele>296.820007</ele>
<time>2018-05-29T16:10:59.000Z</time>
</trkpt>
<trkpt lat="31.7777619" lon="35.0256453">
<ele>297.769989</ele>
<time>2018-05-29T16:11:02.000Z</time>
</trkpt>
<trkpt lat="31.7777294" lon="35.0257455">
<ele>297.869995</ele>
<time>2018-05-29T16:11:05.000Z</time>
</trkpt>
<trkpt lat="31.7776806" lon="35.0258646">
<ele>298.350006</ele>
<time>2018-05-29T16:11:09.000Z</time>
</trkpt>
<trkpt lat="31.7775981" lon="35.0259556">
<ele>299.260010</ele>
<time>2018-05-29T16:11:13.000Z</time>
</trkpt>
<trkpt lat="31.7774986" lon="35.0260241">
<ele>299.869995</ele>
<time>2018-05-29T16:11:17.000Z</time>
</trkpt>
<trkpt lat="31.7774047" lon="35.0260916">
<ele>300.149994</ele>
<time>2018-05-29T16:11:21.000Z</time>
</trkpt>
<trkpt lat="31.7773258" lon="35.0261619">
<ele>300.929993</ele>
<time>2018-05-29T16:11:24.000Z</time>
</trkpt>
<trkpt lat="31.7772543" lon="35.0262273">
<ele>301.389984</ele>
<time>2018-05-29T16:11:27.000Z</time>
</trkpt>
<trkpt lat="31.7771879" lon="35.0263214">
<ele>302.619995</ele>
<time>2018-05-29T16:11:31.000Z</time>
</trkpt>
<trkpt lat="31.7771432" lon="35.0264591">
<ele>302.880005</ele>
<time>2018-05-29T16:11:35.000Z</time>
</trkpt>
<trkpt lat="31.7771313" lon="35.0265887">
<ele>303.919983</ele>
<time>2018-05-29T16:11:39.000Z</time>
</trkpt>
<trkpt lat="31.7771532" lon="35.0267195">
<ele>304.729980</ele>
<time>2018-05-29T16:11:44.000Z</time>
</trkpt>
<trkpt lat="31.7772032" lon="35.0268444">
<ele>305.809998</ele>
<time>2018-05-29T16:11:49.000Z</time>
</trkpt>
<trkpt lat="31.7772623" lon="35.0269494">
<ele>306.950012</ele>
<time>2018-05-29T16:11:54.000Z</time>
</trkpt>
<trkpt lat="31.7773188" lon="35.0270565">
<ele>308.369995</ele>
<time>2018-05-29T16:11:59.000Z</time>
</trkpt>
<trkpt lat="31.7773943" lon="35.0271406">
<ele>309.309998</ele>
<time>2018-05-29T16:12:04.000Z</time>
</trkpt>
<trkpt lat="31.7774842" lon="35.0272057">
<ele>310.529999</ele>
<time>2018-05-29T16:12:09.000Z</time>
</trkpt>
<trkpt lat="31.7775807" lon="35.0272706">
<ele>311.049988</ele>
<time>2018-05-29T16:12:14.000Z</time>
</trkpt>
<trkpt lat="31.7776702" lon="35.0273093">
<ele>311.649994</ele>
<time>2018-05-29T16:12:18.000Z</time>
</trkpt>
<trkpt lat="31.7777658" lon="35.0273450">
<ele>312.229980</ele>
<time>2018-05-29T16:12:22.000Z</time>
</trkpt>
<trkpt lat="31.7778680" lon="35.0273629">
<ele>312.549988</ele>
<time>2018-05-29T16:12:26.000Z</time>
</trkpt>
<trkpt lat="31.7779708" lon="35.0273696">
<ele>313.779999</ele>
<time>2018-05-29T16:12:30.000Z</time>
</trkpt>
<trkpt lat="31.7780824" lon="35.0273813">
<ele>314.339996</ele>
<time>2018-05-29T16:12:34.000Z</time>
</trkpt>
<trkpt lat="31.7781819" lon="35.0274279">
<ele>315.149994</ele>
<time>2018-05-29T16:12:38.000Z</time>
</trkpt>
<trkpt lat="31.7782665" lon="35.0275296">
<ele>315.690002</ele>
<time>2018-05-29T16:12:42.000Z</time>
</trkpt>
<trkpt lat="31.7782786" lon="35.0276573">
<ele>317.060028</ele>
<time>2018-05-29T16:12:46.000Z</time>
</trkpt>
<trkpt lat="31.7782580" lon="35.0277807">
<ele>317.279968</ele>
<time>2018-05-29T16:12:50.000Z</time>
</trkpt>
<trkpt lat="31.7782340" lon="35.0279038">
<ele>316.550018</ele>
<time>2018-05-29T16:12:53.000Z</time>
</trkpt>
<trkpt lat="31.7782123" lon="35.0280231">
<ele>317.579987</ele>
<time>2018-05-29T16:12:56.000Z</time>
</trkpt>
<trkpt lat="31.7781963" lon="35.0281404">
<ele>317.579987</ele>
<time>2018-05-29T16:12:59.000Z</time>
</trkpt>
<trkpt lat="31.7781861" lon="35.0282662">
<ele>317.809998</ele>
<time>2018-05-29T16:13:02.000Z</time>
</trkpt>
<trkpt lat="31.7781826" lon="35.0283831">
<ele>317.830017</ele>
<time>2018-05-29T16:13:05.000Z</time>
</trkpt>
<trkpt lat="31.7781765" lon="35.0284990">
<ele>318.239990</ele>
<time>2018-05-29T16:13:08.000Z</time>
</trkpt>
<trkpt lat="31.7781698" lon="35.0286250">
<ele>318.789978</ele>
<time>2018-05-29T16:13:11.000Z</time>
</trkpt>
<trkpt lat="31.7781671" lon="35.0287445">
<ele>318.949982</ele>
<time>2018-05-29T16:13:14.000Z</time>
</trkpt>
<trkpt lat="31.7781670" lon="35.0288619">
<ele>318.829987</ele>
<time>2018-05-29T16:13:17.000Z</time>
</trkpt>
<trkpt lat="31.7781678" lon="35.0289822">
<ele>319.719971</ele>
<time>2018-05-29T16:13:20.000Z</time>
</trkpt>
<trkpt lat="31.7781650" lon="35.0290999">
<ele>320.010010</ele>
<time>2018-05-29T16:13:23.000Z</time>
</trkpt>
<trkpt lat="31.7781644" lon="35.0292202">
<ele>320.109985</ele>
<time>2018-05-29T16:13:26.000Z</time>
</trkpt>
<trkpt lat="31.7781588" lon="35.0293372">
<ele>320.530029</ele>
<time>2018-05-29T16:13:29.000Z</time>
</trkpt>
<trkpt lat="31.7781553" lon="35.0294657">
<ele>320.899994</ele>
<time>2018-05-29T16:13:33.000Z</time>
</trkpt>
<trkpt lat="31.7781567" lon="35.0295869">
<ele>320.850006</ele>
<time>2018-05-29T16:13:36.000Z</time>
</trkpt>
<trkpt lat="31.7781625" lon="35.0297224">
<ele>321.009979</ele>
<time>2018-05-29T16:13:39.000Z</time>
</trkpt>
<trkpt lat="31.7781620" lon="35.0298449">
<ele>321.689972</ele>
<time>2018-05-29T16:13:42.000Z</time>
</trkpt>
<trkpt lat="31.7781522" lon="35.0299690">
<ele>321.909973</ele>
<time>2018-05-29T16:13:45.000Z</time>
</trkpt>
<trkpt lat="31.7781291" lon="35.0300822">
<ele>322.100006</ele>
<time>2018-05-29T16:13:48.000Z</time>
</trkpt>
<trkpt lat="31.7780868" lon="35.0301960">
<ele>322.960022</ele>
<time>2018-05-29T16:13:51.000Z</time>
</trkpt>
<trkpt lat="31.7780435" lon="35.0303038">
<ele>322.719971</ele>
<time>2018-05-29T16:13:54.000Z</time>
</trkpt>
<trkpt lat="31.7779972" lon="35.0304110">
<ele>323.539978</ele>
<time>2018-05-29T16:13:57.000Z</time>
</trkpt>
<trkpt lat="31.7779155" lon="35.0305480">
<ele>323.959991</ele>
<time>2018-05-29T16:14:01.000Z</time>
</trkpt>
<trkpt lat="31.7778499" lon="35.0306425">
<ele>324.920013</ele>
<time>2018-05-29T16:14:04.000Z</time>
</trkpt>
<trkpt lat="31.7777899" lon="35.0307318">
<ele>324.910004</ele>
<time>2018-05-29T16:14:07.000Z</time>
</trkpt>
<trkpt lat="31.7777179" lon="35.0308158">
<ele>325.059998</ele>
<time>2018-05-29T16:14:10.000Z</time>
</trkpt>
<trkpt lat="31.7776414" lon="35.0309017">
<ele>325.690002</ele>
<time>2018-05-29T16:14:13.000Z</time>
</trkpt>
<trkpt lat="31.7775642" lon="35.0309751">
<ele>326.300018</ele>
<time>2018-05-29T16:14:16.000Z</time>
</trkpt>
<trkpt lat="31.7774755" lon="35.0310445">
<ele>326.420013</ele>
<time>2018-05-29T16:14:19.000Z</time>
</trkpt>
<trkpt lat="31.7774058" lon="35.0311358">
<ele>326.959991</ele>
<time>2018-05-29T16:14:22.000Z</time>
</trkpt>
<trkpt lat="31.7773447" lon="35.0312348">
<ele>327.350006</ele>
<time>2018-05-29T16:14:25.000Z</time>
</trkpt>
<trkpt lat="31.7773032" lon="35.0313385">
<ele>327.469971</ele>
<time>2018-05-29T16:14:28.000Z</time>
</trkpt>
<trkpt lat="31.7772613" lon="35.0314718">
<ele>328.239990</ele>
<time>2018-05-29T16:14:32.000Z</time>
</trkpt>
<trkpt lat="31.7772130" lon="35.0316100">
<ele>328.559998</ele>
<time>2018-05-29T16:14:36.000Z</time>
</trkpt>
<trkpt lat="31.7771718" lon="35.0317051">
<ele>328.929993</ele>
<time>2018-05-29T16:14:39.000Z</time>
</trkpt>
<trkpt lat="31.7771083" lon="35.0318171">
<ele>330.660004</ele>
<time>2018-05-29T16:14:44.000Z</time>
</trkpt>
<trkpt lat="31.7770371" lon="35.0319074">
<ele>331.239990</ele>
<time>2018-05-29T16:14:49.000Z</time>
</trkpt>
<trkpt lat="31.7769496" lon="35.0319945">
<ele>331.720001</ele>
<time>2018-05-29T16:14:54.000Z</time>
</trkpt>
<trkpt lat="31.7768543" lon="35.0320594">
<ele>333.809998</ele>
<time>2018-05-29T16:14:59.000Z</time>
</trkpt>
<trkpt lat="31.7767469" lon="35.0321166">
<ele>334.230011</ele>
<time>2018-05-29T16:15:04.000Z</time>
</trkpt>
<trkpt lat="31.7766564" lon="35.0321647">
<ele>335.160004</ele>
<time>2018-05-29T16:15:09.000Z</time>
</trkpt>
<trkpt lat="31.7765666" lon="35.0322019">
<ele>335.380005</ele>
<time>2018-05-29T16:15:14.000Z</time>
</trkpt>
<trkpt lat="31.7764644" lon="35.0322676">
<ele>335.239990</ele>
<time>2018-05-29T16:15:18.000Z</time>
</trkpt>
<trkpt lat="31.7763575" lon="35.0323162">
<ele>336.940002</ele>
<time>2018-05-29T16:15:23.000Z</time>
</trkpt>
<trkpt lat="31.7762732" lon="35.0322824">
<ele>338.500000</ele>
<time>2018-05-29T16:15:28.000Z</time>
</trkpt>
<trkpt lat="31.7762828" lon="35.0321776">
<ele>339.140015</ele>
<time>2018-05-29T16:15:33.000Z</time>
</trkpt>
<trkpt lat="31.7763287" lon="35.0320764">
<ele>339.960022</ele>
<time>2018-05-29T16:15:38.000Z</time>
</trkpt>
<trkpt lat="31.7762854" lon="35.0319951">
<ele>341.080017</ele>
<time>2018-05-29T16:15:43.000Z</time>
</trkpt>
<trkpt lat="31.7761956" lon="35.0320370">
<ele>342.209991</ele>
<time>2018-05-29T16:15:49.000Z</time>
</trkpt>
<trkpt lat="31.7761117" lon="35.0321222">
<ele>344.269989</ele>
<time>2018-05-29T16:15:56.000Z</time>
</trkpt>
<trkpt lat="31.7760341" lon="35.0322038">
<ele>345.260010</ele>
<time>2018-05-29T16:16:02.000Z</time>
</trkpt>
<trkpt lat="31.7759456" lon="35.0322824">
<ele>345.520020</ele>
<time>2018-05-29T16:16:08.000Z</time>
</trkpt>
<trkpt lat="31.7758624" lon="35.0323356">
<ele>346.980011</ele>
<time>2018-05-29T16:16:13.000Z</time>
</trkpt>
<trkpt lat="31.7757712" lon="35.0323868">
<ele>347.809998</ele>
<time>2018-05-29T16:16:19.000Z</time>
</trkpt>
<trkpt lat="31.7756803" lon="35.0324277">
<ele>348.899994</ele>
<time>2018-05-29T16:16:25.000Z</time>
</trkpt>
<trkpt lat="31.7755933" lon="35.0324521">
<ele>350.199982</ele>
<time>2018-05-29T16:16:31.000Z</time>
</trkpt>
<trkpt lat="31.7754898" lon="35.0324891">
<ele>350.769989</ele>
<time>2018-05-29T16:16:38.000Z</time>
</trkpt>
<trkpt lat="31.7753989" lon="35.0325231">
<ele>351.990021</ele>
<time>2018-05-29T16:16:44.000Z</time>
</trkpt>
<trkpt lat="31.7752982" lon="35.0325399">
<ele>352.630005</ele>
<time>2018-05-29T16:16:50.000Z</time>
</trkpt>
<trkpt lat="31.7752386" lon="35.0324704">
<ele>354.470001</ele>
<time>2018-05-29T16:16:57.000Z</time>
</trkpt>
<trkpt lat="31.7753119" lon="35.0324113">
<ele>354.369995</ele>
<time>2018-05-29T16:17:03.000Z</time>
</trkpt>
<trkpt lat="31.7754068" lon="35.0323599">
<ele>354.909973</ele>
<time>2018-05-29T16:17:10.000Z</time>
</trkpt>
<trkpt lat="31.7754941" lon="35.0323017">
<ele>355.809998</ele>
<time>2018-05-29T16:17:16.000Z</time>
</trkpt>
<trkpt lat="31.7755746" lon="35.0322433">
<ele>356.759979</ele>
<time>2018-05-29T16:17:22.000Z</time>
</trkpt>
<trkpt lat="31.7756515" lon="35.0321714">
<ele>357.430023</ele>
<time>2018-05-29T16:17:27.000Z</time>
</trkpt>
<trkpt lat="31.7756837" lon="35.0320734">
<ele>359.000000</ele>
<time>2018-05-29T16:17:35.000Z</time>
</trkpt>
<trkpt lat="31.7756000" lon="35.0320839">
<ele>360.389984</ele>
<time>2018-05-29T16:17:44.000Z</time>
</trkpt>
<trkpt lat="31.7755063" lon="35.0321192">
<ele>361.549988</ele>
<time>2018-05-29T16:17:52.000Z</time>
</trkpt>
<trkpt lat="31.7754190" lon="35.0321711">
<ele>362.899994</ele>
<time>2018-05-29T16:17:59.000Z</time>
</trkpt>
<trkpt lat="31.7753274" lon="35.0321940">
<ele>363.940033</ele>
<time>2018-05-29T16:18:07.000Z</time>
</trkpt>
<trkpt lat="31.7752303" lon="35.0322217">
<ele>364.459991</ele>
<time>2018-05-29T16:18:14.000Z</time>
</trkpt>
<trkpt lat="31.7751257" lon="35.0322485">
<ele>365.029999</ele>
<time>2018-05-29T16:18:20.000Z</time>
</trkpt>
<trkpt lat="31.7750308" lon="35.0322739">
<ele>366.729980</ele>
<time>2018-05-29T16:18:26.000Z</time>
</trkpt>
<trkpt lat="31.7749403" lon="35.0323081">
<ele>367.899994</ele>
<time>2018-05-29T16:18:32.000Z</time>
</trkpt>
<trkpt lat="31.7748483" lon="35.0323583">
<ele>369.020020</ele>
<time>2018-05-29T16:18:39.000Z</time>
</trkpt>
<trkpt lat="31.7747692" lon="35.0324391">
<ele>368.789978</ele>
<time>2018-05-29T16:18:44.000Z</time>
</trkpt>
<trkpt lat="31.7747090" lon="35.0325401">
<ele>370.309998</ele>
<time>2018-05-29T16:18:50.000Z</time>
</trkpt>
<trkpt lat="31.7746616" lon="35.0326599">
<ele>371.330017</ele>
<time>2018-05-29T16:18:57.000Z</time>
</trkpt>
<trkpt lat="31.7746105" lon="35.0327790">
<ele>372.700012</ele>
<time>2018-05-29T16:19:04.000Z</time>
</trkpt>
<trkpt lat="31.7745749" lon="35.0328930">
<ele>373.000000</ele>
<time>2018-05-29T16:19:10.000Z</time>
</trkpt>
<trkpt lat="31.7745572" lon="35.0330063">
<ele>374.460022</ele>
<time>2018-05-29T16:19:16.000Z</time>
</trkpt>
<trkpt lat="31.7745350" lon="35.0331291">
<ele>374.970001</ele>
<time>2018-05-29T16:19:22.000Z</time>
</trkpt>
<trkpt lat="31.7745001" lon="35.0332444">
<ele>376.250000</ele>
<time>2018-05-29T16:19:28.000Z</time>
</trkpt>
<trkpt lat="31.7744853" lon="35.0333645">
<ele>376.970001</ele>
<time>2018-05-29T16:19:34.000Z</time>
</trkpt>
<trkpt lat="31.7744658" lon="35.0334741">
<ele>377.989990</ele>
<time>2018-05-29T16:19:40.000Z</time>
</trkpt>
<trkpt lat="31.7744492" lon="35.0335896">
<ele>378.920013</ele>
<time>2018-05-29T16:19:46.000Z</time>
</trkpt>
<trkpt lat="31.7744440" lon="35.0336979">
<ele>379.309967</ele>
<time>2018-05-29T16:19:52.000Z</time>
</trkpt>
<trkpt lat="31.7744754" lon="35.0338238">
<ele>380.630005</ele>
<time>2018-05-29T16:19:59.000Z</time>
</trkpt>
<trkpt lat="31.7745248" lon="35.0339233">
<ele>381.329987</ele>
<time>2018-05-29T16:20:05.000Z</time>
</trkpt>
<trkpt lat="31.7745981" lon="35.0340002">
<ele>381.960022</ele>
<time>2018-05-29T16:20:10.000Z</time>
</trkpt>
<trkpt lat="31.7746907" lon="35.0339404">
<ele>383.429993</ele>
<time>2018-05-29T16:20:17.000Z</time>
</trkpt>
<trkpt lat="31.7747375" lon="35.0338252">
<ele>384.449982</ele>
<time>2018-05-29T16:20:23.000Z</time>
</trkpt>
<trkpt lat="31.7747862" lon="35.0337239">
<ele>385.149994</ele>
<time>2018-05-29T16:20:28.000Z</time>
</trkpt>
<trkpt lat="31.7748421" lon="35.0336220">
<ele>386.849976</ele>
<time>2018-05-29T16:20:34.000Z</time>
</trkpt>
<trkpt lat="31.7749102" lon="35.0335352">
<ele>387.160004</ele>
<time>2018-05-29T16:20:40.000Z</time>
</trkpt>
<trkpt lat="31.7749802" lon="35.0334691">
<ele>387.860016</ele>
<time>2018-05-29T16:20:45.000Z</time>
</trkpt>
<trkpt lat="31.7750695" lon="35.0333910">
<ele>389.100006</ele>
<time>2018-05-29T16:20:51.000Z</time>
</trkpt>
<trkpt lat="31.7751532" lon="35.0333380">
<ele>389.329987</ele>
<time>2018-05-29T16:20:56.000Z</time>
</trkpt>
<trkpt lat="31.7752353" lon="35.0332845">
<ele>389.899994</ele>
<time>2018-05-29T16:21:01.000Z</time>
</trkpt>
<trkpt lat="31.7753286" lon="35.0332407">
<ele>391.380005</ele>
<time>2018-05-29T16:21:07.000Z</time>
</trkpt>
<trkpt lat="31.7754359" lon="35.0332465">
<ele>391.920013</ele>
<time>2018-05-29T16:21:13.000Z</time>
</trkpt>
<trkpt lat="31.7755378" lon="35.0332871">
<ele>393.099976</ele>
<time>2018-05-29T16:21:19.000Z</time>
</trkpt>
<trkpt lat="31.7756308" lon="35.0333167">
<ele>393.609985</ele>
<time>2018-05-29T16:21:24.000Z</time>
</trkpt>
<trkpt lat="31.7757256" lon="35.0333299">
<ele>394.580017</ele>
<time>2018-05-29T16:21:30.000Z</time>
</trkpt>
<trkpt lat="31.7758260" lon="35.0333614">
<ele>395.539978</ele>
<time>2018-05-29T16:21:36.000Z</time>
</trkpt>
<trkpt lat="31.7759125" lon="35.0334156">
<ele>396.579987</ele>
<time>2018-05-29T16:21:42.000Z</time>
</trkpt>
<trkpt lat="31.7759928" lon="35.0334855">
<ele>397.049988</ele>
<time>2018-05-29T16:21:48.000Z</time>
</trkpt>
<trkpt lat="31.7760768" lon="35.0335295">
<ele>397.859985</ele>
<time>2018-05-29T16:21:53.000Z</time>
</trkpt>
<trkpt lat="31.7761787" lon="35.0335585">
<ele>398.390015</ele>
<time>2018-05-29T16:21:59.000Z</time>
</trkpt>
<trkpt lat="31.7762712" lon="35.0335940">
<ele>399.910004</ele>
<time>2018-05-29T16:22:05.000Z</time>
</trkpt>
<trkpt lat="31.7763667" lon="35.0336372">
<ele>400.370026</ele>
<time>2018-05-29T16:22:11.000Z</time>
</trkpt>
<trkpt lat="31.7764627" lon="35.0336698">
<ele>401.510010</ele>
<time>2018-05-29T16:22:17.000Z</time>
</trkpt>
<trkpt lat="31.7765524" lon="35.0337002">
<ele>402.259979</ele>
<time>2018-05-29T16:22:23.000Z</time>
</trkpt>
<trkpt lat="31.7766434" lon="35.0337464">
<ele>402.829987</ele>
<time>2018-05-29T16:22:29.000Z</time>
</trkpt>
<trkpt lat="31.7767301" lon="35.0337979">
<ele>403.350006</ele>
<time>2018-05-29T16:22:35.000Z</time>
</trkpt>
<trkpt lat="31.7768293" lon="35.0338559">
<ele>404.430023</ele>
<time>2018-05-29T16:22:41.000Z</time>
</trkpt>
<trkpt lat="31.7769097" lon="35.0339201">
<ele>405.240021</ele>
<time>2018-05-29T16:22:47.000Z</time>
</trkpt>
<trkpt lat="31.7769786" lon="35.0340021">
<ele>406.329987</ele>
<time>2018-05-29T16:22:53.000Z</time>
</trkpt>
<trkpt lat="31.7770426" lon="35.0340849">
<ele>407.680023</ele>
<time>2018-05-29T16:22:59.000Z</time>
</trkpt>
<trkpt lat="31.7770593" lon="35.0341996">
<ele>408.160004</ele>
<time>2018-05-29T16:23:05.000Z</time>
</trkpt>
<trkpt lat="31.7770719" lon="35.0343229">
<ele>409.419983</ele>
<time>2018-05-29T16:23:11.000Z</time>
</trkpt>
<trkpt lat="31.7770919" lon="35.0344318">
<ele>409.889984</ele>
<time>2018-05-29T16:23:16.000Z</time>
</trkpt>
<trkpt lat="31.7771100" lon="35.0345426">
<ele>411.140015</ele>
<time>2018-05-29T16:23:21.000Z</time>
</trkpt>
<trkpt lat="31.7771249" lon="35.0346653">
<ele>412.119995</ele>
<time>2018-05-29T16:23:27.000Z</time>
</trkpt>
<trkpt lat="31.7771420" lon="35.0347789">
<ele>412.910004</ele>
<time>2018-05-29T16:23:33.000Z</time>
</trkpt>
<trkpt lat="31.7771591" lon="35.0349100">
<ele>413.760010</ele>
<time>2018-05-29T16:23:38.000Z</time>
</trkpt>
<trkpt lat="31.7771826" lon="35.0350354">
<ele>414.470001</ele>
<time>2018-05-29T16:23:44.000Z</time>
</trkpt>
<trkpt lat="31.7772007" lon="35.0351677">
<ele>415.290009</ele>
<time>2018-05-29T16:23:51.000Z</time>
</trkpt>
<trkpt lat="31.7772109" lon="35.0352959">
<ele>416.240021</ele>
<time>2018-05-29T16:23:57.000Z</time>
</trkpt>
<trkpt lat="31.7772312" lon="35.0354115">
<ele>417.549988</ele>
<time>2018-05-29T16:24:02.000Z</time>
</trkpt>
<trkpt lat="31.7772620" lon="35.0355451">
<ele>417.979980</ele>
<time>2018-05-29T16:24:08.000Z</time>
</trkpt>
<trkpt lat="31.7772975" lon="35.0356623">
<ele>419.460022</ele>
<time>2018-05-29T16:24:14.000Z</time>
</trkpt>
<trkpt lat="31.7773369" lon="35.0357764">
<ele>420.069977</ele>
<time>2018-05-29T16:24:20.000Z</time>
</trkpt>
<trkpt lat="31.7773816" lon="35.0358789">
<ele>420.709991</ele>
<time>2018-05-29T16:24:25.000Z</time>
</trkpt>
<trkpt lat="31.7774426" lon="35.0359763">
<ele>421.569977</ele>
<time>2018-05-29T16:24:30.000Z</time>
</trkpt>
<trkpt lat="31.7775078" lon="35.0360608">
<ele>422.379974</ele>
<time>2018-05-29T16:24:35.000Z</time>
</trkpt>
<trkpt lat="31.7775801" lon="35.0361310">
<ele>423.409973</ele>
<time>2018-05-29T16:24:40.000Z</time>
</trkpt>
<trkpt lat="31.7776597" lon="35.0362001">
<ele>424.059998</ele>
<time>2018-05-29T16:24:46.000Z</time>
</trkpt>
<trkpt lat="31.7777202" lon="35.0363072">
<ele>424.429993</ele>
<time>2018-05-29T16:24:51.000Z</time>
</trkpt>
<trkpt lat="31.7777843" lon="35.0363865">
<ele>425.820007</ele>
<time>2018-05-29T16:24:57.000Z</time>
</trkpt>
<trkpt lat="31.7778341" lon="35.0364819">
<ele>427.110016</ele>
<time>2018-05-29T16:25:03.000Z</time>
</trkpt>
<trkpt lat="31.7778907" lon="35.0365894">
<ele>427.859985</ele>
<time>2018-05-29T16:25:10.000Z</time>
</trkpt>
<trkpt lat="31.7779381" lon="35.0366915">
<ele>428.410004</ele>
<time>2018-05-29T16:25:17.000Z</time>
</trkpt>
<trkpt lat="31.7779786" lon="35.0367961">
<ele>428.669983</ele>
<time>2018-05-29T16:25:23.000Z</time>
</trkpt>
<trkpt lat="31.7780212" lon="35.0369008">
<ele>430.049988</ele>
<time>2018-05-29T16:25:29.000Z</time>
</trkpt>
<trkpt lat="31.7780574" lon="35.0370077">
<ele>431.130005</ele>
<time>2018-05-29T16:25:35.000Z</time>
</trkpt>
<trkpt lat="31.7780792" lon="35.0371233">
<ele>431.839996</ele>
<time>2018-05-29T16:25:41.000Z</time>
</trkpt>
<trkpt lat="31.7781098" lon="35.0372431">
<ele>432.439972</ele>
<time>2018-05-29T16:25:48.000Z</time>
</trkpt>
<trkpt lat="31.7781476" lon="35.0373573">
<ele>433.800018</ele>
<time>2018-05-29T16:25:55.000Z</time>
</trkpt>
<trkpt lat="31.7782003" lon="35.0374570">
<ele>434.669983</ele>
<time>2018-05-29T16:26:01.000Z</time>
</trkpt>
<trkpt lat="31.7782435" lon="35.0375548">
<ele>435.420013</ele>
<time>2018-05-29T16:26:07.000Z</time>
</trkpt>
<trkpt lat="31.7782868" lon="35.0376675">
<ele>436.589996</ele>
<time>2018-05-29T16:26:13.000Z</time>
</trkpt>
<trkpt lat="31.7783303" lon="35.0377659">
<ele>437.250000</ele>
<time>2018-05-29T16:26:18.000Z</time>
</trkpt>
<trkpt lat="31.7783781" lon="35.0378651">
<ele>437.860016</ele>
<time>2018-05-29T16:26:23.000Z</time>
</trkpt>
<trkpt lat="31.7784216" lon="35.0379720">
<ele>438.170013</ele>
<time>2018-05-29T16:26:28.000Z</time>
</trkpt>
<trkpt lat="31.7784715" lon="35.0380787">
<ele>440.040009</ele>
<time>2018-05-29T16:26:34.000Z</time>
</trkpt>
<trkpt lat="31.7785216" lon="35.0381868">
<ele>440.880005</ele>
<time>2018-05-29T16:26:41.000Z</time>
</trkpt>
<trkpt lat="31.7785450" lon="35.0382906">
<ele>441.619995</ele>
<time>2018-05-29T16:26:47.000Z</time>
</trkpt>
<trkpt lat="31.7785717" lon="35.0383968">
<ele>442.730011</ele>
<time>2018-05-29T16:26:53.000Z</time>
</trkpt>
<trkpt lat="31.7785961" lon="35.0385136">
<ele>443.789978</ele>
<time>2018-05-29T16:26:59.000Z</time>
</trkpt>
<trkpt lat="31.7786200" lon="35.0386290">
<ele>444.240021</ele>
<time>2018-05-29T16:27:05.000Z</time>
</trkpt>
<trkpt lat="31.7786501" lon="35.0387434">
<ele>444.970001</ele>
<time>2018-05-29T16:27:11.000Z</time>
</trkpt>
<trkpt lat="31.7786818" lon="35.0388584">
<ele>445.870026</ele>
<time>2018-05-29T16:27:17.000Z</time>
</trkpt>
<trkpt lat="31.7787224" lon="35.0389741">
<ele>446.909973</ele>
<time>2018-05-29T16:27:23.000Z</time>
</trkpt>
<trkpt lat="31.7787583" lon="35.0390931">
<ele>447.470001</ele>
<time>2018-05-29T16:27:30.000Z</time>
</trkpt>
<trkpt lat="31.7787940" lon="35.0392043">
<ele>448.799988</ele>
<time>2018-05-29T16:27:36.000Z</time>
</trkpt>
<trkpt lat="31.7788270" lon="35.0393136">
<ele>449.869995</ele>
<time>2018-05-29T16:27:42.000Z</time>
</trkpt>
<trkpt lat="31.7788618" lon="35.0394260">
<ele>450.580017</ele>
<time>2018-05-29T16:27:48.000Z</time>
</trkpt>
<trkpt lat="31.7788952" lon="35.0395436">
<ele>451.860016</ele>
<time>2018-05-29T16:27:54.000Z</time>
</trkpt>
<trkpt lat="31.7789319" lon="35.0396623">
<ele>452.149994</ele>
<time>2018-05-29T16:28:00.000Z</time>
</trkpt>
<trkpt lat="31.7789716" lon="35.0397861">
<ele>452.769989</ele>
<time>2018-05-29T16:28:06.000Z</time>
</trkpt>
<trkpt lat="31.7790187" lon="35.0398866">
<ele>453.209991</ele>
<time>2018-05-29T16:28:11.000Z</time>
</trkpt>
<trkpt lat="31.7791008" lon="35.0399645">
<ele>453.589996</ele>
<time>2018-05-29T16:28:16.000Z</time>
</trkpt>
<trkpt lat="31.7791978" lon="35.0399902">
<ele>453.889984</ele>
<time>2018-05-29T16:28:21.000Z</time>
</trkpt>
<trkpt lat="31.7792900" lon="35.0400163">
<ele>454.959991</ele>
<time>2018-05-29T16:28:26.000Z</time>
</trkpt>
<trkpt lat="31.7793786" lon="35.0400560">
<ele>456.040009</ele>
<time>2018-05-29T16:28:31.000Z</time>
</trkpt>
<trkpt lat="31.7794544" lon="35.0401213">
<ele>456.510010</ele>
<time>2018-05-29T16:28:36.000Z</time>
</trkpt>
<trkpt lat="31.7795199" lon="35.0402044">
<ele>457.029999</ele>
<time>2018-05-29T16:28:41.000Z</time>
</trkpt>
<trkpt lat="31.7795757" lon="35.0402987">
<ele>458.000000</ele>
<time>2018-05-29T16:28:46.000Z</time>
</trkpt>
<trkpt lat="31.7796409" lon="35.0403808">
<ele>458.779999</ele>
<time>2018-05-29T16:28:52.000Z</time>
</trkpt>
<trkpt lat="31.7797046" lon="35.0404697">
<ele>459.720001</ele>
<time>2018-05-29T16:28:57.000Z</time>
</trkpt>
<trkpt lat="31.7797800" lon="35.0405336">
<ele>460.869995</ele>
<time>2018-05-29T16:29:02.000Z</time>
</trkpt>
<trkpt lat="31.7798770" lon="35.0405797">
<ele>460.890015</ele>
<time>2018-05-29T16:29:08.000Z</time>
</trkpt>
<trkpt lat="31.7799865" lon="35.0405922">
<ele>463.460022</ele>
<time>2018-05-29T16:29:14.000Z</time>
</trkpt>
<trkpt lat="31.7800922" lon="35.0406201">
<ele>464.280029</ele>
<time>2018-05-29T16:29:20.000Z</time>
</trkpt>
<trkpt lat="31.7801874" lon="35.0406542">
<ele>465.319977</ele>
<time>2018-05-29T16:29:26.000Z</time>
</trkpt>
<trkpt lat="31.7802798" lon="35.0407086">
<ele>465.929993</ele>
<time>2018-05-29T16:29:33.000Z</time>
</trkpt>
<trkpt lat="31.7803592" lon="35.0407677">
<ele>467.110016</ele>
<time>2018-05-29T16:29:39.000Z</time>
</trkpt>
<trkpt lat="31.7804346" lon="35.0408285">
<ele>467.850006</ele>
<time>2018-05-29T16:29:45.000Z</time>
</trkpt>
<trkpt lat="31.7805092" lon="35.0408928">
<ele>468.589996</ele>
<time>2018-05-29T16:29:51.000Z</time>
</trkpt>
<trkpt lat="31.7805851" lon="35.0409530">
<ele>469.609985</ele>
<time>2018-05-29T16:29:57.000Z</time>
</trkpt>
<trkpt lat="31.7806702" lon="35.0410058">
<ele>470.010010</ele>
<time>2018-05-29T16:30:03.000Z</time>
</trkpt>
<trkpt lat="31.7807672" lon="35.0410593">
<ele>470.510010</ele>
<time>2018-05-29T16:30:09.000Z</time>
</trkpt>
<trkpt lat="31.7808644" lon="35.0411075">
<ele>470.910004</ele>
<time>2018-05-29T16:30:14.000Z</time>
</trkpt>
<trkpt lat="31.7809529" lon="35.0411557">
<ele>470.520020</ele>
<time>2018-05-29T16:30:18.000Z</time>
</trkpt>
<trkpt lat="31.7810476" lon="35.0412004">
<ele>471.160004</ele>
<time>2018-05-29T16:30:22.000Z</time>
</trkpt>
<trkpt lat="31.7811313" lon="35.0412467">
<ele>471.410004</ele>
<time>2018-05-29T16:30:26.000Z</time>
</trkpt>
<trkpt lat="31.7812408" lon="35.0412791">
<ele>471.090027</ele>
<time>2018-05-29T16:30:30.000Z</time>
</trkpt>
<trkpt lat="31.7813458" lon="35.0413083">
<ele>470.879974</ele>
<time>2018-05-29T16:30:33.000Z</time>
</trkpt>
<trkpt lat="31.7814490" lon="35.0413794">
<ele>471.029999</ele>
<time>2018-05-29T16:30:36.000Z</time>
</trkpt>
<trkpt lat="31.7815283" lon="35.0414993">
<ele>470.480011</ele>
<time>2018-05-29T16:30:39.000Z</time>
</trkpt>
<trkpt lat="31.7815936" lon="35.0416341">
<ele>469.910004</ele>
<time>2018-05-29T16:30:42.000Z</time>
</trkpt>
<trkpt lat="31.7816252" lon="35.0417464">
<ele>470.109985</ele>
<time>2018-05-29T16:30:45.000Z</time>
</trkpt>
<trkpt lat="31.7816633" lon="35.0418566">
<ele>470.109985</ele>
<time>2018-05-29T16:30:49.000Z</time>
</trkpt>
<trkpt lat="31.7817317" lon="35.0419316">
<ele>470.329987</ele>
<time>2018-05-29T16:30:53.000Z</time>
</trkpt>
<trkpt lat="31.7818176" lon="35.0419738">
<ele>470.060028</ele>
<time>2018-05-29T16:30:56.000Z</time>
</trkpt>
<trkpt lat="31.7819251" lon="35.0420098">
<ele>469.920013</ele>
<time>2018-05-29T16:30:59.000Z</time>
</trkpt>
<trkpt lat="31.7820211" lon="35.0420367">
<ele>470.520020</ele>
<time>2018-05-29T16:31:02.000Z</time>
</trkpt>
<trkpt lat="31.7821166" lon="35.0420648">
<ele>470.380005</ele>
<time>2018-05-29T16:31:05.000Z</time>
</trkpt>
<trkpt lat="31.7822029" lon="35.0421028">
<ele>471.670013</ele>
<time>2018-05-29T16:31:08.000Z</time>
</trkpt>
<trkpt lat="31.7822806" lon="35.0421769">
<ele>472.490021</ele>
<time>2018-05-29T16:31:12.000Z</time>
</trkpt>
<trkpt lat="31.7823243" lon="35.0422771">
<ele>472.840027</ele>
<time>2018-05-29T16:31:16.000Z</time>
</trkpt>
<trkpt lat="31.7823526" lon="35.0423837">
<ele>473.459991</ele>
<time>2018-05-29T16:31:20.000Z</time>
</trkpt>
<trkpt lat="31.7823709" lon="35.0425149">
<ele>475.070007</ele>
<time>2018-05-29T16:31:25.000Z</time>
</trkpt>
<trkpt lat="31.7823732" lon="35.0426449">
<ele>475.279999</ele>
<time>2018-05-29T16:31:30.000Z</time>
</trkpt>
<trkpt lat="31.7823673" lon="35.0427615">
<ele>475.809998</ele>
<time>2018-05-29T16:31:35.000Z</time>
</trkpt>
<trkpt lat="31.7823694" lon="35.0428806">
<ele>476.300018</ele>
<time>2018-05-29T16:31:40.000Z</time>
</trkpt>
<trkpt lat="31.7823740" lon="35.0430012">
<ele>476.860016</ele>
<time>2018-05-29T16:31:46.000Z</time>
</trkpt>
<trkpt lat="31.7823761" lon="35.0431164">
<ele>477.890015</ele>
<time>2018-05-29T16:31:51.000Z</time>
</trkpt>
<trkpt lat="31.7823799" lon="35.0432314">
<ele>478.220001</ele>
<time>2018-05-29T16:31:56.000Z</time>
</trkpt>
<trkpt lat="31.7823904" lon="35.0433421">
<ele>479.669983</ele>
<time>2018-05-29T16:32:01.000Z</time>
</trkpt>
<trkpt lat="31.7823979" lon="35.0434518">
<ele>479.760010</ele>
<time>2018-05-29T16:32:06.000Z</time>
</trkpt>
<trkpt lat="31.7824079" lon="35.0435624">
<ele>480.479980</ele>
<time>2018-05-29T16:32:11.000Z</time>
</trkpt>
<trkpt lat="31.7824119" lon="35.0436705">
<ele>481.380005</ele>
<time>2018-05-29T16:32:15.000Z</time>
</trkpt>
<trkpt lat="31.7824258" lon="35.0437850">
<ele>482.449982</ele>
<time>2018-05-29T16:32:21.000Z</time>
</trkpt>
<trkpt lat="31.7824503" lon="35.0439112">
<ele>482.820007</ele>
<time>2018-05-29T16:32:27.000Z</time>
</trkpt>
<trkpt lat="31.7824815" lon="35.0440190">
<ele>483.830017</ele>
<time>2018-05-29T16:32:32.000Z</time>
</trkpt>
<trkpt lat="31.7825202" lon="35.0441358">
<ele>484.679993</ele>
<time>2018-05-29T16:32:38.000Z</time>
</trkpt>
<trkpt lat="31.7825653" lon="35.0442575">
<ele>485.070007</ele>
<time>2018-05-29T16:32:44.000Z</time>
</trkpt>
<trkpt lat="31.7825991" lon="35.0443635">
<ele>485.860016</ele>
<time>2018-05-29T16:32:49.000Z</time>
</trkpt>
<trkpt lat="31.7826357" lon="35.0444720">
<ele>486.609985</ele>
<time>2018-05-29T16:32:55.000Z</time>
</trkpt>
<trkpt lat="31.7826744" lon="35.0445843">
<ele>487.690002</ele>
<time>2018-05-29T16:33:01.000Z</time>
</trkpt>
<trkpt lat="31.7827103" lon="35.0447045">
<ele>489.010010</ele>
<time>2018-05-29T16:33:07.000Z</time>
</trkpt>
<trkpt lat="31.7827396" lon="35.0448188">
<ele>489.360016</ele>
<time>2018-05-29T16:33:13.000Z</time>
</trkpt>
<trkpt lat="31.7827682" lon="35.0449304">
<ele>489.880005</ele>
<time>2018-05-29T16:33:19.000Z</time>
</trkpt>
<trkpt lat="31.7828053" lon="35.0450512">
<ele>491.049988</ele>
<time>2018-05-29T16:33:25.000Z</time>
</trkpt>
<trkpt lat="31.7828451" lon="35.0451625">
<ele>491.959991</ele>
<time>2018-05-29T16:33:31.000Z</time>
</trkpt>
<trkpt lat="31.7828706" lon="35.0452696">
<ele>491.970001</ele>
<time>2018-05-29T16:33:35.000Z</time>
</trkpt>
<trkpt lat="31.7828896" lon="35.0453719">
<ele>493.380005</ele>
<time>2018-05-29T16:33:40.000Z</time>
</trkpt>
<trkpt lat="31.7828867" lon="35.0454935">
<ele>494.410004</ele>
<time>2018-05-29T16:33:46.000Z</time>
</trkpt>
<trkpt lat="31.7828706" lon="35.0456033">
<ele>494.910004</ele>
<time>2018-05-29T16:33:52.000Z</time>
</trkpt>
<trkpt lat="31.7828527" lon="35.0457085">
<ele>496.809998</ele>
<time>2018-05-29T16:33:58.000Z</time>
</trkpt>
<trkpt lat="31.7828263" lon="35.0458312">
<ele>496.850006</ele>
<time>2018-05-29T16:34:05.000Z</time>
</trkpt>
<trkpt lat="31.7827938" lon="35.0459392">
<ele>497.450012</ele>
<time>2018-05-29T16:34:11.000Z</time>
</trkpt>
<trkpt lat="31.7827660" lon="35.0460489">
<ele>498.759979</ele>
<time>2018-05-29T16:34:17.000Z</time>
</trkpt>
<trkpt lat="31.7827404" lon="35.0461686">
<ele>499.790009</ele>
<time>2018-05-29T16:34:23.000Z</time>
</trkpt>
<trkpt lat="31.7827233" lon="35.0462789">
<ele>499.810028</ele>
<time>2018-05-29T16:34:29.000Z</time>
</trkpt>
<trkpt lat="31.7827046" lon="35.0463897">
<ele>500.540009</ele>
<time>2018-05-29T16:34:34.000Z</time>
</trkpt>
<trkpt lat="31.7826872" lon="35.0465123">
<ele>501.089996</ele>
<time>2018-05-29T16:34:40.000Z</time>
</trkpt>
<trkpt lat="31.7826751" lon="35.0466167">
<ele>501.839996</ele>
<time>2018-05-29T16:34:45.000Z</time>
</trkpt>
<trkpt lat="31.7826623" lon="35.0467339">
<ele>502.029999</ele>
<time>2018-05-29T16:34:50.000Z</time>
</trkpt>
<trkpt lat="31.7826481" lon="35.0468434">
<ele>502.649994</ele>
<time>2018-05-29T16:34:55.000Z</time>
</trkpt>
<trkpt lat="31.7826342" lon="35.0469626">
<ele>503.759979</ele>
<time>2018-05-29T16:35:00.000Z</time>
</trkpt>
<trkpt lat="31.7826227" lon="35.0470863">
<ele>503.910004</ele>
<time>2018-05-29T16:35:05.000Z</time>
</trkpt>
<trkpt lat="31.7826054" lon="35.0472081">
<ele>505.160004</ele>
<time>2018-05-29T16:35:10.000Z</time>
</trkpt>
<trkpt lat="31.7826045" lon="35.0473283">
<ele>506.289978</ele>
<time>2018-05-29T16:35:15.000Z</time>
</trkpt>
<trkpt lat="31.7825934" lon="35.0474568">
<ele>506.929993</ele>
<time>2018-05-29T16:35:20.000Z</time>
</trkpt>
<trkpt lat="31.7825885" lon="35.0475766">
<ele>507.550018</ele>
<time>2018-05-29T16:35:26.000Z</time>
</trkpt>
<trkpt lat="31.7825864" lon="35.0476814">
<ele>508.509979</ele>
<time>2018-05-29T16:35:31.000Z</time>
</trkpt>
<trkpt lat="31.7825663" lon="35.0478054">
<ele>509.299988</ele>
<time>2018-05-29T16:35:37.000Z</time>
</trkpt>
<trkpt lat="31.7825733" lon="35.0479250">
<ele>510.449982</ele>
<time>2018-05-29T16:35:43.000Z</time>
</trkpt>
<trkpt lat="31.7825789" lon="35.0480423">
<ele>510.600006</ele>
<time>2018-05-29T16:35:49.000Z</time>
</trkpt>
<trkpt lat="31.7825992" lon="35.0481452">
<ele>511.079987</ele>
<time>2018-05-29T16:35:54.000Z</time>
</trkpt>
<trkpt lat="31.7826209" lon="35.0482505">
<ele>511.570007</ele>
<time>2018-05-29T16:35:59.000Z</time>
</trkpt>
<trkpt lat="31.7826358" lon="35.0483799">
<ele>512.709961</ele>
<time>2018-05-29T16:36:05.000Z</time>
</trkpt>
<trkpt lat="31.7826584" lon="35.0484936">
<ele>513.250000</ele>
<time>2018-05-29T16:36:10.000Z</time>
</trkpt>
<trkpt lat="31.7826806" lon="35.0485938">
<ele>514.289978</ele>
<time>2018-05-29T16:36:15.000Z</time>
</trkpt>
<trkpt lat="31.7827114" lon="35.0486934">
<ele>514.950012</ele>
<time>2018-05-29T16:36:20.000Z</time>
</trkpt>
<trkpt lat="31.7827320" lon="35.0488162">
<ele>515.409973</ele>
<time>2018-05-29T16:36:26.000Z</time>
</trkpt>
<trkpt lat="31.7827624" lon="35.0489324">
<ele>516.479980</ele>
<time>2018-05-29T16:36:32.000Z</time>
</trkpt>
<trkpt lat="31.7827918" lon="35.0490377">
<ele>516.970032</ele>
<time>2018-05-29T16:36:38.000Z</time>
</trkpt>
<trkpt lat="31.7828230" lon="35.0491509">
<ele>518.239990</ele>
<time>2018-05-29T16:36:44.000Z</time>
</trkpt>
<trkpt lat="31.7828617" lon="35.0492647">
<ele>518.480042</ele>
<time>2018-05-29T16:36:51.000Z</time>
</trkpt>
<trkpt lat="31.7829029" lon="35.0493722">
<ele>519.299988</ele>
<time>2018-05-29T16:36:57.000Z</time>
</trkpt>
<trkpt lat="31.7829404" lon="35.0494894">
<ele>520.119995</ele>
<time>2018-05-29T16:37:02.000Z</time>
</trkpt>
<trkpt lat="31.7829777" lon="35.0496011">
<ele>521.510010</ele>
<time>2018-05-29T16:37:08.000Z</time>
</trkpt>
<trkpt lat="31.7830076" lon="35.0497150">
<ele>521.840027</ele>
<time>2018-05-29T16:37:14.000Z</time>
</trkpt>
<trkpt lat="31.7830428" lon="35.0498280">
<ele>522.729980</ele>
<time>2018-05-29T16:37:20.000Z</time>
</trkpt>
<trkpt lat="31.7830681" lon="35.0499372">
<ele>524.799988</ele>
<time>2018-05-29T16:37:26.000Z</time>
</trkpt>
<trkpt lat="31.7830910" lon="35.0500574">
<ele>525.020020</ele>
<time>2018-05-29T16:37:33.000Z</time>
</trkpt>
<trkpt lat="31.7831048" lon="35.0501691">
<ele>526.200012</ele>
<time>2018-05-29T16:37:39.000Z</time>
</trkpt>
<trkpt lat="31.7831123" lon="35.0502913">
<ele>526.880005</ele>
<time>2018-05-29T16:37:47.000Z</time>
</trkpt>
<trkpt lat="31.7831132" lon="35.0504056">
<ele>528.100037</ele>
<time>2018-05-29T16:37:54.000Z</time>
</trkpt>
<trkpt lat="31.7831060" lon="35.0505156">
<ele>529.220032</ele>
<time>2018-05-29T16:38:00.000Z</time>
</trkpt>
<trkpt lat="31.7831068" lon="35.0506252">
<ele>530.280029</ele>
<time>2018-05-29T16:38:06.000Z</time>
</trkpt>
<trkpt lat="31.7830987" lon="35.0507413">
<ele>530.339966</ele>
<time>2018-05-29T16:38:12.000Z</time>
</trkpt>
<trkpt lat="31.7830972" lon="35.0508502">
<ele>531.289978</ele>
<time>2018-05-29T16:38:18.000Z</time>
</trkpt>
<trkpt lat="31.7831054" lon="35.0509605">
<ele>532.570007</ele>
<time>2018-05-29T16:38:24.000Z</time>
</trkpt>
<trkpt lat="31.7830856" lon="35.0510839">
<ele>533.369995</ele>
<time>2018-05-29T16:38:31.000Z</time>
</trkpt>
<trkpt lat="31.7830782" lon="35.0512012">
<ele>534.489990</ele>
<time>2018-05-29T16:38:38.000Z</time>
</trkpt>
<trkpt lat="31.7830713" lon="35.0513123">
<ele>535.460022</ele>
<time>2018-05-29T16:38:44.000Z</time>
</trkpt>
<trkpt lat="31.7830672" lon="35.0514290">
<ele>535.860046</ele>
<time>2018-05-29T16:38:50.000Z</time>
</trkpt>
<trkpt lat="31.7830954" lon="35.0515302">
<ele>536.630005</ele>
<time>2018-05-29T16:38:55.000Z</time>
</trkpt>
<trkpt lat="31.7830933" lon="35.0516500">
<ele>537.510010</ele>
<time>2018-05-29T16:39:02.000Z</time>
</trkpt>
<trkpt lat="31.7830857" lon="35.0517625">
<ele>538.200012</ele>
<time>2018-05-29T16:39:08.000Z</time>
</trkpt>
<trkpt lat="31.7830802" lon="35.0518749">
<ele>539.440002</ele>
<time>2018-05-29T16:39:14.000Z</time>
</trkpt>
<trkpt lat="31.7830730" lon="35.0519970">
<ele>539.580017</ele>
<time>2018-05-29T16:39:20.000Z</time>
</trkpt>
<trkpt lat="31.7830723" lon="35.0521086">
<ele>541.320007</ele>
<time>2018-05-29T16:39:26.000Z</time>
</trkpt>
<trkpt lat="31.7830696" lon="35.0522289">
<ele>542.140015</ele>
<time>2018-05-29T16:39:33.000Z</time>
</trkpt>
<trkpt lat="31.7830745" lon="35.0523554">
<ele>543.640015</ele>
<time>2018-05-29T16:39:40.000Z</time>
</trkpt>
<trkpt lat="31.7830648" lon="35.0524783">
<ele>544.429993</ele>
<time>2018-05-29T16:39:46.000Z</time>
</trkpt>
<trkpt lat="31.7830580" lon="35.0525982">
<ele>545.100037</ele>
<time>2018-05-29T16:39:52.000Z</time>
</trkpt>
<trkpt lat="31.7830516" lon="35.0527115">
<ele>545.839966</ele>
<time>2018-05-29T16:39:58.000Z</time>
</trkpt>
<trkpt lat="31.7830485" lon="35.0528318">
<ele>546.679993</ele>
<time>2018-05-29T16:40:04.000Z</time>
</trkpt>
<trkpt lat="31.7830497" lon="35.0529511">
<ele>547.469971</ele>
<time>2018-05-29T16:40:10.000Z</time>
</trkpt>
<trkpt lat="31.7830454" lon="35.0530694">
<ele>547.779968</ele>
<time>2018-05-29T16:40:16.000Z</time>
</trkpt>
<trkpt lat="31.7830287" lon="35.0531905">
<ele>549.260010</ele>
<time>2018-05-29T16:40:23.000Z</time>
</trkpt>
<trkpt lat="31.7830019" lon="35.0533142">
<ele>549.539978</ele>
<time>2018-05-29T16:40:29.000Z</time>
</trkpt>
<trkpt lat="31.7829709" lon="35.0534242">
<ele>549.880005</ele>
<time>2018-05-29T16:40:35.000Z</time>
</trkpt>
<trkpt lat="31.7829324" lon="35.0535303">
<ele>550.119995</ele>
<time>2018-05-29T16:40:41.000Z</time>
</trkpt>
<trkpt lat="31.7828957" lon="35.0536353">
<ele>550.549988</ele>
<time>2018-05-29T16:40:46.000Z</time>
</trkpt>
<trkpt lat="31.7828577" lon="35.0537314">
<ele>551.789978</ele>
<time>2018-05-29T16:40:51.000Z</time>
</trkpt>
<trkpt lat="31.7828122" lon="35.0538480">
<ele>551.929993</ele>
<time>2018-05-29T16:40:57.000Z</time>
</trkpt>
<trkpt lat="31.7827599" lon="35.0539596">
<ele>553.109985</ele>
<time>2018-05-29T16:41:03.000Z</time>
</trkpt>
<trkpt lat="31.7827148" lon="35.0540676">
<ele>554.029968</ele>
<time>2018-05-29T16:41:09.000Z</time>
</trkpt>
<trkpt lat="31.7826823" lon="35.0541722">
<ele>554.140015</ele>
<time>2018-05-29T16:41:15.000Z</time>
</trkpt>
<trkpt lat="31.7826494" lon="35.0542760">
<ele>554.390015</ele>
<time>2018-05-29T16:41:20.000Z</time>
</trkpt>
<trkpt lat="31.7826203" lon="35.0543853">
<ele>555.940002</ele>
<time>2018-05-29T16:41:26.000Z</time>
</trkpt>
<trkpt lat="31.7826025" lon="35.0544919">
<ele>556.380005</ele>
<time>2018-05-29T16:41:31.000Z</time>
</trkpt>
<trkpt lat="31.7825701" lon="35.0546157">
<ele>557.359985</ele>
<time>2018-05-29T16:41:37.000Z</time>
</trkpt>
<trkpt lat="31.7825433" lon="35.0547255">
<ele>558.239990</ele>
<time>2018-05-29T16:41:42.000Z</time>
</trkpt>
<trkpt lat="31.7825098" lon="35.0548462">
<ele>559.220032</ele>
<time>2018-05-29T16:41:48.000Z</time>
</trkpt>
<trkpt lat="31.7824691" lon="35.0549607">
<ele>560.539978</ele>
<time>2018-05-29T16:41:54.000Z</time>
</trkpt>
<trkpt lat="31.7824184" lon="35.0550539">
<ele>561.690002</ele>
<time>2018-05-29T16:42:00.000Z</time>
</trkpt>
<trkpt lat="31.7823595" lon="35.0551364">
<ele>562.830017</ele>
<time>2018-05-29T16:42:07.000Z</time>
</trkpt>
<trkpt lat="31.7822800" lon="35.0552129">
<ele>564.630005</ele>
<time>2018-05-29T16:42:14.000Z</time>
</trkpt>
<trkpt lat="31.7822015" lon="35.0552716">
<ele>565.029968</ele>
<time>2018-05-29T16:42:20.000Z</time>
</trkpt>
<trkpt lat="31.7821145" lon="35.0553053">
<ele>566.599976</ele>
<time>2018-05-29T16:42:27.000Z</time>
</trkpt>
<trkpt lat="31.7820346" lon="35.0553476">
<ele>567.369995</ele>
<time>2018-05-29T16:42:36.000Z</time>
</trkpt>
<trkpt lat="31.7819422" lon="35.0553759">
<ele>568.340027</ele>
<time>2018-05-29T16:42:43.000Z</time>
</trkpt>
<trkpt lat="31.7818459" lon="35.0553930">
<ele>569.539978</ele>
<time>2018-05-29T16:42:50.000Z</time>
</trkpt>
<trkpt lat="31.7817445" lon="35.0553911">
<ele>570.900024</ele>
<time>2018-05-29T16:42:58.000Z</time>
</trkpt>
<trkpt lat="31.7816445" lon="35.0553816">
<ele>572.250000</ele>
<time>2018-05-29T16:43:06.000Z</time>
</trkpt>
<trkpt lat="31.7815535" lon="35.0553595">
<ele>572.849976</ele>
<time>2018-05-29T16:43:13.000Z</time>
</trkpt>
<trkpt lat="31.7814629" lon="35.0553509">
<ele>573.910034</ele>
<time>2018-05-29T16:43:20.000Z</time>
</trkpt>
<trkpt lat="31.7813715" lon="35.0553337">
<ele>574.779968</ele>
<time>2018-05-29T16:43:26.000Z</time>
</trkpt>
<trkpt lat="31.7812779" lon="35.0553072">
<ele>575.450012</ele>
<time>2018-05-29T16:43:32.000Z</time>
</trkpt>
<trkpt lat="31.7811836" lon="35.0552870">
<ele>576.029968</ele>
<time>2018-05-29T16:43:38.000Z</time>
</trkpt>
<trkpt lat="31.7810927" lon="35.0552790">
<ele>576.869995</ele>
<time>2018-05-29T16:43:44.000Z</time>
</trkpt>
<trkpt lat="31.7809938" lon="35.0552812">
<ele>577.760010</ele>
<time>2018-05-29T16:43:51.000Z</time>
</trkpt>
<trkpt lat="31.7808956" lon="35.0552879">
<ele>577.720032</ele>
<time>2018-05-29T16:43:57.000Z</time>
</trkpt>
<trkpt lat="31.7807979" lon="35.0552911">
<ele>578.150024</ele>
<time>2018-05-29T16:44:03.000Z</time>
</trkpt>
<trkpt lat="31.7806936" lon="35.0552858">
<ele>580.059998</ele>
<time>2018-05-29T16:44:10.000Z</time>
</trkpt>
<trkpt lat="31.7805890" lon="35.0552742">
<ele>581.000000</ele>
<time>2018-05-29T16:44:17.000Z</time>
</trkpt>
<trkpt lat="31.7804860" lon="35.0552603">
<ele>581.790039</ele>
<time>2018-05-29T16:44:24.000Z</time>
</trkpt>
<trkpt lat="31.7803897" lon="35.0552546">
<ele>582.700012</ele>
<time>2018-05-29T16:44:30.000Z</time>
</trkpt>
<trkpt lat="31.7802988" lon="35.0552844">
<ele>583.489990</ele>
<time>2018-05-29T16:44:36.000Z</time>
</trkpt>
<trkpt lat="31.7802204" lon="35.0553796">
<ele>583.270020</ele>
<time>2018-05-29T16:45:49.000Z</time>
</trkpt>
<trkpt lat="31.7801642" lon="35.0554744">
<ele>582.940002</ele>
<time>2018-05-29T16:45:52.000Z</time>
</trkpt>
<trkpt lat="31.7801031" lon="35.0556029">
<ele>582.190002</ele>
<time>2018-05-29T16:45:55.000Z</time>
</trkpt>
<trkpt lat="31.7800607" lon="35.0556978">
<ele>582.099976</ele>
<time>2018-05-29T16:45:57.000Z</time>
</trkpt>
<trkpt lat="31.7799989" lon="35.0558405">
<ele>581.929993</ele>
<time>2018-05-29T16:46:00.000Z</time>
</trkpt>
<trkpt lat="31.7799545" lon="35.0559397">
<ele>581.570007</ele>
<time>2018-05-29T16:46:02.000Z</time>
</trkpt>
<trkpt lat="31.7799125" lon="35.0560393">
<ele>581.500000</ele>
<time>2018-05-29T16:46:04.000Z</time>
</trkpt>
<trkpt lat="31.7798695" lon="35.0561436">
<ele>581.630005</ele>
<time>2018-05-29T16:46:06.000Z</time>
</trkpt>
<trkpt lat="31.7798238" lon="35.0562485">
<ele>581.419983</ele>
<time>2018-05-29T16:46:08.000Z</time>
</trkpt>
<trkpt lat="31.7797725" lon="35.0563531">
<ele>581.210022</ele>
<time>2018-05-29T16:46:10.000Z</time>
</trkpt>
<trkpt lat="31.7797210" lon="35.0564660">
<ele>580.700012</ele>
<time>2018-05-29T16:46:12.000Z</time>
</trkpt>
<trkpt lat="31.7796693" lon="35.0565830">
<ele>580.760010</ele>
<time>2018-05-29T16:46:14.000Z</time>
</trkpt>
<trkpt lat="31.7796129" lon="35.0567060">
<ele>581.049988</ele>
<time>2018-05-29T16:46:16.000Z</time>
</trkpt>
<trkpt lat="31.7795504" lon="35.0568312">
<ele>580.440002</ele>
<time>2018-05-29T16:46:18.000Z</time>
</trkpt>
<trkpt lat="31.7794898" lon="35.0569560">
<ele>579.969971</ele>
<time>2018-05-29T16:46:20.000Z</time>
</trkpt>
<trkpt lat="31.7794276" lon="35.0570794">
<ele>580.130005</ele>
<time>2018-05-29T16:46:22.000Z</time>
</trkpt>
<trkpt lat="31.7793653" lon="35.0571981">
<ele>579.929993</ele>
<time>2018-05-29T16:46:24.000Z</time>
</trkpt>
<trkpt lat="31.7793072" lon="35.0573180">
<ele>579.559998</ele>
<time>2018-05-29T16:46:26.000Z</time>
</trkpt>
<trkpt lat="31.7792554" lon="35.0574327">
<ele>579.869995</ele>
<time>2018-05-29T16:46:28.000Z</time>
</trkpt>
<trkpt lat="31.7792042" lon="35.0575411">
<ele>580.330017</ele>
<time>2018-05-29T16:46:30.000Z</time>
</trkpt>
<trkpt lat="31.7791562" lon="35.0576385">
<ele>580.349976</ele>
<time>2018-05-29T16:46:32.000Z</time>
</trkpt>
<trkpt lat="31.7790984" lon="35.0577739">
<ele>581.200012</ele>
<time>2018-05-29T16:46:35.000Z</time>
</trkpt>
<trkpt lat="31.7790600" lon="35.0578945">
<ele>582.299988</ele>
<time>2018-05-29T16:46:38.000Z</time>
</trkpt>
<trkpt lat="31.7790439" lon="35.0580122">
<ele>582.799988</ele>
<time>2018-05-29T16:46:41.000Z</time>
</trkpt>
<trkpt lat="31.7790600" lon="35.0581190">
<ele>583.119995</ele>
<time>2018-05-29T16:46:44.000Z</time>
</trkpt>
<trkpt lat="31.7791149" lon="35.0582097">
<ele>583.679993</ele>
<time>2018-05-29T16:46:47.000Z</time>
</trkpt>
<trkpt lat="31.7792090" lon="35.0582527">
<ele>583.929993</ele>
<time>2018-05-29T16:46:50.000Z</time>
</trkpt>
<trkpt lat="31.7793292" lon="35.0582443">
<ele>583.659973</ele>
<time>2018-05-29T16:46:53.000Z</time>
</trkpt>
<trkpt lat="31.7794587" lon="35.0582078">
<ele>584.449951</ele>
<time>2018-05-29T16:46:56.000Z</time>
</trkpt>
<trkpt lat="31.7795919" lon="35.0581714">
<ele>584.650024</ele>
<time>2018-05-29T16:46:59.000Z</time>
</trkpt>
<trkpt lat="31.7796791" lon="35.0581563">
<ele>584.690002</ele>
<time>2018-05-29T16:47:01.000Z</time>
</trkpt>
<trkpt lat="31.7798110" lon="35.0581499">
<ele>585.000000</ele>
<time>2018-05-29T16:47:04.000Z</time>
</trkpt>
<trkpt lat="31.7799434" lon="35.0581615">
<ele>584.599976</ele>
<time>2018-05-29T16:47:07.000Z</time>
</trkpt>
<trkpt lat="31.7800774" lon="35.0582057">
<ele>584.579956</ele>
<time>2018-05-29T16:47:10.000Z</time>
</trkpt>
<trkpt lat="31.7801640" lon="35.0582593">
<ele>584.619995</ele>
<time>2018-05-29T16:47:12.000Z</time>
</trkpt>
<trkpt lat="31.7802393" lon="35.0583296">
<ele>584.609985</ele>
<time>2018-05-29T16:47:14.000Z</time>
</trkpt>
<trkpt lat="31.7803002" lon="35.0584194">
<ele>584.660034</ele>
<time>2018-05-29T16:47:16.000Z</time>
</trkpt>
<trkpt lat="31.7803454" lon="35.0585235">
<ele>584.650024</ele>
<time>2018-05-29T16:47:18.000Z</time>
</trkpt>
<trkpt lat="31.7803769" lon="35.0586297">
<ele>585.479980</ele>
<time>2018-05-29T16:47:20.000Z</time>
</trkpt>
<trkpt lat="31.7804084" lon="35.0587778">
<ele>586.580017</ele>
<time>2018-05-29T16:47:23.000Z</time>
</trkpt>
<trkpt lat="31.7804245" lon="35.0589166">
<ele>587.340027</ele>
<time>2018-05-29T16:47:26.000Z</time>
</trkpt>
<trkpt lat="31.7804315" lon="35.0590369">
<ele>587.479980</ele>
<time>2018-05-29T16:47:29.000Z</time>
</trkpt>
<trkpt lat="31.7804393" lon="35.0591845">
<ele>587.599976</ele>
<time>2018-05-29T16:47:32.000Z</time>
</trkpt>
<trkpt lat="31.7804432" lon="35.0592990">
<ele>588.539978</ele>
<time>2018-05-29T16:47:35.000Z</time>
</trkpt>
<trkpt lat="31.7804452" lon="35.0594217">
<ele>589.729980</ele>
<time>2018-05-29T16:47:39.000Z</time>
</trkpt>
<trkpt lat="31.7804320" lon="35.0595432">
<ele>590.309998</ele>
<time>2018-05-29T16:47:43.000Z</time>
</trkpt>
<trkpt lat="31.7804209" lon="35.0596708">
<ele>591.040039</ele>
<time>2018-05-29T16:47:47.000Z</time>
</trkpt>
<trkpt lat="31.7804087" lon="35.0597963">
<ele>591.640015</ele>
<time>2018-05-29T16:47:51.000Z</time>
</trkpt>
<trkpt lat="31.7803942" lon="35.0599135">
<ele>592.080017</ele>
<time>2018-05-29T16:47:55.000Z</time>
</trkpt>
<trkpt lat="31.7803758" lon="35.0600348">
<ele>592.320007</ele>
<time>2018-05-29T16:47:59.000Z</time>
</trkpt>
<trkpt lat="31.7803544" lon="35.0601683">
<ele>592.650024</ele>
<time>2018-05-29T16:48:03.000Z</time>
</trkpt>
<trkpt lat="31.7803413" lon="35.0603055">
<ele>593.470032</ele>
<time>2018-05-29T16:48:07.000Z</time>
</trkpt>
<trkpt lat="31.7803197" lon="35.0604474">
<ele>593.000000</ele>
<time>2018-05-29T16:48:11.000Z</time>
</trkpt>
<trkpt lat="31.7803028" lon="35.0605682">
<ele>592.979980</ele>
<time>2018-05-29T16:48:14.000Z</time>
</trkpt>
<trkpt lat="31.7802852" lon="35.0607101">
<ele>592.559998</ele>
<time>2018-05-29T16:48:17.000Z</time>
</trkpt>
<trkpt lat="31.7802647" lon="35.0608648">
<ele>592.289978</ele>
<time>2018-05-29T16:48:20.000Z</time>
</trkpt>
<trkpt lat="31.7802410" lon="35.0609775">
<ele>591.390015</ele>
<time>2018-05-29T16:48:22.000Z</time>
</trkpt>
<trkpt lat="31.7802124" lon="35.0611001">
<ele>591.309998</ele>
<time>2018-05-29T16:48:24.000Z</time>
</trkpt>
<trkpt lat="31.7801856" lon="35.0612120">
<ele>591.510010</ele>
<time>2018-05-29T16:48:26.000Z</time>
</trkpt>
<trkpt lat="31.7801461" lon="35.0613586">
<ele>591.840027</ele>
<time>2018-05-29T16:48:29.000Z</time>
</trkpt>
<trkpt lat="31.7801099" lon="35.0614783">
<ele>592.359985</ele>
<time>2018-05-29T16:48:32.000Z</time>
</trkpt>
<trkpt lat="31.7800751" lon="35.0615860">
<ele>592.799988</ele>
<time>2018-05-29T16:48:35.000Z</time>
</trkpt>
<trkpt lat="31.7800276" lon="35.0616986">
<ele>593.610046</ele>
<time>2018-05-29T16:48:39.000Z</time>
</trkpt>
<trkpt lat="31.7799746" lon="35.0618149">
<ele>594.390015</ele>
<time>2018-05-29T16:48:43.000Z</time>
</trkpt>
<trkpt lat="31.7799341" lon="35.0619134">
<ele>595.029968</ele>
<time>2018-05-29T16:48:46.000Z</time>
</trkpt>
<trkpt lat="31.7798882" lon="35.0620067">
<ele>595.369995</ele>
<time>2018-05-29T16:48:49.000Z</time>
</trkpt>
<trkpt lat="31.7798422" lon="35.0621028">
<ele>596.000000</ele>
<time>2018-05-29T16:48:52.000Z</time>
</trkpt>
<trkpt lat="31.7797980" lon="35.0622038">
<ele>596.929993</ele>
<time>2018-05-29T16:48:55.000Z</time>
</trkpt>
<trkpt lat="31.7797328" lon="35.0623293">
<ele>597.160034</ele>
<time>2018-05-29T16:48:59.000Z</time>
</trkpt>
<trkpt lat="31.7796673" lon="35.0624458">
<ele>597.619995</ele>
<time>2018-05-29T16:49:03.000Z</time>
</trkpt>
<trkpt lat="31.7796169" lon="35.0625415">
<ele>598.210022</ele>
<time>2018-05-29T16:49:06.000Z</time>
</trkpt>
<trkpt lat="31.7795516" lon="35.0626538">
<ele>598.289978</ele>
<time>2018-05-29T16:49:10.000Z</time>
</trkpt>
<trkpt lat="31.7794954" lon="35.0627422">
<ele>599.049988</ele>
<time>2018-05-29T16:49:13.000Z</time>
</trkpt>
<trkpt lat="31.7794266" lon="35.0628594">
<ele>599.219971</ele>
<time>2018-05-29T16:49:17.000Z</time>
</trkpt>
<trkpt lat="31.7793772" lon="35.0629749">
<ele>599.710022</ele>
<time>2018-05-29T16:49:21.000Z</time>
</trkpt>
<trkpt lat="31.7793304" lon="35.0630816">
<ele>599.109985</ele>
<time>2018-05-29T16:49:24.000Z</time>
</trkpt>
<trkpt lat="31.7792900" lon="35.0631856">
<ele>599.330017</ele>
<time>2018-05-29T16:49:27.000Z</time>
</trkpt>
<trkpt lat="31.7792521" lon="35.0632928">
<ele>600.109985</ele>
<time>2018-05-29T16:49:30.000Z</time>
</trkpt>
<trkpt lat="31.7792114" lon="35.0634079">
<ele>600.760010</ele>
<time>2018-05-29T16:49:33.000Z</time>
</trkpt>
<trkpt lat="31.7791755" lon="35.0635177">
<ele>600.079956</ele>
<time>2018-05-29T16:49:36.000Z</time>
</trkpt>
<trkpt lat="31.7791349" lon="35.0636277">
<ele>600.599976</ele>
<time>2018-05-29T16:49:39.000Z</time>
</trkpt>
<trkpt lat="31.7790886" lon="35.0637357">
<ele>601.279968</ele>
<time>2018-05-29T16:49:42.000Z</time>
</trkpt>
<trkpt lat="31.7790448" lon="35.0638381">
<ele>601.750000</ele>
<time>2018-05-29T16:49:45.000Z</time>
</trkpt>
<trkpt lat="31.7790069" lon="35.0639390">
<ele>601.880005</ele>
<time>2018-05-29T16:49:48.000Z</time>
</trkpt>
<trkpt lat="31.7789750" lon="35.0640795">
<ele>603.369995</ele>
<time>2018-05-29T16:49:52.000Z</time>
</trkpt>
<trkpt lat="31.7789515" lon="35.0641940">
<ele>603.820007</ele>
<time>2018-05-29T16:49:56.000Z</time>
</trkpt>
<trkpt lat="31.7789350" lon="35.0643140">
<ele>604.659973</ele>
<time>2018-05-29T16:50:00.000Z</time>
</trkpt>
<trkpt lat="31.7789562" lon="35.0644360">
<ele>605.950012</ele>
<time>2018-05-29T16:50:05.000Z</time>
</trkpt>
<trkpt lat="31.7789816" lon="35.0645414">
<ele>606.700012</ele>
<time>2018-05-29T16:50:10.000Z</time>
</trkpt>
<trkpt lat="31.7790597" lon="35.0646204">
<ele>606.710022</ele>
<time>2018-05-29T16:50:16.000Z</time>
</trkpt>
<trkpt lat="31.7791650" lon="35.0646369">
<ele>607.369995</ele>
<time>2018-05-29T16:50:21.000Z</time>
</trkpt>
<trkpt lat="31.7792793" lon="35.0645925">
<ele>606.799988</ele>
<time>2018-05-29T16:50:25.000Z</time>
</trkpt>
<trkpt lat="31.7793785" lon="35.0645232">
<ele>606.159973</ele>
<time>2018-05-29T16:50:28.000Z</time>
</trkpt>
<trkpt lat="31.7794898" lon="35.0644485">
<ele>606.190002</ele>
<time>2018-05-29T16:50:31.000Z</time>
</trkpt>
<trkpt lat="31.7795920" lon="35.0643915">
<ele>605.899963</ele>
<time>2018-05-29T16:50:34.000Z</time>
</trkpt>
<trkpt lat="31.7796907" lon="35.0643330">
<ele>605.710022</ele>
<time>2018-05-29T16:50:38.000Z</time>
</trkpt>
<trkpt lat="31.7797741" lon="35.0642590">
<ele>605.720032</ele>
<time>2018-05-29T16:50:42.000Z</time>
</trkpt>
<trkpt lat="31.7798680" lon="35.0642005">
<ele>606.299988</ele>
<time>2018-05-29T16:50:46.000Z</time>
</trkpt>
<trkpt lat="31.7799731" lon="35.0641393">
<ele>607.179993</ele>
<time>2018-05-29T16:50:50.000Z</time>
</trkpt>
<trkpt lat="31.7800579" lon="35.0640801">
<ele>607.220032</ele>
<time>2018-05-29T16:50:53.000Z</time>
</trkpt>
<trkpt lat="31.7801501" lon="35.0640181">
<ele>607.220032</ele>
<time>2018-05-29T16:50:56.000Z</time>
</trkpt>
<trkpt lat="31.7802356" lon="35.0639640">
<ele>607.450012</ele>
<time>2018-05-29T16:50:59.000Z</time>
</trkpt>
<trkpt lat="31.7803227" lon="35.0639147">
<ele>608.789978</ele>
<time>2018-05-29T16:51:02.000Z</time>
</trkpt>
<trkpt lat="31.7804144" lon="35.0638622">
<ele>608.570007</ele>
<time>2018-05-29T16:51:05.000Z</time>
</trkpt>
<trkpt lat="31.7805144" lon="35.0638157">
<ele>608.109985</ele>
<time>2018-05-29T16:51:08.000Z</time>
</trkpt>
<trkpt lat="31.7806232" lon="35.0637668">
<ele>608.400024</ele>
<time>2018-05-29T16:51:11.000Z</time>
</trkpt>
<trkpt lat="31.7807471" lon="35.0637139">
<ele>607.470032</ele>
<time>2018-05-29T16:51:14.000Z</time>
</trkpt>
<trkpt lat="31.7808801" lon="35.0637207">
<ele>606.679993</ele>
<time>2018-05-29T16:51:17.000Z</time>
</trkpt>
<trkpt lat="31.7809626" lon="35.0637772">
<ele>606.070007</ele>
<time>2018-05-29T16:51:19.000Z</time>
</trkpt>
<trkpt lat="31.7810189" lon="35.0638672">
<ele>606.039978</ele>
<time>2018-05-29T16:51:21.000Z</time>
</trkpt>
<trkpt lat="31.7810499" lon="35.0639842">
<ele>606.619995</ele>
<time>2018-05-29T16:51:23.000Z</time>
</trkpt>
<trkpt lat="31.7810627" lon="35.0641108">
<ele>606.289978</ele>
<time>2018-05-29T16:51:25.000Z</time>
</trkpt>
<trkpt lat="31.7810694" lon="35.0642290">
<ele>605.769958</ele>
<time>2018-05-29T16:51:27.000Z</time>
</trkpt>
<trkpt lat="31.7810724" lon="35.0643724">
<ele>605.840027</ele>
<time>2018-05-29T16:51:30.000Z</time>
</trkpt>
<trkpt lat="31.7810747" lon="35.0645080">
<ele>606.950012</ele>
<time>2018-05-29T16:51:33.000Z</time>
</trkpt>
<trkpt lat="31.7810787" lon="35.0646300">
<ele>607.380005</ele>
<time>2018-05-29T16:51:36.000Z</time>
</trkpt>
<trkpt lat="31.7810770" lon="35.0647737">
<ele>607.510010</ele>
<time>2018-05-29T16:51:39.000Z</time>
</trkpt>
<trkpt lat="31.7810798" lon="35.0649072">
<ele>608.309998</ele>
<time>2018-05-29T16:51:42.000Z</time>
</trkpt>
<trkpt lat="31.7810854" lon="35.0650349">
<ele>608.429993</ele>
<time>2018-05-29T16:51:45.000Z</time>
</trkpt>
<trkpt lat="31.7810872" lon="35.0651645">
<ele>608.649963</ele>
<time>2018-05-29T16:51:48.000Z</time>
</trkpt>
<trkpt lat="31.7810899" lon="35.0652913">
<ele>609.159973</ele>
<time>2018-05-29T16:51:51.000Z</time>
</trkpt>
<trkpt lat="31.7810985" lon="35.0654172">
<ele>609.979980</ele>
<time>2018-05-29T16:51:54.000Z</time>
</trkpt>
<trkpt lat="31.7810980" lon="35.0655290">
<ele>610.260010</ele>
<time>2018-05-29T16:51:57.000Z</time>
</trkpt>
<trkpt lat="31.7810945" lon="35.0656551">
<ele>611.540039</ele>
<time>2018-05-29T16:52:01.000Z</time>
</trkpt>
<trkpt lat="31.7810751" lon="35.0657736">
<ele>611.630005</ele>
<time>2018-05-29T16:52:06.000Z</time>
</trkpt>
<trkpt lat="31.7810656" lon="35.0659049">
<ele>612.940002</ele>
<time>2018-05-29T16:52:11.000Z</time>
</trkpt>
<trkpt lat="31.7810430" lon="35.0660186">
<ele>613.429993</ele>
<time>2018-05-29T16:52:15.000Z</time>
</trkpt>
<trkpt lat="31.7810102" lon="35.0661256">
<ele>613.929993</ele>
<time>2018-05-29T16:52:19.000Z</time>
</trkpt>
<trkpt lat="31.7809676" lon="35.0662311">
<ele>614.440002</ele>
<time>2018-05-29T16:52:23.000Z</time>
</trkpt>
<trkpt lat="31.7809125" lon="35.0663377">
<ele>614.469971</ele>
<time>2018-05-29T16:52:27.000Z</time>
</trkpt>
<trkpt lat="31.7808535" lon="35.0664472">
<ele>614.780029</ele>
<time>2018-05-29T16:52:31.000Z</time>
</trkpt>
<trkpt lat="31.7807867" lon="35.0665546">
<ele>615.029968</ele>
<time>2018-05-29T16:52:35.000Z</time>
</trkpt>
<trkpt lat="31.7807321" lon="35.0666516">
<ele>615.190002</ele>
<time>2018-05-29T16:52:38.000Z</time>
</trkpt>
<trkpt lat="31.7806773" lon="35.0667474">
<ele>614.760010</ele>
<time>2018-05-29T16:52:41.000Z</time>
</trkpt>
<trkpt lat="31.7806177" lon="35.0668340">
<ele>614.270020</ele>
<time>2018-05-29T16:52:44.000Z</time>
</trkpt>
<trkpt lat="31.7805470" lon="35.0669340">
<ele>613.570007</ele>
<time>2018-05-29T16:52:47.000Z</time>
</trkpt>
<trkpt lat="31.7804846" lon="35.0670178">
<ele>612.839966</ele>
<time>2018-05-29T16:52:49.000Z</time>
</trkpt>
<trkpt lat="31.7804106" lon="35.0671107">
<ele>612.340027</ele>
<time>2018-05-29T16:52:51.000Z</time>
</trkpt>
<trkpt lat="31.7803371" lon="35.0672126">
<ele>611.919983</ele>
<time>2018-05-29T16:52:53.000Z</time>
</trkpt>
<trkpt lat="31.7802658" lon="35.0673172">
<ele>611.380005</ele>
<time>2018-05-29T16:52:55.000Z</time>
</trkpt>
<trkpt lat="31.7802128" lon="35.0674181">
<ele>611.359985</ele>
<time>2018-05-29T16:52:57.000Z</time>
</trkpt>
<trkpt lat="31.7801648" lon="35.0675526">
<ele>611.469971</ele>
<time>2018-05-29T16:53:00.000Z</time>
</trkpt>
<trkpt lat="31.7801458" lon="35.0676767">
<ele>611.909973</ele>
<time>2018-05-29T16:53:03.000Z</time>
</trkpt>
<trkpt lat="31.7801534" lon="35.0677985">
<ele>611.320007</ele>
<time>2018-05-29T16:53:06.000Z</time>
</trkpt>
<trkpt lat="31.7801730" lon="35.0679040">
<ele>610.000000</ele>
<time>2018-05-29T16:53:08.000Z</time>
</trkpt>
<trkpt lat="31.7802101" lon="35.0680178">
<ele>609.150024</ele>
<time>2018-05-29T16:53:10.000Z</time>
</trkpt>
<trkpt lat="31.7802573" lon="35.0681627">
<ele>607.959961</ele>
<time>2018-05-29T16:53:12.000Z</time>
</trkpt>
<trkpt lat="31.7803015" lon="35.0683357">
<ele>606.729980</ele>
<time>2018-05-29T16:53:14.000Z</time>
</trkpt>
<trkpt lat="31.7803341" lon="35.0685196">
<ele>604.900024</ele>
<time>2018-05-29T16:53:16.000Z</time>
</trkpt>
<trkpt lat="31.7803511" lon="35.0687118">
<ele>604.159973</ele>
<time>2018-05-29T16:53:18.000Z</time>
</trkpt>
<trkpt lat="31.7803481" lon="35.0688105">
<ele>604.140015</ele>
<time>2018-05-29T16:53:19.000Z</time>
</trkpt>
<trkpt lat="31.7803284" lon="35.0690136">
<ele>602.890015</ele>
<time>2018-05-29T16:53:21.000Z</time>
</trkpt>
<trkpt lat="31.7802996" lon="35.0692173">
<ele>601.919983</ele>
<time>2018-05-29T16:53:23.000Z</time>
</trkpt>
<trkpt lat="31.7802628" lon="35.0694198">
<ele>601.029968</ele>
<time>2018-05-29T16:53:25.000Z</time>
</trkpt>
<trkpt lat="31.7802248" lon="35.0696246">
<ele>599.779968</ele>
<time>2018-05-29T16:53:27.000Z</time>
</trkpt>
<trkpt lat="31.7801855" lon="35.0698274">
<ele>599.200012</ele>
<time>2018-05-29T16:53:29.000Z</time>
</trkpt>
<trkpt lat="31.7801323" lon="35.0700172">
<ele>598.709961</ele>
<time>2018-05-29T16:53:31.000Z</time>
</trkpt>
<trkpt lat="31.7800582" lon="35.0701856">
<ele>598.969971</ele>
<time>2018-05-29T16:53:33.000Z</time>
</trkpt>
<trkpt lat="31.7799794" lon="35.0703414">
<ele>599.229980</ele>
<time>2018-05-29T16:53:35.000Z</time>
</trkpt>
<trkpt lat="31.7798982" lon="35.0704902">
<ele>598.489990</ele>
<time>2018-05-29T16:53:37.000Z</time>
</trkpt>
<trkpt lat="31.7798169" lon="35.0706279">
<ele>598.029968</ele>
<time>2018-05-29T16:53:39.000Z</time>
</trkpt>
<trkpt lat="31.7797381" lon="35.0707533">
<ele>597.410034</ele>
<time>2018-05-29T16:53:41.000Z</time>
</trkpt>
<trkpt lat="31.7796658" lon="35.0708710">
<ele>597.020020</ele>
<time>2018-05-29T16:53:43.000Z</time>
</trkpt>
<trkpt lat="31.7795930" lon="35.0709915">
<ele>596.279968</ele>
<time>2018-05-29T16:53:45.000Z</time>
</trkpt>
<trkpt lat="31.7795153" lon="35.0711187">
<ele>595.280029</ele>
<time>2018-05-29T16:53:47.000Z</time>
</trkpt>
<trkpt lat="31.7794472" lon="35.0712642">
<ele>595.080017</ele>
<time>2018-05-29T16:53:49.000Z</time>
</trkpt>
<trkpt lat="31.7794091" lon="35.0714280">
<ele>594.570007</ele>
<time>2018-05-29T16:53:51.000Z</time>
</trkpt>
<trkpt lat="31.7794081" lon="35.0715949">
<ele>593.630005</ele>
<time>2018-05-29T16:53:53.000Z</time>
</trkpt>
<trkpt lat="31.7794245" lon="35.0717493">
<ele>594.140015</ele>
<time>2018-05-29T16:53:55.000Z</time>
</trkpt>
<trkpt lat="31.7794410" lon="35.0718982">
<ele>593.959961</ele>
<time>2018-05-29T16:53:57.000Z</time>
</trkpt>
<trkpt lat="31.7794577" lon="35.0720416">
<ele>593.809998</ele>
<time>2018-05-29T16:53:59.000Z</time>
</trkpt>
<trkpt lat="31.7794682" lon="35.0721755">
<ele>593.010010</ele>
<time>2018-05-29T16:54:01.000Z</time>
</trkpt>
<trkpt lat="31.7794675" lon="35.0722980">
<ele>593.880005</ele>
<time>2018-05-29T16:54:03.000Z</time>
</trkpt>
<trkpt lat="31.7794566" lon="35.0724167">
<ele>593.770020</ele>
<time>2018-05-29T16:54:05.000Z</time>
</trkpt>
<trkpt lat="31.7794371" lon="35.0725341">
<ele>593.610046</ele>
<time>2018-05-29T16:54:07.000Z</time>
</trkpt>
<trkpt lat="31.7794182" lon="35.0726484">
<ele>593.929993</ele>
<time>2018-05-29T16:54:09.000Z</time>
</trkpt>
<trkpt lat="31.7793926" lon="35.0727599">
<ele>594.089966</ele>
<time>2018-05-29T16:54:11.000Z</time>
</trkpt>
<trkpt lat="31.7793695" lon="35.0728696">
<ele>594.359985</ele>
<time>2018-05-29T16:54:13.000Z</time>
</trkpt>
<trkpt lat="31.7793516" lon="35.0729812">
<ele>594.010010</ele>
<time>2018-05-29T16:54:15.000Z</time>
</trkpt>
<trkpt lat="31.7793343" lon="35.0731027">
<ele>594.510010</ele>
<time>2018-05-29T16:54:17.000Z</time>
</trkpt>
<trkpt lat="31.7793179" lon="35.0732272">
<ele>594.359985</ele>
<time>2018-05-29T16:54:19.000Z</time>
</trkpt>
<trkpt lat="31.7793190" lon="35.0733444">
<ele>594.190002</ele>
<time>2018-05-29T16:54:21.000Z</time>
</trkpt>
<trkpt lat="31.7793384" lon="35.0734489">
<ele>593.869995</ele>
<time>2018-05-29T16:54:23.000Z</time>
</trkpt>
<trkpt lat="31.7793861" lon="35.0735873">
<ele>594.479980</ele>
<time>2018-05-29T16:54:26.000Z</time>
</trkpt>
<trkpt lat="31.7794291" lon="35.0736862">
<ele>594.210022</ele>
<time>2018-05-29T16:54:28.000Z</time>
</trkpt>
<trkpt lat="31.7794822" lon="35.0737833">
<ele>594.169983</ele>
<time>2018-05-29T16:54:30.000Z</time>
</trkpt>
<trkpt lat="31.7795364" lon="35.0738773">
<ele>594.559998</ele>
<time>2018-05-29T16:54:32.000Z</time>
</trkpt>
<trkpt lat="31.7795904" lon="35.0739705">
<ele>594.280029</ele>
<time>2018-05-29T16:54:34.000Z</time>
</trkpt>
<trkpt lat="31.7796405" lon="35.0740657">
<ele>594.869995</ele>
<time>2018-05-29T16:54:36.000Z</time>
</trkpt>
<trkpt lat="31.7796913" lon="35.0741701">
<ele>594.059998</ele>
<time>2018-05-29T16:54:38.000Z</time>
</trkpt>
<trkpt lat="31.7797385" lon="35.0742910">
<ele>592.679993</ele>
<time>2018-05-29T16:54:40.000Z</time>
</trkpt>
<trkpt lat="31.7797753" lon="35.0744401">
<ele>592.100037</ele>
<time>2018-05-29T16:54:42.000Z</time>
</trkpt>
<trkpt lat="31.7797972" lon="35.0746106">
<ele>590.929993</ele>
<time>2018-05-29T16:54:44.000Z</time>
</trkpt>
<trkpt lat="31.7798018" lon="35.0747908">
<ele>589.770020</ele>
<time>2018-05-29T16:54:46.000Z</time>
</trkpt>
<trkpt lat="31.7797805" lon="35.0749763">
<ele>588.419983</ele>
<time>2018-05-29T16:54:48.000Z</time>
</trkpt>
<trkpt lat="31.7797461" lon="35.0751641">
<ele>588.160034</ele>
<time>2018-05-29T16:54:50.000Z</time>
</trkpt>
<trkpt lat="31.7797171" lon="35.0753288">
<ele>588.820007</ele>
<time>2018-05-29T16:54:52.000Z</time>
</trkpt>
<trkpt lat="31.7796844" lon="35.0754604">
<ele>589.530029</ele>
<time>2018-05-29T16:54:54.000Z</time>
</trkpt>
<trkpt lat="31.7796460" lon="35.0755854">
<ele>589.200012</ele>
<time>2018-05-29T16:54:56.000Z</time>
</trkpt>
<trkpt lat="31.7795966" lon="35.0757168">
<ele>588.109985</ele>
<time>2018-05-29T16:54:58.000Z</time>
</trkpt>
<trkpt lat="31.7795251" lon="35.0758452">
<ele>587.429993</ele>
<time>2018-05-29T16:55:00.000Z</time>
</trkpt>
<trkpt lat="31.7794388" lon="35.0759623">
<ele>586.840027</ele>
<time>2018-05-29T16:55:02.000Z</time>
</trkpt>
<trkpt lat="31.7793405" lon="35.0760657">
<ele>586.729980</ele>
<time>2018-05-29T16:55:04.000Z</time>
</trkpt>
<trkpt lat="31.7792354" lon="35.0761563">
<ele>586.109985</ele>
<time>2018-05-29T16:55:06.000Z</time>
</trkpt>
<trkpt lat="31.7791372" lon="35.0762371">
<ele>585.929993</ele>
<time>2018-05-29T16:55:08.000Z</time>
</trkpt>
<trkpt lat="31.7790468" lon="35.0763091">
<ele>585.390015</ele>
<time>2018-05-29T16:55:10.000Z</time>
</trkpt>
<trkpt lat="31.7789602" lon="35.0763849">
<ele>585.070007</ele>
<time>2018-05-29T16:55:12.000Z</time>
</trkpt>
<trkpt lat="31.7788868" lon="35.0764790">
<ele>583.630005</ele>
<time>2018-05-29T16:55:14.000Z</time>
</trkpt>
<trkpt lat="31.7788556" lon="35.0765971">
<ele>583.119995</ele>
<time>2018-05-29T16:55:16.000Z</time>
</trkpt>
<trkpt lat="31.7788680" lon="35.0767215">
<ele>584.090027</ele>
<time>2018-05-29T16:55:18.000Z</time>
</trkpt>
<trkpt lat="31.7789028" lon="35.0768393">
<ele>583.789978</ele>
<time>2018-05-29T16:55:20.000Z</time>
</trkpt>
<trkpt lat="31.7789500" lon="35.0769571">
<ele>583.520020</ele>
<time>2018-05-29T16:55:22.000Z</time>
</trkpt>
<trkpt lat="31.7790024" lon="35.0770797">
<ele>582.440002</ele>
<time>2018-05-29T16:55:24.000Z</time>
</trkpt>
<trkpt lat="31.7790505" lon="35.0771950">
<ele>581.739990</ele>
<time>2018-05-29T16:55:26.000Z</time>
</trkpt>
<trkpt lat="31.7790867" lon="35.0773100">
<ele>581.100037</ele>
<time>2018-05-29T16:55:28.000Z</time>
</trkpt>
<trkpt lat="31.7791221" lon="35.0774340">
<ele>581.489990</ele>
<time>2018-05-29T16:55:30.000Z</time>
</trkpt>
<trkpt lat="31.7791479" lon="35.0775614">
<ele>580.460022</ele>
<time>2018-05-29T16:55:32.000Z</time>
</trkpt>
<trkpt lat="31.7791554" lon="35.0776943">
<ele>580.460022</ele>
<time>2018-05-29T16:55:34.000Z</time>
</trkpt>
<trkpt lat="31.7791612" lon="35.0778225">
<ele>580.260010</ele>
<time>2018-05-29T16:55:36.000Z</time>
</trkpt>
<trkpt lat="31.7791610" lon="35.0779555">
<ele>579.659973</ele>
<time>2018-05-29T16:55:38.000Z</time>
</trkpt>
<trkpt lat="31.7791479" lon="35.0780900">
<ele>579.580017</ele>
<time>2018-05-29T16:55:40.000Z</time>
</trkpt>
<trkpt lat="31.7791271" lon="35.0782183">
<ele>579.369995</ele>
<time>2018-05-29T16:55:42.000Z</time>
</trkpt>
<trkpt lat="31.7791056" lon="35.0783328">
<ele>579.340027</ele>
<time>2018-05-29T16:55:44.000Z</time>
</trkpt>
<trkpt lat="31.7790834" lon="35.0784389">
<ele>579.229980</ele>
<time>2018-05-29T16:55:46.000Z</time>
</trkpt>
<trkpt lat="31.7790951" lon="35.0785713">
<ele>578.520020</ele>
<time>2018-05-29T16:55:49.000Z</time>
</trkpt>
<trkpt lat="31.7791839" lon="35.0786353">
<ele>578.229980</ele>
<time>2018-05-29T16:55:52.000Z</time>
</trkpt>
<trkpt lat="31.7793023" lon="35.0786088">
<ele>579.289978</ele>
<time>2018-05-29T16:55:55.000Z</time>
</trkpt>
<trkpt lat="31.7794037" lon="35.0785536">
<ele>579.679993</ele>
<time>2018-05-29T16:55:58.000Z</time>
</trkpt>
<trkpt lat="31.7795048" lon="35.0784933">
<ele>580.040039</ele>
<time>2018-05-29T16:56:01.000Z</time>
</trkpt>
<trkpt lat="31.7796102" lon="35.0784312">
<ele>579.839966</ele>
<time>2018-05-29T16:56:04.000Z</time>
</trkpt>
<trkpt lat="31.7797138" lon="35.0783682">
<ele>580.080017</ele>
<time>2018-05-29T16:56:07.000Z</time>
</trkpt>
<trkpt lat="31.7798103" lon="35.0783054">
<ele>580.410034</ele>
<time>2018-05-29T16:56:10.000Z</time>
</trkpt>
<trkpt lat="31.7799106" lon="35.0782386">
<ele>580.489990</ele>
<time>2018-05-29T16:56:13.000Z</time>
</trkpt>
<trkpt lat="31.7800133" lon="35.0781716">
<ele>581.020020</ele>
<time>2018-05-29T16:56:16.000Z</time>
</trkpt>
<trkpt lat="31.7801167" lon="35.0781109">
<ele>580.760010</ele>
<time>2018-05-29T16:56:19.000Z</time>
</trkpt>
<trkpt lat="31.7802248" lon="35.0780502">
<ele>580.869995</ele>
<time>2018-05-29T16:56:22.000Z</time>
</trkpt>
<trkpt lat="31.7803400" lon="35.0779975">
<ele>580.229980</ele>
<time>2018-05-29T16:56:25.000Z</time>
</trkpt>
<trkpt lat="31.7804679" lon="35.0779638">
<ele>580.270020</ele>
<time>2018-05-29T16:56:28.000Z</time>
</trkpt>
<trkpt lat="31.7805998" lon="35.0779390">
<ele>579.940002</ele>
<time>2018-05-29T16:56:31.000Z</time>
</trkpt>
<trkpt lat="31.7807296" lon="35.0779167">
<ele>579.700012</ele>
<time>2018-05-29T16:56:34.000Z</time>
</trkpt>
<trkpt lat="31.7808277" lon="35.0779024">
<ele>578.580017</ele>
<time>2018-05-29T16:56:36.000Z</time>
</trkpt>
<trkpt lat="31.7809313" lon="35.0778878">
<ele>578.179993</ele>
<time>2018-05-29T16:56:38.000Z</time>
</trkpt>
<trkpt lat="31.7810238" lon="35.0778734">
<ele>577.510010</ele>
<time>2018-05-29T16:56:40.000Z</time>
</trkpt>
<trkpt lat="31.7811225" lon="35.0778655">
<ele>577.340027</ele>
<time>2018-05-29T16:56:42.000Z</time>
</trkpt>
<trkpt lat="31.7812344" lon="35.0778779">
<ele>576.690002</ele>
<time>2018-05-29T16:56:44.000Z</time>
</trkpt>
<trkpt lat="31.7813533" lon="35.0779064">
<ele>576.059998</ele>
<time>2018-05-29T16:56:46.000Z</time>
</trkpt>
<trkpt lat="31.7814810" lon="35.0779544">
<ele>574.830017</ele>
<time>2018-05-29T16:56:48.000Z</time>
</trkpt>
<trkpt lat="31.7816244" lon="35.0780267">
<ele>573.700012</ele>
<time>2018-05-29T16:56:50.000Z</time>
</trkpt>
<trkpt lat="31.7817452" lon="35.0781180">
<ele>573.669983</ele>
<time>2018-05-29T16:56:52.000Z</time>
</trkpt>
<trkpt lat="31.7818368" lon="35.0782129">
<ele>573.450012</ele>
<time>2018-05-29T16:56:54.000Z</time>
</trkpt>
<trkpt lat="31.7819151" lon="35.0783097">
<ele>573.630005</ele>
<time>2018-05-29T16:56:56.000Z</time>
</trkpt>
<trkpt lat="31.7819793" lon="35.0784046">
<ele>573.159973</ele>
<time>2018-05-29T16:56:58.000Z</time>
</trkpt>
<trkpt lat="31.7820379" lon="35.0785030">
<ele>574.020020</ele>
<time>2018-05-29T16:57:00.000Z</time>
</trkpt>
<trkpt lat="31.7820943" lon="35.0786007">
<ele>573.239990</ele>
<time>2018-05-29T16:57:02.000Z</time>
</trkpt>
<trkpt lat="31.7821544" lon="35.0787039">
<ele>573.239990</ele>
<time>2018-05-29T16:57:04.000Z</time>
</trkpt>
<trkpt lat="31.7822140" lon="35.0788138">
<ele>572.960022</ele>
<time>2018-05-29T16:57:06.000Z</time>
</trkpt>
<trkpt lat="31.7822800" lon="35.0789274">
<ele>572.119995</ele>
<time>2018-05-29T16:57:08.000Z</time>
</trkpt>
<trkpt lat="31.7823555" lon="35.0790406">
<ele>571.220032</ele>
<time>2018-05-29T16:57:10.000Z</time>
</trkpt>
<trkpt lat="31.7824418" lon="35.0791511">
<ele>570.330017</ele>
<time>2018-05-29T16:57:12.000Z</time>
</trkpt>
<trkpt lat="31.7825441" lon="35.0792569">
<ele>569.339966</ele>
<time>2018-05-29T16:57:14.000Z</time>
</trkpt>
<trkpt lat="31.7826734" lon="35.0793428">
<ele>567.979980</ele>
<time>2018-05-29T16:57:16.000Z</time>
</trkpt>
<trkpt lat="31.7828049" lon="35.0794097">
<ele>566.830017</ele>
<time>2018-05-29T16:57:18.000Z</time>
</trkpt>
<trkpt lat="31.7829474" lon="35.0794653">
<ele>565.619995</ele>
<time>2018-05-29T16:57:20.000Z</time>
</trkpt>
<trkpt lat="31.7830806" lon="35.0795288">
<ele>564.520020</ele>
<time>2018-05-29T16:57:22.000Z</time>
</trkpt>
<trkpt lat="31.7832096" lon="35.0796098">
<ele>564.010010</ele>
<time>2018-05-29T16:57:24.000Z</time>
</trkpt>
<trkpt lat="31.7833251" lon="35.0796997">
<ele>563.250000</ele>
<time>2018-05-29T16:57:26.000Z</time>
</trkpt>
<trkpt lat="31.7834203" lon="35.0798044">
<ele>562.539978</ele>
<time>2018-05-29T16:57:28.000Z</time>
</trkpt>
<trkpt lat="31.7834841" lon="35.0799278">
<ele>562.299988</ele>
<time>2018-05-29T16:57:30.000Z</time>
</trkpt>
<trkpt lat="31.7835201" lon="35.0800695">
<ele>562.070007</ele>
<time>2018-05-29T16:57:32.000Z</time>
</trkpt>
<trkpt lat="31.7835362" lon="35.0802179">
<ele>562.570007</ele>
<time>2018-05-29T16:57:34.000Z</time>
</trkpt>
<trkpt lat="31.7835478" lon="35.0803615">
<ele>562.559998</ele>
<time>2018-05-29T16:57:36.000Z</time>
</trkpt>
<trkpt lat="31.7835468" lon="35.0804896">
<ele>562.630005</ele>
<time>2018-05-29T16:57:38.000Z</time>
</trkpt>
<trkpt lat="31.7835353" lon="35.0806073">
<ele>562.950012</ele>
<time>2018-05-29T16:57:40.000Z</time>
</trkpt>
<trkpt lat="31.7835205" lon="35.0807234">
<ele>563.080017</ele>
<time>2018-05-29T16:57:42.000Z</time>
</trkpt>
<trkpt lat="31.7835028" lon="35.0808351">
<ele>562.809998</ele>
<time>2018-05-29T16:57:44.000Z</time>
</trkpt>
<trkpt lat="31.7834876" lon="35.0809435">
<ele>563.280029</ele>
<time>2018-05-29T16:57:46.000Z</time>
</trkpt>
<trkpt lat="31.7834805" lon="35.0810554">
<ele>563.000000</ele>
<time>2018-05-29T16:57:48.000Z</time>
</trkpt>
<trkpt lat="31.7834605" lon="35.0811719">
<ele>562.669983</ele>
<time>2018-05-29T16:57:50.000Z</time>
</trkpt>
<trkpt lat="31.7834287" lon="35.0812888">
<ele>562.100037</ele>
<time>2018-05-29T16:57:52.000Z</time>
</trkpt>
<trkpt lat="31.7833916" lon="35.0814128">
<ele>562.270020</ele>
<time>2018-05-29T16:57:54.000Z</time>
</trkpt>
<trkpt lat="31.7833461" lon="35.0815505">
<ele>561.039978</ele>
<time>2018-05-29T16:57:56.000Z</time>
</trkpt>
<trkpt lat="31.7832928" lon="35.0816998">
<ele>560.750000</ele>
<time>2018-05-29T16:57:58.000Z</time>
</trkpt>
<trkpt lat="31.7832420" lon="35.0818415">
<ele>560.669983</ele>
<time>2018-05-29T16:58:00.000Z</time>
</trkpt>
<trkpt lat="31.7832010" lon="35.0819597">
<ele>561.469971</ele>
<time>2018-05-29T16:58:02.000Z</time>
</trkpt>
<trkpt lat="31.7831723" lon="35.0820637">
<ele>561.089966</ele>
<time>2018-05-29T16:58:04.000Z</time>
</trkpt>
<trkpt lat="31.7831444" lon="35.0821695">
<ele>561.369995</ele>
<time>2018-05-29T16:58:06.000Z</time>
</trkpt>
<trkpt lat="31.7831121" lon="35.0822742">
<ele>561.880005</ele>
<time>2018-05-29T16:58:08.000Z</time>
</trkpt>
<trkpt lat="31.7830770" lon="35.0823788">
<ele>562.100037</ele>
<time>2018-05-29T16:58:10.000Z</time>
</trkpt>
<trkpt lat="31.7830420" lon="35.0824796">
<ele>562.869995</ele>
<time>2018-05-29T16:58:12.000Z</time>
</trkpt>
<trkpt lat="31.7830051" lon="35.0825786">
<ele>562.799988</ele>
<time>2018-05-29T16:58:14.000Z</time>
</trkpt>
<trkpt lat="31.7829517" lon="35.0827309">
<ele>562.460022</ele>
<time>2018-05-29T16:58:17.000Z</time>
</trkpt>
<trkpt lat="31.7829133" lon="35.0828401">
<ele>562.409973</ele>
<time>2018-05-29T16:58:19.000Z</time>
</trkpt>
<trkpt lat="31.7828725" lon="35.0829539">
<ele>562.839966</ele>
<time>2018-05-29T16:58:21.000Z</time>
</trkpt>
<trkpt lat="31.7828333" lon="35.0830677">
<ele>562.369995</ele>
<time>2018-05-29T16:58:23.000Z</time>
</trkpt>
<trkpt lat="31.7827931" lon="35.0831838">
<ele>562.679993</ele>
<time>2018-05-29T16:58:25.000Z</time>
</trkpt>
<trkpt lat="31.7827501" lon="35.0833012">
<ele>562.500000</ele>
<time>2018-05-29T16:58:27.000Z</time>
</trkpt>
<trkpt lat="31.7827107" lon="35.0834205">
<ele>562.839966</ele>
<time>2018-05-29T16:58:29.000Z</time>
</trkpt>
<trkpt lat="31.7826686" lon="35.0835385">
<ele>562.940002</ele>
<time>2018-05-29T16:58:31.000Z</time>
</trkpt>
<trkpt lat="31.7826284" lon="35.0836577">
<ele>563.219971</ele>
<time>2018-05-29T16:58:33.000Z</time>
</trkpt>
<trkpt lat="31.7825885" lon="35.0837691">
<ele>563.369995</ele>
<time>2018-05-29T16:58:35.000Z</time>
</trkpt>
<trkpt lat="31.7825493" lon="35.0838758">
<ele>563.659973</ele>
<time>2018-05-29T16:58:37.000Z</time>
</trkpt>
<trkpt lat="31.7825004" lon="35.0840148">
<ele>564.369995</ele>
<time>2018-05-29T16:58:40.000Z</time>
</trkpt>
<trkpt lat="31.7824493" lon="35.0841494">
<ele>564.450012</ele>
<time>2018-05-29T16:58:43.000Z</time>
</trkpt>
<trkpt lat="31.7824098" lon="35.0842656">
<ele>565.270020</ele>
<time>2018-05-29T16:58:46.000Z</time>
</trkpt>
<trkpt lat="31.7823782" lon="35.0843782">
<ele>566.290039</ele>
<time>2018-05-29T16:58:49.000Z</time>
</trkpt>
<trkpt lat="31.7823454" lon="35.0844867">
<ele>566.760010</ele>
<time>2018-05-29T16:58:52.000Z</time>
</trkpt>
<trkpt lat="31.7823120" lon="35.0845874">
<ele>566.960022</ele>
<time>2018-05-29T16:58:55.000Z</time>
</trkpt>
<trkpt lat="31.7822724" lon="35.0847148">
<ele>567.479980</ele>
<time>2018-05-29T16:58:59.000Z</time>
</trkpt>
<trkpt lat="31.7822557" lon="35.0848498">
<ele>567.900024</ele>
<time>2018-05-29T16:59:03.000Z</time>
</trkpt>
<trkpt lat="31.7822725" lon="35.0849928">
<ele>567.619995</ele>
<time>2018-05-29T16:59:07.000Z</time>
</trkpt>
<trkpt lat="31.7823087" lon="35.0850942">
<ele>568.590027</ele>
<time>2018-05-29T16:59:11.000Z</time>
</trkpt>
<trkpt lat="31.7823388" lon="35.0851861">
<ele>568.330017</ele>
<time>2018-05-29T16:59:43.000Z</time>
</trkpt>
<trkpt lat="31.7824432" lon="35.0851372">
<ele>567.880005</ele>
<time>2018-05-29T17:00:01.000Z</time>
</trkpt>
<trkpt lat="31.7825041" lon="35.0849992">
<ele>567.570007</ele>
<time>2018-05-29T17:00:04.000Z</time>
</trkpt>
<trkpt lat="31.7825305" lon="35.0848746">
<ele>567.039978</ele>
<time>2018-05-29T17:00:06.000Z</time>
</trkpt>
<trkpt lat="31.7825548" lon="35.0847329">
<ele>566.510010</ele>
<time>2018-05-29T17:00:08.000Z</time>
</trkpt>
<trkpt lat="31.7825863" lon="35.0845793">
<ele>566.099976</ele>
<time>2018-05-29T17:00:10.000Z</time>
</trkpt>
<trkpt lat="31.7826245" lon="35.0844065">
<ele>565.510010</ele>
<time>2018-05-29T17:00:12.000Z</time>
</trkpt>
<trkpt lat="31.7826744" lon="35.0842298">
<ele>564.739990</ele>
<time>2018-05-29T17:00:14.000Z</time>
</trkpt>
<trkpt lat="31.7827375" lon="35.0840538">
<ele>564.130005</ele>
<time>2018-05-29T17:00:16.000Z</time>
</trkpt>
<trkpt lat="31.7828114" lon="35.0838676">
<ele>563.739990</ele>
<time>2018-05-29T17:00:18.000Z</time>
</trkpt>
<trkpt lat="31.7828493" lon="35.0837734">
<ele>563.409973</ele>
<time>2018-05-29T17:00:19.000Z</time>
</trkpt>
<trkpt lat="31.7829315" lon="35.0835817">
<ele>562.700012</ele>
<time>2018-05-29T17:00:21.000Z</time>
</trkpt>
<trkpt lat="31.7830253" lon="35.0833864">
<ele>562.500000</ele>
<time>2018-05-29T17:00:23.000Z</time>
</trkpt>
<trkpt lat="31.7830733" lon="35.0832891">
<ele>561.700012</ele>
<time>2018-05-29T17:00:24.000Z</time>
</trkpt>
<trkpt lat="31.7831210" lon="35.0831944">
<ele>562.589966</ele>
<time>2018-05-29T17:00:25.000Z</time>
</trkpt>
<trkpt lat="31.7832193" lon="35.0830145">
<ele>562.709961</ele>
<time>2018-05-29T17:00:27.000Z</time>
</trkpt>
<trkpt lat="31.7833227" lon="35.0828515">
<ele>562.500000</ele>
<time>2018-05-29T17:00:29.000Z</time>
</trkpt>
<trkpt lat="31.7834173" lon="35.0826959">
<ele>562.830017</ele>
<time>2018-05-29T17:00:31.000Z</time>
</trkpt>
<trkpt lat="31.7835114" lon="35.0825480">
<ele>563.619995</ele>
<time>2018-05-29T17:00:33.000Z</time>
</trkpt>
<trkpt lat="31.7836076" lon="35.0824072">
<ele>563.080017</ele>
<time>2018-05-29T17:00:35.000Z</time>
</trkpt>
<trkpt lat="31.7836994" lon="35.0822727">
<ele>563.549988</ele>
<time>2018-05-29T17:00:37.000Z</time>
</trkpt>
<trkpt lat="31.7837737" lon="35.0821400">
<ele>563.919983</ele>
<time>2018-05-29T17:00:39.000Z</time>
</trkpt>
<trkpt lat="31.7838418" lon="35.0820117">
<ele>564.119995</ele>
<time>2018-05-29T17:00:41.000Z</time>
</trkpt>
<trkpt lat="31.7839124" lon="35.0818960">
<ele>564.510010</ele>
<time>2018-05-29T17:00:43.000Z</time>
</trkpt>
<trkpt lat="31.7839835" lon="35.0817983">
<ele>565.220032</ele>
<time>2018-05-29T17:00:45.000Z</time>
</trkpt>
<trkpt lat="31.7840452" lon="35.0817073">
<ele>565.470032</ele>
<time>2018-05-29T17:00:47.000Z</time>
</trkpt>
<trkpt lat="31.7841037" lon="35.0816255">
<ele>565.750000</ele>
<time>2018-05-29T17:00:49.000Z</time>
</trkpt>
<trkpt lat="31.7841682" lon="35.0815353">
<ele>565.959961</ele>
<time>2018-05-29T17:00:51.000Z</time>
</trkpt>
<trkpt lat="31.7842285" lon="35.0814439">
<ele>566.460022</ele>
<time>2018-05-29T17:00:53.000Z</time>
</trkpt>
<trkpt lat="31.7842894" lon="35.0813462">
<ele>566.150024</ele>
<time>2018-05-29T17:00:55.000Z</time>
</trkpt>
<trkpt lat="31.7843469" lon="35.0812469">
<ele>566.529968</ele>
<time>2018-05-29T17:00:57.000Z</time>
</trkpt>
<trkpt lat="31.7844025" lon="35.0811478">
<ele>566.649963</ele>
<time>2018-05-29T17:00:59.000Z</time>
</trkpt>
<trkpt lat="31.7844566" lon="35.0810446">
<ele>566.890015</ele>
<time>2018-05-29T17:01:01.000Z</time>
</trkpt>
<trkpt lat="31.7845111" lon="35.0809385">
<ele>566.989990</ele>
<time>2018-05-29T17:01:03.000Z</time>
</trkpt>
<trkpt lat="31.7845647" lon="35.0808282">
<ele>567.299988</ele>
<time>2018-05-29T17:01:05.000Z</time>
</trkpt>
<trkpt lat="31.7846027" lon="35.0807275">
<ele>567.520020</ele>
<time>2018-05-29T17:01:07.000Z</time>
</trkpt>
<trkpt lat="31.7846456" lon="35.0806247">
<ele>568.159973</ele>
<time>2018-05-29T17:01:10.000Z</time>
</trkpt>
<trkpt lat="31.7846945" lon="35.0805243">
<ele>569.109985</ele>
<time>2018-05-29T17:01:16.000Z</time>
</trkpt>
<trkpt lat="31.7847345" lon="35.0804242">
<ele>570.039978</ele>
<time>2018-05-29T17:01:20.000Z</time>
</trkpt>
<trkpt lat="31.7847801" lon="35.0803312">
<ele>571.390015</ele>
<time>2018-05-29T17:01:25.000Z</time>
</trkpt>
<trkpt lat="31.7848220" lon="35.0802373">
<ele>572.500000</ele>
<time>2018-05-29T17:01:30.000Z</time>
</trkpt>
<trkpt lat="31.7848765" lon="35.0801449">
<ele>573.070007</ele>
<time>2018-05-29T17:01:35.000Z</time>
</trkpt>
<trkpt lat="31.7849361" lon="35.0800416">
<ele>573.500000</ele>
<time>2018-05-29T17:01:42.000Z</time>
</trkpt>
<trkpt lat="31.7849881" lon="35.0799427">
<ele>573.989990</ele>
<time>2018-05-29T17:01:47.000Z</time>
</trkpt>
<trkpt lat="31.7850354" lon="35.0798445">
<ele>575.049988</ele>
<time>2018-05-29T17:01:52.000Z</time>
</trkpt>
<trkpt lat="31.7850769" lon="35.0797450">
<ele>575.419983</ele>
<time>2018-05-29T17:01:57.000Z</time>
</trkpt>
<trkpt lat="31.7851247" lon="35.0796469">
<ele>576.429993</ele>
<time>2018-05-29T17:02:02.000Z</time>
</trkpt>
<trkpt lat="31.7851724" lon="35.0795323">
<ele>577.160034</ele>
<time>2018-05-29T17:02:08.000Z</time>
</trkpt>
<trkpt lat="31.7852220" lon="35.0794366">
<ele>577.260010</ele>
<time>2018-05-29T17:02:13.000Z</time>
</trkpt>
<trkpt lat="31.7852613" lon="35.0793334">
<ele>578.209961</ele>
<time>2018-05-29T17:02:18.000Z</time>
</trkpt>
<trkpt lat="31.7853137" lon="35.0792371">
<ele>579.140015</ele>
<time>2018-05-29T17:02:25.000Z</time>
</trkpt>
<trkpt lat="31.7853550" lon="35.0791208">
<ele>579.600037</ele>
<time>2018-05-29T17:02:30.000Z</time>
</trkpt>
<trkpt lat="31.7853988" lon="35.0790231">
<ele>580.410034</ele>
<time>2018-05-29T17:02:35.000Z</time>
</trkpt>
<trkpt lat="31.7854432" lon="35.0789229">
<ele>580.970032</ele>
<time>2018-05-29T17:02:40.000Z</time>
</trkpt>
<trkpt lat="31.7854955" lon="35.0788188">
<ele>581.440002</ele>
<time>2018-05-29T17:02:45.000Z</time>
</trkpt>
<trkpt lat="31.7855485" lon="35.0787231">
<ele>581.599976</ele>
<time>2018-05-29T17:02:50.000Z</time>
</trkpt>
<trkpt lat="31.7856044" lon="35.0786221">
<ele>582.320007</ele>
<time>2018-05-29T17:02:55.000Z</time>
</trkpt>
<trkpt lat="31.7856748" lon="35.0785399">
<ele>582.000000</ele>
<time>2018-05-29T17:03:00.000Z</time>
</trkpt>
<trkpt lat="31.7857777" lon="35.0785246">
<ele>581.080017</ele>
<time>2018-05-29T17:03:05.000Z</time>
</trkpt>
<trkpt lat="31.7858545" lon="35.0786021">
<ele>580.510010</ele>
<time>2018-05-29T17:03:37.000Z</time>
</trkpt>
<trkpt lat="31.7859171" lon="35.0786989">
<ele>579.799988</ele>
<time>2018-05-29T17:03:40.000Z</time>
</trkpt>
<trkpt lat="31.7859932" lon="35.0788335">
<ele>579.690002</ele>
<time>2018-05-29T17:03:43.000Z</time>
</trkpt>
<trkpt lat="31.7860510" lon="35.0789330">
<ele>578.729980</ele>
<time>2018-05-29T17:03:45.000Z</time>
</trkpt>
<trkpt lat="31.7861127" lon="35.0790383">
<ele>578.840027</ele>
<time>2018-05-29T17:03:47.000Z</time>
</trkpt>
<trkpt lat="31.7861778" lon="35.0791403">
<ele>578.329956</ele>
<time>2018-05-29T17:03:49.000Z</time>
</trkpt>
<trkpt lat="31.7862430" lon="35.0792450">
<ele>577.940002</ele>
<time>2018-05-29T17:03:51.000Z</time>
</trkpt>
<trkpt lat="31.7863069" lon="35.0793569">
<ele>577.940002</ele>
<time>2018-05-29T17:03:53.000Z</time>
</trkpt>
<trkpt lat="31.7863761" lon="35.0794713">
<ele>577.760010</ele>
<time>2018-05-29T17:03:55.000Z</time>
</trkpt>
<trkpt lat="31.7864475" lon="35.0795785">
<ele>578.209961</ele>
<time>2018-05-29T17:03:57.000Z</time>
</trkpt>
<trkpt lat="31.7865007" lon="35.0796857">
<ele>578.459961</ele>
<time>2018-05-29T17:03:59.000Z</time>
</trkpt>
<trkpt lat="31.7865551" lon="35.0797821">
<ele>578.900024</ele>
<time>2018-05-29T17:04:01.000Z</time>
</trkpt>
<trkpt lat="31.7866119" lon="35.0798677">
<ele>580.239990</ele>
<time>2018-05-29T17:04:03.000Z</time>
</trkpt>
<trkpt lat="31.7866891" lon="35.0799801">
<ele>580.720032</ele>
<time>2018-05-29T17:04:06.000Z</time>
</trkpt>
<trkpt lat="31.7867560" lon="35.0800591">
<ele>582.220032</ele>
<time>2018-05-29T17:04:09.000Z</time>
</trkpt>
<trkpt lat="31.7868372" lon="35.0801481">
<ele>582.669983</ele>
<time>2018-05-29T17:04:13.000Z</time>
</trkpt>
<trkpt lat="31.7869162" lon="35.0802336">
<ele>582.880005</ele>
<time>2018-05-29T17:04:18.000Z</time>
</trkpt>
<trkpt lat="31.7869948" lon="35.0803129">
<ele>583.840027</ele>
<time>2018-05-29T17:04:22.000Z</time>
</trkpt>
<trkpt lat="31.7870864" lon="35.0803919">
<ele>583.909973</ele>
<time>2018-05-29T17:04:26.000Z</time>
</trkpt>
<trkpt lat="31.7871704" lon="35.0804587">
<ele>584.109985</ele>
<time>2018-05-29T17:04:29.000Z</time>
</trkpt>
<trkpt lat="31.7872644" lon="35.0805301">
<ele>584.010010</ele>
<time>2018-05-29T17:04:32.000Z</time>
</trkpt>
<trkpt lat="31.7873595" lon="35.0806146">
<ele>584.650024</ele>
<time>2018-05-29T17:04:35.000Z</time>
</trkpt>
<trkpt lat="31.7874609" lon="35.0806997">
<ele>584.070007</ele>
<time>2018-05-29T17:04:38.000Z</time>
</trkpt>
<trkpt lat="31.7875484" lon="35.0807766">
<ele>584.309998</ele>
<time>2018-05-29T17:04:41.000Z</time>
</trkpt>
<trkpt lat="31.7876396" lon="35.0808654">
<ele>584.210022</ele>
<time>2018-05-29T17:04:45.000Z</time>
</trkpt>
<trkpt lat="31.7877398" lon="35.0809515">
<ele>584.279968</ele>
<time>2018-05-29T17:04:49.000Z</time>
</trkpt>
<trkpt lat="31.7878348" lon="35.0810365">
<ele>584.589966</ele>
<time>2018-05-29T17:04:53.000Z</time>
</trkpt>
<trkpt lat="31.7879168" lon="35.0811046">
<ele>584.479980</ele>
<time>2018-05-29T17:04:57.000Z</time>
</trkpt>
<trkpt lat="31.7879996" lon="35.0811619">
<ele>584.380005</ele>
<time>2018-05-29T17:05:01.000Z</time>
</trkpt>
<trkpt lat="31.7880903" lon="35.0812144">
<ele>583.890015</ele>
<time>2018-05-29T17:05:05.000Z</time>
</trkpt>
<trkpt lat="31.7881934" lon="35.0812691">
<ele>583.970032</ele>
<time>2018-05-29T17:05:09.000Z</time>
</trkpt>
<trkpt lat="31.7882917" lon="35.0813180">
<ele>584.169983</ele>
<time>2018-05-29T17:05:12.000Z</time>
</trkpt>
<trkpt lat="31.7884052" lon="35.0813779">
<ele>583.970032</ele>
<time>2018-05-29T17:05:15.000Z</time>
</trkpt>
<trkpt lat="31.7885270" lon="35.0814439">
<ele>583.469971</ele>
<time>2018-05-29T17:05:18.000Z</time>
</trkpt>
<trkpt lat="31.7886340" lon="35.0815045">
<ele>583.540039</ele>
<time>2018-05-29T17:05:21.000Z</time>
</trkpt>
<trkpt lat="31.7887194" lon="35.0815466">
<ele>584.239990</ele>
<time>2018-05-29T17:05:24.000Z</time>
</trkpt>
<trkpt lat="31.7888169" lon="35.0815895">
<ele>583.200012</ele>
<time>2018-05-29T17:05:28.000Z</time>
</trkpt>
<trkpt lat="31.7889069" lon="35.0816169">
<ele>583.070007</ele>
<time>2018-05-29T17:05:32.000Z</time>
</trkpt>
<trkpt lat="31.7889952" lon="35.0816535">
<ele>582.470032</ele>
<time>2018-05-29T17:05:36.000Z</time>
</trkpt>
<trkpt lat="31.7890801" lon="35.0816804">
<ele>582.770020</ele>
<time>2018-05-29T17:12:15.000Z</time>
</trkpt>
<trkpt lat="31.7891988" lon="35.0816765">
<ele>582.000000</ele>
<time>2018-05-29T17:12:20.000Z</time>
</trkpt>
<trkpt lat="31.7893133" lon="35.0816563">
<ele>581.609985</ele>
<time>2018-05-29T17:12:24.000Z</time>
</trkpt>
<trkpt lat="31.7894095" lon="35.0816392">
<ele>580.619995</ele>
<time>2018-05-29T17:12:27.000Z</time>
</trkpt>
<trkpt lat="31.7895274" lon="35.0816259">
<ele>580.750000</ele>
<time>2018-05-29T17:12:30.000Z</time>
</trkpt>
<trkpt lat="31.7896466" lon="35.0816107">
<ele>580.460022</ele>
<time>2018-05-29T17:12:33.000Z</time>
</trkpt>
<trkpt lat="31.7897712" lon="35.0816140">
<ele>580.140015</ele>
<time>2018-05-29T17:12:36.000Z</time>
</trkpt>
<trkpt lat="31.7898923" lon="35.0816559">
<ele>580.080017</ele>
<time>2018-05-29T17:12:39.000Z</time>
</trkpt>
<trkpt lat="31.7899763" lon="35.0817055">
<ele>579.190002</ele>
<time>2018-05-29T17:12:41.000Z</time>
</trkpt>
<trkpt lat="31.7900633" lon="35.0817667">
<ele>578.489990</ele>
<time>2018-05-29T17:12:43.000Z</time>
</trkpt>
<trkpt lat="31.7901538" lon="35.0818366">
<ele>578.410034</ele>
<time>2018-05-29T17:12:45.000Z</time>
</trkpt>
<trkpt lat="31.7902524" lon="35.0819072">
<ele>577.960022</ele>
<time>2018-05-29T17:12:47.000Z</time>
</trkpt>
<trkpt lat="31.7903557" lon="35.0819778">
<ele>577.200012</ele>
<time>2018-05-29T17:12:49.000Z</time>
</trkpt>
<trkpt lat="31.7904601" lon="35.0820485">
<ele>577.280029</ele>
<time>2018-05-29T17:12:51.000Z</time>
</trkpt>
<trkpt lat="31.7905614" lon="35.0821257">
<ele>577.099976</ele>
<time>2018-05-29T17:12:53.000Z</time>
</trkpt>
<trkpt lat="31.7906697" lon="35.0822007">
<ele>576.039978</ele>
<time>2018-05-29T17:12:55.000Z</time>
</trkpt>
<trkpt lat="31.7907726" lon="35.0822752">
<ele>576.279968</ele>
<time>2018-05-29T17:12:57.000Z</time>
</trkpt>
<trkpt lat="31.7908715" lon="35.0823560">
<ele>575.479980</ele>
<time>2018-05-29T17:12:59.000Z</time>
</trkpt>
<trkpt lat="31.7909567" lon="35.0824513">
<ele>574.929993</ele>
<time>2018-05-29T17:13:01.000Z</time>
</trkpt>
<trkpt lat="31.7910367" lon="35.0825566">
<ele>574.809998</ele>
<time>2018-05-29T17:13:03.000Z</time>
</trkpt>
<trkpt lat="31.7911190" lon="35.0826649">
<ele>573.979980</ele>
<time>2018-05-29T17:13:05.000Z</time>
</trkpt>
<trkpt lat="31.7912008" lon="35.0827758">
<ele>572.769958</ele>
<time>2018-05-29T17:13:07.000Z</time>
</trkpt>
<trkpt lat="31.7912953" lon="35.0828690">
<ele>571.809998</ele>
<time>2018-05-29T17:13:09.000Z</time>
</trkpt>
<trkpt lat="31.7913921" lon="35.0829550">
<ele>570.450012</ele>
<time>2018-05-29T17:13:11.000Z</time>
</trkpt>
<trkpt lat="31.7914843" lon="35.0830435">
<ele>569.779968</ele>
<time>2018-05-29T17:13:13.000Z</time>
</trkpt>
<trkpt lat="31.7915696" lon="35.0831392">
<ele>567.869995</ele>
<time>2018-05-29T17:13:15.000Z</time>
</trkpt>
<trkpt lat="31.7916485" lon="35.0832427">
<ele>567.049988</ele>
<time>2018-05-29T17:13:17.000Z</time>
</trkpt>
<trkpt lat="31.7917440" lon="35.0833501">
<ele>565.510010</ele>
<time>2018-05-29T17:13:19.000Z</time>
</trkpt>
<trkpt lat="31.7918523" lon="35.0834700">
<ele>563.679993</ele>
<time>2018-05-29T17:13:21.000Z</time>
</trkpt>
<trkpt lat="31.7919639" lon="35.0835951">
<ele>562.140015</ele>
<time>2018-05-29T17:13:23.000Z</time>
</trkpt>
<trkpt lat="31.7920828" lon="35.0837180">
<ele>560.289978</ele>
<time>2018-05-29T17:13:25.000Z</time>
</trkpt>
<trkpt lat="31.7922126" lon="35.0838363">
<ele>559.589966</ele>
<time>2018-05-29T17:13:27.000Z</time>
</trkpt>
<trkpt lat="31.7923380" lon="35.0839604">
<ele>558.880005</ele>
<time>2018-05-29T17:13:29.000Z</time>
</trkpt>
<trkpt lat="31.7924442" lon="35.0840713">
<ele>557.720032</ele>
<time>2018-05-29T17:13:31.000Z</time>
</trkpt>
<trkpt lat="31.7925322" lon="35.0841562">
<ele>556.960022</ele>
<time>2018-05-29T17:13:33.000Z</time>
</trkpt>
<trkpt lat="31.7926130" lon="35.0842250">
<ele>556.580017</ele>
<time>2018-05-29T17:13:35.000Z</time>
</trkpt>
<trkpt lat="31.7926935" lon="35.0842912">
<ele>556.169983</ele>
<time>2018-05-29T17:13:37.000Z</time>
</trkpt>
<trkpt lat="31.7927844" lon="35.0843696">
<ele>555.450012</ele>
<time>2018-05-29T17:13:39.000Z</time>
</trkpt>
<trkpt lat="31.7928790" lon="35.0844598">
<ele>554.859985</ele>
<time>2018-05-29T17:13:41.000Z</time>
</trkpt>
<trkpt lat="31.7929792" lon="35.0845527">
<ele>553.910034</ele>
<time>2018-05-29T17:13:43.000Z</time>
</trkpt>
<trkpt lat="31.7930723" lon="35.0846535">
<ele>552.899963</ele>
<time>2018-05-29T17:13:45.000Z</time>
</trkpt>
<trkpt lat="31.7931523" lon="35.0847644">
<ele>552.109985</ele>
<time>2018-05-29T17:13:47.000Z</time>
</trkpt>
<trkpt lat="31.7932119" lon="35.0848902">
<ele>551.109985</ele>
<time>2018-05-29T17:13:49.000Z</time>
</trkpt>
<trkpt lat="31.7932578" lon="35.0850311">
<ele>550.530029</ele>
<time>2018-05-29T17:13:51.000Z</time>
</trkpt>
<trkpt lat="31.7933002" lon="35.0851846">
<ele>549.109985</ele>
<time>2018-05-29T17:13:53.000Z</time>
</trkpt>
<trkpt lat="31.7933383" lon="35.0853502">
<ele>547.469971</ele>
<time>2018-05-29T17:13:55.000Z</time>
</trkpt>
<trkpt lat="31.7933756" lon="35.0855255">
<ele>546.929993</ele>
<time>2018-05-29T17:13:57.000Z</time>
</trkpt>
<trkpt lat="31.7934035" lon="35.0857034">
<ele>546.440002</ele>
<time>2018-05-29T17:13:59.000Z</time>
</trkpt>
<trkpt lat="31.7934341" lon="35.0858760">
<ele>546.279968</ele>
<time>2018-05-29T17:14:01.000Z</time>
</trkpt>
<trkpt lat="31.7934604" lon="35.0860431">
<ele>546.050049</ele>
<time>2018-05-29T17:14:03.000Z</time>
</trkpt>
<trkpt lat="31.7934882" lon="35.0862051">
<ele>546.109985</ele>
<time>2018-05-29T17:14:05.000Z</time>
</trkpt>
<trkpt lat="31.7935145" lon="35.0863530">
<ele>545.299988</ele>
<time>2018-05-29T17:14:07.000Z</time>
</trkpt>
<trkpt lat="31.7935379" lon="35.0864961">
<ele>545.650024</ele>
<time>2018-05-29T17:14:09.000Z</time>
</trkpt>
<trkpt lat="31.7935527" lon="35.0866400">
<ele>544.729980</ele>
<time>2018-05-29T17:14:11.000Z</time>
</trkpt>
<trkpt lat="31.7935617" lon="35.0867836">
<ele>544.369995</ele>
<time>2018-05-29T17:14:13.000Z</time>
</trkpt>
<trkpt lat="31.7935707" lon="35.0869311">
<ele>543.539978</ele>
<time>2018-05-29T17:14:15.000Z</time>
</trkpt>
<trkpt lat="31.7935861" lon="35.0870845">
<ele>543.320007</ele>
<time>2018-05-29T17:14:17.000Z</time>
</trkpt>
<trkpt lat="31.7936055" lon="35.0872300">
<ele>542.320007</ele>
<time>2018-05-29T17:14:19.000Z</time>
</trkpt>
<trkpt lat="31.7936247" lon="35.0873689">
<ele>541.659973</ele>
<time>2018-05-29T17:14:21.000Z</time>
</trkpt>
<trkpt lat="31.7936410" lon="35.0875061">
<ele>540.650024</ele>
<time>2018-05-29T17:14:23.000Z</time>
</trkpt>
<trkpt lat="31.7936495" lon="35.0876429">
<ele>540.039978</ele>
<time>2018-05-29T17:14:25.000Z</time>
</trkpt>
<trkpt lat="31.7936542" lon="35.0877844">
<ele>539.909973</ele>
<time>2018-05-29T17:14:27.000Z</time>
</trkpt>
<trkpt lat="31.7936543" lon="35.0879253">
<ele>538.419983</ele>
<time>2018-05-29T17:14:29.000Z</time>
</trkpt>
<trkpt lat="31.7936469" lon="35.0880601">
<ele>537.750000</ele>
<time>2018-05-29T17:14:31.000Z</time>
</trkpt>
<trkpt lat="31.7936497" lon="35.0881809">
<ele>536.840027</ele>
<time>2018-05-29T17:14:33.000Z</time>
</trkpt>
<trkpt lat="31.7936676" lon="35.0882909">
<ele>536.460022</ele>
<time>2018-05-29T17:14:35.000Z</time>
</trkpt>
<trkpt lat="31.7937143" lon="35.0883801">
<ele>535.600037</ele>
<time>2018-05-29T17:14:38.000Z</time>
</trkpt>
<trkpt lat="31.7937889" lon="35.0883609">
<ele>534.369995</ele>
<time>2018-05-29T17:14:51.000Z</time>
</trkpt>
<trkpt lat="31.7938593" lon="35.0882940">
<ele>533.619995</ele>
<time>2018-05-29T17:14:55.000Z</time>
</trkpt>
<trkpt lat="31.7939003" lon="35.0881576">
<ele>531.979980</ele>
<time>2018-05-29T17:14:59.000Z</time>
</trkpt>
<trkpt lat="31.7939291" lon="35.0880209">
<ele>531.589966</ele>
<time>2018-05-29T17:15:02.000Z</time>
</trkpt>
<trkpt lat="31.7939496" lon="35.0879118">
<ele>531.230042</ele>
<time>2018-05-29T17:15:04.000Z</time>
</trkpt>
<trkpt lat="31.7939688" lon="35.0877885">
<ele>530.200012</ele>
<time>2018-05-29T17:15:06.000Z</time>
</trkpt>
<trkpt lat="31.7939899" lon="35.0876584">
<ele>530.260010</ele>
<time>2018-05-29T17:15:08.000Z</time>
</trkpt>
<trkpt lat="31.7940130" lon="35.0875215">
<ele>529.959961</ele>
<time>2018-05-29T17:15:10.000Z</time>
</trkpt>
<trkpt lat="31.7940247" lon="35.0873792">
<ele>528.979980</ele>
<time>2018-05-29T17:15:12.000Z</time>
</trkpt>
<trkpt lat="31.7940479" lon="35.0872369">
<ele>528.200012</ele>
<time>2018-05-29T17:15:14.000Z</time>
</trkpt>
<trkpt lat="31.7940899" lon="35.0870942">
<ele>527.859985</ele>
<time>2018-05-29T17:15:16.000Z</time>
</trkpt>
<trkpt lat="31.7941303" lon="35.0869487">
<ele>527.390015</ele>
<time>2018-05-29T17:15:18.000Z</time>
</trkpt>
<trkpt lat="31.7941635" lon="35.0868036">
<ele>525.660034</ele>
<time>2018-05-29T17:15:20.000Z</time>
</trkpt>
<trkpt lat="31.7941881" lon="35.0866701">
<ele>525.690002</ele>
<time>2018-05-29T17:15:22.000Z</time>
</trkpt>
<trkpt lat="31.7942225" lon="35.0865435">
<ele>524.549988</ele>
<time>2018-05-29T17:15:24.000Z</time>
</trkpt>
<trkpt lat="31.7942705" lon="35.0864247">
<ele>523.830017</ele>
<time>2018-05-29T17:15:26.000Z</time>
</trkpt>
<trkpt lat="31.7943242" lon="35.0863148">
<ele>522.460022</ele>
<time>2018-05-29T17:15:28.000Z</time>
</trkpt>
<trkpt lat="31.7943893" lon="35.0862178">
<ele>521.520020</ele>
<time>2018-05-29T17:15:30.000Z</time>
</trkpt>
<trkpt lat="31.7944799" lon="35.0861316">
<ele>520.809998</ele>
<time>2018-05-29T17:15:32.000Z</time>
</trkpt>
<trkpt lat="31.7945659" lon="35.0860722">
<ele>519.130005</ele>
<time>2018-05-29T17:15:34.000Z</time>
</trkpt>
<trkpt lat="31.7946825" lon="35.0860635">
<ele>519.429993</ele>
<time>2018-05-29T17:15:37.000Z</time>
</trkpt>
<trkpt lat="31.7947683" lon="35.0860146">
<ele>519.789978</ele>
<time>2018-05-29T17:15:41.000Z</time>
</trkpt>
<trkpt lat="31.7947984" lon="35.0858956">
<ele>519.369995</ele>
<time>2018-05-29T17:16:03.000Z</time>
</trkpt>
<trkpt lat="31.7948076" lon="35.0857765">
<ele>520.190002</ele>
<time>2018-05-29T17:16:08.000Z</time>
</trkpt>
<trkpt lat="31.7948234" lon="35.0856757">
<ele>520.340027</ele>
<time>2018-05-29T17:16:23.000Z</time>
</trkpt>
<trkpt lat="31.7948566" lon="35.0855755">
<ele>519.789978</ele>
<time>2018-05-29T17:16:28.000Z</time>
</trkpt>
<trkpt lat="31.7949076" lon="35.0854727">
<ele>519.659973</ele>
<time>2018-05-29T17:16:33.000Z</time>
</trkpt>
<trkpt lat="31.7949722" lon="35.0853598">
<ele>519.909973</ele>
<time>2018-05-29T17:16:37.000Z</time>
</trkpt>
<trkpt lat="31.7950409" lon="35.0852490">
<ele>519.909973</ele>
<time>2018-05-29T17:16:41.000Z</time>
</trkpt>
<trkpt lat="31.7951285" lon="35.0852142">
<ele>520.299988</ele>
<time>2018-05-29T17:16:45.000Z</time>
</trkpt>
<trkpt lat="31.7951891" lon="35.0851358">
<ele>520.520020</ele>
<time>2018-05-29T17:16:49.000Z</time>
</trkpt>
<trkpt lat="31.7952471" lon="35.0850407">
<ele>520.320007</ele>
<time>2018-05-29T17:16:53.000Z</time>
</trkpt>
<trkpt lat="31.7953072" lon="35.0849410">
<ele>520.979980</ele>
<time>2018-05-29T17:16:57.000Z</time>
</trkpt>
<trkpt lat="31.7953761" lon="35.0848327">
<ele>521.279968</ele>
<time>2018-05-29T17:17:01.000Z</time>
</trkpt>
<trkpt lat="31.7954312" lon="35.0847475">
<ele>521.349976</ele>
<time>2018-05-29T17:17:04.000Z</time>
</trkpt>
<trkpt lat="31.7955020" lon="35.0846556">
<ele>522.010010</ele>
<time>2018-05-29T17:17:08.000Z</time>
</trkpt>
<trkpt lat="31.7955728" lon="35.0845585">
<ele>522.479980</ele>
<time>2018-05-29T17:17:13.000Z</time>
</trkpt>
<trkpt lat="31.7956411" lon="35.0844800">
<ele>522.840027</ele>
<time>2018-05-29T17:17:16.000Z</time>
</trkpt>
<trkpt lat="31.7957143" lon="35.0844157">
<ele>523.200012</ele>
<time>2018-05-29T17:17:19.000Z</time>
</trkpt>
<trkpt lat="31.7957818" lon="35.0843396">
<ele>523.350037</ele>
<time>2018-05-29T17:17:22.000Z</time>
</trkpt>
<trkpt lat="31.7958466" lon="35.0842495">
<ele>523.279968</ele>
<time>2018-05-29T17:17:25.000Z</time>
</trkpt>
<trkpt lat="31.7959136" lon="35.0841524">
<ele>523.260010</ele>
<time>2018-05-29T17:17:28.000Z</time>
</trkpt>
<trkpt lat="31.7959493" lon="35.0840369">
<ele>523.479980</ele>
<time>2018-05-29T17:17:31.000Z</time>
</trkpt>
<trkpt lat="31.7959706" lon="35.0839102">
<ele>524.010010</ele>
<time>2018-05-29T17:17:34.000Z</time>
</trkpt>
<trkpt lat="31.7959923" lon="35.0837897">
<ele>524.460022</ele>
<time>2018-05-29T17:17:37.000Z</time>
</trkpt>
<trkpt lat="31.7960146" lon="35.0836822">
<ele>525.030029</ele>
<time>2018-05-29T17:17:40.000Z</time>
</trkpt>
<trkpt lat="31.7960355" lon="35.0835443">
<ele>525.559998</ele>
<time>2018-05-29T17:17:44.000Z</time>
</trkpt>
<trkpt lat="31.7960540" lon="35.0834108">
<ele>526.169983</ele>
<time>2018-05-29T17:17:48.000Z</time>
</trkpt>
<trkpt lat="31.7960634" lon="35.0832827">
<ele>526.500000</ele>
<time>2018-05-29T17:17:52.000Z</time>
</trkpt>
<trkpt lat="31.7960700" lon="35.0831490">
<ele>527.380005</ele>
<time>2018-05-29T17:17:56.000Z</time>
</trkpt>
<trkpt lat="31.7960735" lon="35.0830137">
<ele>527.919983</ele>
<time>2018-05-29T17:18:00.000Z</time>
</trkpt>
<trkpt lat="31.7960785" lon="35.0828907">
<ele>528.229980</ele>
<time>2018-05-29T17:18:04.000Z</time>
</trkpt>
<trkpt lat="31.7960834" lon="35.0827806">
<ele>529.460022</ele>
<time>2018-05-29T17:18:08.000Z</time>
</trkpt>
<trkpt lat="31.7960841" lon="35.0826590">
<ele>528.790039</ele>
<time>2018-05-29T17:18:12.000Z</time>
</trkpt>
<trkpt lat="31.7960852" lon="35.0825317">
<ele>529.529968</ele>
<time>2018-05-29T17:18:16.000Z</time>
</trkpt>
<trkpt lat="31.7960775" lon="35.0824160">
<ele>530.630005</ele>
<time>2018-05-29T17:18:20.000Z</time>
</trkpt>
<trkpt lat="31.7960844" lon="35.0823063">
<ele>531.830017</ele>
<time>2018-05-29T17:18:24.000Z</time>
</trkpt>
<trkpt lat="31.7960889" lon="35.0821917">
<ele>533.030029</ele>
<time>2018-05-29T17:18:29.000Z</time>
</trkpt>
<trkpt lat="31.7961067" lon="35.0820709">
<ele>533.339966</ele>
<time>2018-05-29T17:18:34.000Z</time>
</trkpt>
<trkpt lat="31.7961292" lon="35.0819543">
<ele>533.520020</ele>
<time>2018-05-29T17:18:39.000Z</time>
</trkpt>
<trkpt lat="31.7961543" lon="35.0818341">
<ele>533.720032</ele>
<time>2018-05-29T17:18:43.000Z</time>
</trkpt>
<trkpt lat="31.7961914" lon="35.0817189">
<ele>534.450012</ele>
<time>2018-05-29T17:18:47.000Z</time>
</trkpt>
<trkpt lat="31.7962155" lon="35.0816185">
<ele>535.289978</ele>
<time>2018-05-29T17:18:51.000Z</time>
</trkpt>
<trkpt lat="31.7962418" lon="35.0814824">
<ele>535.549988</ele>
<time>2018-05-29T17:18:56.000Z</time>
</trkpt>
<trkpt lat="31.7962650" lon="35.0813615">
<ele>536.089966</ele>
<time>2018-05-29T17:19:00.000Z</time>
</trkpt>
<trkpt lat="31.7962943" lon="35.0812557">
<ele>536.469971</ele>
<time>2018-05-29T17:19:04.000Z</time>
</trkpt>
<trkpt lat="31.7963337" lon="35.0811281">
<ele>536.289978</ele>
<time>2018-05-29T17:19:08.000Z</time>
</trkpt>
<trkpt lat="31.7963839" lon="35.0810246">
<ele>536.940002</ele>
<time>2018-05-29T17:19:11.000Z</time>
</trkpt>
<trkpt lat="31.7964491" lon="35.0809171">
<ele>537.520020</ele>
<time>2018-05-29T17:19:15.000Z</time>
</trkpt>
<trkpt lat="31.7965131" lon="35.0808228">
<ele>538.890015</ele>
<time>2018-05-29T17:19:19.000Z</time>
</trkpt>
<trkpt lat="31.7965710" lon="35.0807261">
<ele>538.760010</ele>
<time>2018-05-29T17:19:24.000Z</time>
</trkpt>
<trkpt lat="31.7966005" lon="35.0806003">
<ele>539.570007</ele>
<time>2018-05-29T17:19:28.000Z</time>
</trkpt>
<trkpt lat="31.7965955" lon="35.0804680">
<ele>540.169983</ele>
<time>2018-05-29T17:19:33.000Z</time>
</trkpt>
<trkpt lat="31.7965708" lon="35.0803568">
<ele>542.070007</ele>
<time>2018-05-29T17:19:39.000Z</time>
</trkpt>
<trkpt lat="31.7965444" lon="35.0802330">
<ele>542.820007</ele>
<time>2018-05-29T17:19:45.000Z</time>
</trkpt>
<trkpt lat="31.7965537" lon="35.0801095">
<ele>544.739990</ele>
<time>2018-05-29T17:19:51.000Z</time>
</trkpt>
<trkpt lat="31.7965747" lon="35.0800033">
<ele>545.279968</ele>
<time>2018-05-29T17:19:57.000Z</time>
</trkpt>
<trkpt lat="31.7965736" lon="35.0798962">
<ele>547.010010</ele>
<time>2018-05-29T17:20:03.000Z</time>
</trkpt>
<trkpt lat="31.7966090" lon="35.0797948">
<ele>547.450012</ele>
<time>2018-05-29T17:20:09.000Z</time>
</trkpt>
<trkpt lat="31.7965965" lon="35.0796723">
<ele>548.700012</ele>
<time>2018-05-29T17:20:16.000Z</time>
</trkpt>
<trkpt lat="31.7965918" lon="35.0795530">
<ele>550.099976</ele>
<time>2018-05-29T17:20:22.000Z</time>
</trkpt>
<trkpt lat="31.7965675" lon="35.0794466">
<ele>550.989990</ele>
<time>2018-05-29T17:20:28.000Z</time>
</trkpt>
<trkpt lat="31.7965309" lon="35.0793408">
<ele>552.150024</ele>
<time>2018-05-29T17:20:35.000Z</time>
</trkpt>
<trkpt lat="31.7964956" lon="35.0792353">
<ele>552.489990</ele>
<time>2018-05-29T17:20:41.000Z</time>
</trkpt>
<trkpt lat="31.7964762" lon="35.0791179">
<ele>552.710022</ele>
<time>2018-05-29T17:20:47.000Z</time>
</trkpt>
<trkpt lat="31.7964648" lon="35.0790031">
<ele>553.080017</ele>
<time>2018-05-29T17:20:53.000Z</time>
</trkpt>
<trkpt lat="31.7964497" lon="35.0788856">
<ele>553.359985</ele>
<time>2018-05-29T17:20:59.000Z</time>
</trkpt>
<trkpt lat="31.7964243" lon="35.0787782">
<ele>553.799988</ele>
<time>2018-05-29T17:21:05.000Z</time>
</trkpt>
<trkpt lat="31.7963679" lon="35.0786838">
<ele>553.520020</ele>
<time>2018-05-29T17:21:09.000Z</time>
</trkpt>
<trkpt lat="31.7962893" lon="35.0786007">
<ele>555.130005</ele>
<time>2018-05-29T17:21:14.000Z</time>
</trkpt>
<trkpt lat="31.7962049" lon="35.0785270">
<ele>556.390015</ele>
<time>2018-05-29T17:21:19.000Z</time>
</trkpt>
<trkpt lat="31.7961106" lon="35.0784509">
<ele>556.599976</ele>
<time>2018-05-29T17:21:24.000Z</time>
</trkpt>
<trkpt lat="31.7960237" lon="35.0783886">
<ele>556.589966</ele>
<time>2018-05-29T17:21:28.000Z</time>
</trkpt>
<trkpt lat="31.7959381" lon="35.0783222">
<ele>557.830017</ele>
<time>2018-05-29T17:21:33.000Z</time>
</trkpt>
<trkpt lat="31.7958520" lon="35.0782553">
<ele>558.869995</ele>
<time>2018-05-29T17:21:39.000Z</time>
</trkpt>
<trkpt lat="31.7957658" lon="35.0781911">
<ele>559.539978</ele>
<time>2018-05-29T17:21:45.000Z</time>
</trkpt>
<trkpt lat="31.7956636" lon="35.0781577">
<ele>558.750000</ele>
<time>2018-05-29T17:21:50.000Z</time>
</trkpt>
<trkpt lat="31.7955674" lon="35.0781309">
<ele>559.000000</ele>
<time>2018-05-29T17:21:54.000Z</time>
</trkpt>
<trkpt lat="31.7954719" lon="35.0780894">
<ele>559.929993</ele>
<time>2018-05-29T17:21:58.000Z</time>
</trkpt>
<trkpt lat="31.7953825" lon="35.0780541">
<ele>559.989990</ele>
<time>2018-05-29T17:22:02.000Z</time>
</trkpt>
<trkpt lat="31.7952897" lon="35.0780256">
<ele>560.900024</ele>
<time>2018-05-29T17:22:06.000Z</time>
</trkpt>
<trkpt lat="31.7951984" lon="35.0779930">
<ele>561.540039</ele>
<time>2018-05-29T17:22:10.000Z</time>
</trkpt>
<trkpt lat="31.7951067" lon="35.0779637">
<ele>561.719971</ele>
<time>2018-05-29T17:22:14.000Z</time>
</trkpt>
<trkpt lat="31.7950155" lon="35.0779405">
<ele>562.609985</ele>
<time>2018-05-29T17:22:18.000Z</time>
</trkpt>
<trkpt lat="31.7949104" lon="35.0779237">
<ele>562.609985</ele>
<time>2018-05-29T17:22:23.000Z</time>
</trkpt>
<trkpt lat="31.7948161" lon="35.0779091">
<ele>562.220032</ele>
<time>2018-05-29T17:22:27.000Z</time>
</trkpt>
<trkpt lat="31.7947076" lon="35.0778810">
<ele>562.140015</ele>
<time>2018-05-29T17:22:30.000Z</time>
</trkpt>
<trkpt lat="31.7945887" lon="35.0778482">
<ele>561.989990</ele>
<time>2018-05-29T17:22:33.000Z</time>
</trkpt>
<trkpt lat="31.7944897" lon="35.0778098">
<ele>562.159973</ele>
<time>2018-05-29T17:22:36.000Z</time>
</trkpt>
<trkpt lat="31.7943964" lon="35.0777852">
<ele>562.230042</ele>
<time>2018-05-29T17:22:39.000Z</time>
</trkpt>
<trkpt lat="31.7942983" lon="35.0777604">
<ele>562.059998</ele>
<time>2018-05-29T17:22:42.000Z</time>
</trkpt>
<trkpt lat="31.7941955" lon="35.0777378">
<ele>561.710022</ele>
<time>2018-05-29T17:22:45.000Z</time>
</trkpt>
<trkpt lat="31.7940927" lon="35.0777239">
<ele>561.830017</ele>
<time>2018-05-29T17:22:48.000Z</time>
</trkpt>
<trkpt lat="31.7939894" lon="35.0777123">
<ele>561.849976</ele>
<time>2018-05-29T17:22:51.000Z</time>
</trkpt>
<trkpt lat="31.7938908" lon="35.0777081">
<ele>561.880005</ele>
<time>2018-05-29T17:22:54.000Z</time>
</trkpt>
<trkpt lat="31.7937853" lon="35.0777025">
<ele>561.299988</ele>
<time>2018-05-29T17:22:57.000Z</time>
</trkpt>
<trkpt lat="31.7936733" lon="35.0777027">
<ele>560.739990</ele>
<time>2018-05-29T17:23:00.000Z</time>
</trkpt>
<trkpt lat="31.7935538" lon="35.0776835">
<ele>561.200012</ele>
<time>2018-05-29T17:23:03.000Z</time>
</trkpt>
<trkpt lat="31.7934589" lon="35.0776431">
<ele>561.169983</ele>
<time>2018-05-29T17:23:06.000Z</time>
</trkpt>
<trkpt lat="31.7933667" lon="35.0776046">
<ele>561.250000</ele>
<time>2018-05-29T17:23:09.000Z</time>
</trkpt>
<trkpt lat="31.7932704" lon="35.0775394">
<ele>560.659973</ele>
<time>2018-05-29T17:23:12.000Z</time>
</trkpt>
<trkpt lat="31.7931757" lon="35.0774741">
<ele>560.940002</ele>
<time>2018-05-29T17:23:15.000Z</time>
</trkpt>
<trkpt lat="31.7930801" lon="35.0774121">
<ele>560.659973</ele>
<time>2018-05-29T17:23:18.000Z</time>
</trkpt>
<trkpt lat="31.7929887" lon="35.0773452">
<ele>560.539978</ele>
<time>2018-05-29T17:23:21.000Z</time>
</trkpt>
<trkpt lat="31.7929116" lon="35.0772645">
<ele>560.219971</ele>
<time>2018-05-29T17:23:24.000Z</time>
</trkpt>
<trkpt lat="31.7928361" lon="35.0771770">
<ele>559.380005</ele>
<time>2018-05-29T17:23:27.000Z</time>
</trkpt>
<trkpt lat="31.7927598" lon="35.0770732">
<ele>558.659973</ele>
<time>2018-05-29T17:23:30.000Z</time>
</trkpt>
<trkpt lat="31.7927061" lon="35.0769349">
<ele>558.130005</ele>
<time>2018-05-29T17:23:33.000Z</time>
</trkpt>
<trkpt lat="31.7926849" lon="35.0768305">
<ele>557.460022</ele>
<time>2018-05-29T17:23:35.000Z</time>
</trkpt>
<trkpt lat="31.7926855" lon="35.0766782">
<ele>557.080017</ele>
<time>2018-05-29T17:23:38.000Z</time>
</trkpt>
<trkpt lat="31.7927029" lon="35.0765368">
<ele>556.709961</ele>
<time>2018-05-29T17:23:41.000Z</time>
</trkpt>
<trkpt lat="31.7927297" lon="35.0763954">
<ele>556.190002</ele>
<time>2018-05-29T17:23:44.000Z</time>
</trkpt>
<trkpt lat="31.7927758" lon="35.0762515">
<ele>555.369995</ele>
<time>2018-05-29T17:23:47.000Z</time>
</trkpt>
<trkpt lat="31.7928140" lon="35.0761519">
<ele>554.650024</ele>
<time>2018-05-29T17:23:49.000Z</time>
</trkpt>
<trkpt lat="31.7928544" lon="35.0760469">
<ele>554.549988</ele>
<time>2018-05-29T17:23:51.000Z</time>
</trkpt>
<trkpt lat="31.7928984" lon="35.0759312">
<ele>554.500000</ele>
<time>2018-05-29T17:23:53.000Z</time>
</trkpt>
<trkpt lat="31.7929532" lon="35.0758057">
<ele>553.289978</ele>
<time>2018-05-29T17:23:55.000Z</time>
</trkpt>
<trkpt lat="31.7930034" lon="35.0756831">
<ele>552.919983</ele>
<time>2018-05-29T17:23:57.000Z</time>
</trkpt>
<trkpt lat="31.7930478" lon="35.0755758">
<ele>552.710022</ele>
<time>2018-05-29T17:23:59.000Z</time>
</trkpt>
<trkpt lat="31.7930906" lon="35.0754680">
<ele>552.219971</ele>
<time>2018-05-29T17:24:01.000Z</time>
</trkpt>
<trkpt lat="31.7931305" lon="35.0753547">
<ele>551.619995</ele>
<time>2018-05-29T17:24:03.000Z</time>
</trkpt>
<trkpt lat="31.7931515" lon="35.0752403">
<ele>551.279968</ele>
<time>2018-05-29T17:24:05.000Z</time>
</trkpt>
<trkpt lat="31.7931348" lon="35.0751071">
<ele>550.169983</ele>
<time>2018-05-29T17:24:08.000Z</time>
</trkpt>
<trkpt lat="31.7930901" lon="35.0750019">
<ele>549.089966</ele>
<time>2018-05-29T17:24:11.000Z</time>
</trkpt>
<trkpt lat="31.7930367" lon="35.0749087">
<ele>547.580017</ele>
<time>2018-05-29T17:24:14.000Z</time>
</trkpt>
<trkpt lat="31.7929651" lon="35.0748108">
<ele>546.330017</ele>
<time>2018-05-29T17:24:18.000Z</time>
</trkpt>
<trkpt lat="31.7928831" lon="35.0747041">
<ele>544.799988</ele>
<time>2018-05-29T17:24:21.000Z</time>
</trkpt>
<trkpt lat="31.7927938" lon="35.0745898">
<ele>543.809998</ele>
<time>2018-05-29T17:24:24.000Z</time>
</trkpt>
<trkpt lat="31.7927150" lon="35.0744715">
<ele>542.609985</ele>
<time>2018-05-29T17:24:27.000Z</time>
</trkpt>
<trkpt lat="31.7926496" lon="35.0743691">
<ele>542.090027</ele>
<time>2018-05-29T17:24:30.000Z</time>
</trkpt>
<trkpt lat="31.7925721" lon="35.0742470">
<ele>541.239990</ele>
<time>2018-05-29T17:24:33.000Z</time>
</trkpt>
<trkpt lat="31.7925131" lon="35.0741591">
<ele>540.659973</ele>
<time>2018-05-29T17:24:35.000Z</time>
</trkpt>
<trkpt lat="31.7924495" lon="35.0740691">
<ele>539.630005</ele>
<time>2018-05-29T17:24:37.000Z</time>
</trkpt>
<trkpt lat="31.7923848" lon="35.0739696">
<ele>538.570007</ele>
<time>2018-05-29T17:24:39.000Z</time>
</trkpt>
<trkpt lat="31.7923146" lon="35.0738669">
<ele>538.250000</ele>
<time>2018-05-29T17:24:41.000Z</time>
</trkpt>
<trkpt lat="31.7922337" lon="35.0737702">
<ele>537.729980</ele>
<time>2018-05-29T17:24:43.000Z</time>
</trkpt>
<trkpt lat="31.7921449" lon="35.0736773">
<ele>537.640015</ele>
<time>2018-05-29T17:24:45.000Z</time>
</trkpt>
<trkpt lat="31.7920539" lon="35.0735864">
<ele>537.320007</ele>
<time>2018-05-29T17:24:47.000Z</time>
</trkpt>
<trkpt lat="31.7919622" lon="35.0735044">
<ele>537.090027</ele>
<time>2018-05-29T17:24:49.000Z</time>
</trkpt>
<trkpt lat="31.7918677" lon="35.0734379">
<ele>536.989990</ele>
<time>2018-05-29T17:24:51.000Z</time>
</trkpt>
<trkpt lat="31.7917844" lon="35.0733640">
<ele>536.640015</ele>
<time>2018-05-29T17:24:53.000Z</time>
</trkpt>
<trkpt lat="31.7917150" lon="35.0732887">
<ele>536.589966</ele>
<time>2018-05-29T17:24:55.000Z</time>
</trkpt>
<trkpt lat="31.7916261" lon="35.0731904">
<ele>536.979980</ele>
<time>2018-05-29T17:24:58.000Z</time>
</trkpt>
<trkpt lat="31.7915464" lon="35.0730947">
<ele>537.400024</ele>
<time>2018-05-29T17:25:01.000Z</time>
</trkpt>
<trkpt lat="31.7914747" lon="35.0729932">
<ele>538.030029</ele>
<time>2018-05-29T17:25:04.000Z</time>
</trkpt>
<trkpt lat="31.7914162" lon="35.0728922">
<ele>538.460022</ele>
<time>2018-05-29T17:25:07.000Z</time>
</trkpt>
<trkpt lat="31.7913621" lon="35.0727909">
<ele>538.679993</ele>
<time>2018-05-29T17:25:10.000Z</time>
</trkpt>
<trkpt lat="31.7913140" lon="35.0726959">
<ele>539.459961</ele>
<time>2018-05-29T17:25:13.000Z</time>
</trkpt>
<trkpt lat="31.7912503" lon="35.0725896">
<ele>539.750000</ele>
<time>2018-05-29T17:25:17.000Z</time>
</trkpt>
<trkpt lat="31.7911949" lon="35.0724806">
<ele>540.340027</ele>
<time>2018-05-29T17:25:21.000Z</time>
</trkpt>
<trkpt lat="31.7911330" lon="35.0723767">
<ele>540.350037</ele>
<time>2018-05-29T17:25:25.000Z</time>
</trkpt>
<trkpt lat="31.7910748" lon="35.0722656">
<ele>541.720032</ele>
<time>2018-05-29T17:25:29.000Z</time>
</trkpt>
<trkpt lat="31.7910093" lon="35.0721624">
<ele>542.080017</ele>
<time>2018-05-29T17:25:33.000Z</time>
</trkpt>
<trkpt lat="31.7909339" lon="35.0720669">
<ele>542.700012</ele>
<time>2018-05-29T17:25:37.000Z</time>
</trkpt>
<trkpt lat="31.7908676" lon="35.0719872">
<ele>542.690002</ele>
<time>2018-05-29T17:25:40.000Z</time>
</trkpt>
<trkpt lat="31.7908040" lon="35.0719084">
<ele>543.570007</ele>
<time>2018-05-29T17:25:43.000Z</time>
</trkpt>
<trkpt lat="31.7907552" lon="35.0717878">
<ele>544.039978</ele>
<time>2018-05-29T17:25:47.000Z</time>
</trkpt>
<trkpt lat="31.7906860" lon="35.0716745">
<ele>544.609985</ele>
<time>2018-05-29T17:25:51.000Z</time>
</trkpt>
<trkpt lat="31.7906212" lon="35.0715883">
<ele>544.599976</ele>
<time>2018-05-29T17:25:54.000Z</time>
</trkpt>
<trkpt lat="31.7905699" lon="35.0714957">
<ele>544.619995</ele>
<time>2018-05-29T17:25:57.000Z</time>
</trkpt>
<trkpt lat="31.7905163" lon="35.0713819">
<ele>545.500000</ele>
<time>2018-05-29T17:26:01.000Z</time>
</trkpt>
<trkpt lat="31.7904761" lon="35.0712655">
<ele>546.239990</ele>
<time>2018-05-29T17:26:05.000Z</time>
</trkpt>
<trkpt lat="31.7904617" lon="35.0711404">
<ele>546.869995</ele>
<time>2018-05-29T17:26:09.000Z</time>
</trkpt>
<trkpt lat="31.7904565" lon="35.0710137">
<ele>547.890015</ele>
<time>2018-05-29T17:26:13.000Z</time>
</trkpt>
<trkpt lat="31.7904686" lon="35.0708937">
<ele>548.330017</ele>
<time>2018-05-29T17:26:17.000Z</time>
</trkpt>
<trkpt lat="31.7904839" lon="35.0707796">
<ele>548.500000</ele>
<time>2018-05-29T17:26:21.000Z</time>
</trkpt>
<trkpt lat="31.7905108" lon="35.0706743">
<ele>549.679993</ele>
<time>2018-05-29T17:26:25.000Z</time>
</trkpt>
<trkpt lat="31.7905295" lon="35.0705604">
<ele>549.609985</ele>
<time>2018-05-29T17:26:32.000Z</time>
</trkpt>
<trkpt lat="31.7905465" lon="35.0704490">
<ele>550.299988</ele>
<time>2018-05-29T17:26:38.000Z</time>
</trkpt>
<trkpt lat="31.7905503" lon="35.0703289">
<ele>550.489990</ele>
<time>2018-05-29T17:26:44.000Z</time>
</trkpt>
<trkpt lat="31.7905456" lon="35.0702186">
<ele>550.630005</ele>
<time>2018-05-29T17:26:49.000Z</time>
</trkpt>
<trkpt lat="31.7905311" lon="35.0701161">
<ele>550.589966</ele>
<time>2018-05-29T17:26:58.000Z</time>
</trkpt>
<trkpt lat="31.7905105" lon="35.0700094">
<ele>551.250000</ele>
<time>2018-05-29T17:27:05.000Z</time>
</trkpt>
<trkpt lat="31.7904787" lon="35.0698966">
<ele>551.299988</ele>
<time>2018-05-29T17:27:11.000Z</time>
</trkpt>
<trkpt lat="31.7904294" lon="35.0697812">
<ele>551.789978</ele>
<time>2018-05-29T17:27:17.000Z</time>
</trkpt>
<trkpt lat="31.7903951" lon="35.0696787">
<ele>552.460022</ele>
<time>2018-05-29T17:27:22.000Z</time>
</trkpt>
<trkpt lat="31.7903442" lon="35.0695763">
<ele>552.750000</ele>
<time>2018-05-29T17:27:27.000Z</time>
</trkpt>
<trkpt lat="31.7902842" lon="35.0694865">
<ele>553.020020</ele>
<time>2018-05-29T17:27:31.000Z</time>
</trkpt>
<trkpt lat="31.7902133" lon="35.0693953">
<ele>552.770020</ele>
<time>2018-05-29T17:27:35.000Z</time>
</trkpt>
<trkpt lat="31.7901394" lon="35.0693075">
<ele>553.179993</ele>
<time>2018-05-29T17:27:39.000Z</time>
</trkpt>
<trkpt lat="31.7900659" lon="35.0692178">
<ele>553.619995</ele>
<time>2018-05-29T17:27:43.000Z</time>
</trkpt>
<trkpt lat="31.7899892" lon="35.0691301">
<ele>554.260010</ele>
<time>2018-05-29T17:27:47.000Z</time>
</trkpt>
<trkpt lat="31.7899122" lon="35.0690423">
<ele>553.859985</ele>
<time>2018-05-29T17:27:51.000Z</time>
</trkpt>
<trkpt lat="31.7898290" lon="35.0689574">
<ele>554.190002</ele>
<time>2018-05-29T17:27:55.000Z</time>
</trkpt>
<trkpt lat="31.7897585" lon="35.0688726">
<ele>555.359985</ele>
<time>2018-05-29T17:27:59.000Z</time>
</trkpt>
<trkpt lat="31.7896778" lon="35.0687874">
<ele>555.940002</ele>
<time>2018-05-29T17:28:03.000Z</time>
</trkpt>
<trkpt lat="31.7895905" lon="35.0687276">
<ele>556.159973</ele>
<time>2018-05-29T17:28:08.000Z</time>
</trkpt>
<trkpt lat="31.7895236" lon="35.0686527">
<ele>557.090027</ele>
<time>2018-05-29T17:28:12.000Z</time>
</trkpt>
<trkpt lat="31.7894530" lon="35.0685675">
<ele>556.520020</ele>
<time>2018-05-29T17:28:16.000Z</time>
</trkpt>
<trkpt lat="31.7893870" lon="35.0684735">
<ele>557.119995</ele>
<time>2018-05-29T17:28:20.000Z</time>
</trkpt>
<trkpt lat="31.7893186" lon="35.0683815">
<ele>556.910034</ele>
<time>2018-05-29T17:28:24.000Z</time>
</trkpt>
<trkpt lat="31.7892523" lon="35.0682886">
<ele>557.869995</ele>
<time>2018-05-29T17:28:28.000Z</time>
</trkpt>
<trkpt lat="31.7891927" lon="35.0681940">
<ele>557.659973</ele>
<time>2018-05-29T17:28:32.000Z</time>
</trkpt>
<trkpt lat="31.7891434" lon="35.0680827">
<ele>558.799988</ele>
<time>2018-05-29T17:28:37.000Z</time>
</trkpt>
<trkpt lat="31.7891184" lon="35.0679580">
<ele>559.579956</ele>
<time>2018-05-29T17:28:42.000Z</time>
</trkpt>
<trkpt lat="31.7891357" lon="35.0678310">
<ele>560.140015</ele>
<time>2018-05-29T17:28:47.000Z</time>
</trkpt>
<trkpt lat="31.7891663" lon="35.0677314">
<ele>560.919983</ele>
<time>2018-05-29T17:28:52.000Z</time>
</trkpt>
<trkpt lat="31.7892159" lon="35.0676315">
<ele>561.789978</ele>
<time>2018-05-29T17:28:58.000Z</time>
</trkpt>
<trkpt lat="31.7892600" lon="35.0675299">
<ele>563.510010</ele>
<time>2018-05-29T17:29:04.000Z</time>
</trkpt>
<trkpt lat="31.7893107" lon="35.0674297">
<ele>564.049988</ele>
<time>2018-05-29T17:29:10.000Z</time>
</trkpt>
<trkpt lat="31.7893597" lon="35.0673327">
<ele>565.010010</ele>
<time>2018-05-29T17:29:16.000Z</time>
</trkpt>
<trkpt lat="31.7894042" lon="35.0672226">
<ele>565.409973</ele>
<time>2018-05-29T17:29:22.000Z</time>
</trkpt>
<trkpt lat="31.7894589" lon="35.0671245">
<ele>565.890015</ele>
<time>2018-05-29T17:29:28.000Z</time>
</trkpt>
<trkpt lat="31.7895034" lon="35.0670213">
<ele>566.479980</ele>
<time>2018-05-29T17:29:35.000Z</time>
</trkpt>
<trkpt lat="31.7895638" lon="35.0669221">
<ele>567.329956</ele>
<time>2018-05-29T17:29:42.000Z</time>
</trkpt>
<trkpt lat="31.7896209" lon="35.0668179">
<ele>567.359985</ele>
<time>2018-05-29T17:29:48.000Z</time>
</trkpt>
<trkpt lat="31.7896629" lon="35.0667179">
<ele>568.760010</ele>
<time>2018-05-29T17:29:53.000Z</time>
</trkpt>
<trkpt lat="31.7897164" lon="35.0666231">
<ele>569.309998</ele>
<time>2018-05-29T17:29:59.000Z</time>
</trkpt>
<trkpt lat="31.7897699" lon="35.0665060">
<ele>570.239990</ele>
<time>2018-05-29T17:30:05.000Z</time>
</trkpt>
<trkpt lat="31.7898181" lon="35.0664080">
<ele>570.709961</ele>
<time>2018-05-29T17:30:10.000Z</time>
</trkpt>
<trkpt lat="31.7898541" lon="35.0662971">
<ele>572.290039</ele>
<time>2018-05-29T17:30:16.000Z</time>
</trkpt>
<trkpt lat="31.7898861" lon="35.0661916">
<ele>572.769958</ele>
<time>2018-05-29T17:30:23.000Z</time>
</trkpt>
<trkpt lat="31.7899264" lon="35.0660796">
<ele>574.340027</ele>
<time>2018-05-29T17:30:30.000Z</time>
</trkpt>
<trkpt lat="31.7899557" lon="35.0659617">
<ele>574.739990</ele>
<time>2018-05-29T17:30:36.000Z</time>
</trkpt>
<trkpt lat="31.7899776" lon="35.0658430">
<ele>575.690002</ele>
<time>2018-05-29T17:30:42.000Z</time>
</trkpt>
<trkpt lat="31.7899875" lon="35.0657249">
<ele>575.500000</ele>
<time>2018-05-29T17:30:47.000Z</time>
</trkpt>
<trkpt lat="31.7899994" lon="35.0655959">
<ele>576.010010</ele>
<time>2018-05-29T17:30:52.000Z</time>
</trkpt>
<trkpt lat="31.7900057" lon="35.0654664">
<ele>576.480042</ele>
<time>2018-05-29T17:30:57.000Z</time>
</trkpt>
<trkpt lat="31.7900080" lon="35.0653472">
<ele>576.959961</ele>
<time>2018-05-29T17:31:01.000Z</time>
</trkpt>
<trkpt lat="31.7900101" lon="35.0652233">
<ele>577.179993</ele>
<time>2018-05-29T17:31:05.000Z</time>
</trkpt>
<trkpt lat="31.7900173" lon="35.0650987">
<ele>577.690002</ele>
<time>2018-05-29T17:31:09.000Z</time>
</trkpt>
<trkpt lat="31.7900329" lon="35.0649795">
<ele>577.470032</ele>
<time>2018-05-29T17:31:13.000Z</time>
</trkpt>
<trkpt lat="31.7900249" lon="35.0648691">
<ele>577.000000</ele>
<time>2018-05-29T17:31:17.000Z</time>
</trkpt>
<trkpt lat="31.7900132" lon="35.0647488">
<ele>577.020020</ele>
<time>2018-05-29T17:31:21.000Z</time>
</trkpt>
<trkpt lat="31.7900042" lon="35.0646259">
<ele>577.089966</ele>
<time>2018-05-29T17:31:25.000Z</time>
</trkpt>
<trkpt lat="31.7899998" lon="35.0645090">
<ele>577.040039</ele>
<time>2018-05-29T17:31:29.000Z</time>
</trkpt>
<trkpt lat="31.7900079" lon="35.0643731">
<ele>577.280029</ele>
<time>2018-05-29T17:31:33.000Z</time>
</trkpt>
<trkpt lat="31.7900137" lon="35.0642622">
<ele>577.250000</ele>
<time>2018-05-29T17:31:36.000Z</time>
</trkpt>
<trkpt lat="31.7900173" lon="35.0641552">
<ele>578.029968</ele>
<time>2018-05-29T17:31:39.000Z</time>
</trkpt>
<trkpt lat="31.7900365" lon="35.0640201">
<ele>578.070007</ele>
<time>2018-05-29T17:31:43.000Z</time>
</trkpt>
<trkpt lat="31.7900552" lon="35.0638992">
<ele>578.890015</ele>
<time>2018-05-29T17:31:47.000Z</time>
</trkpt>
<trkpt lat="31.7900844" lon="35.0637895">
<ele>579.539978</ele>
<time>2018-05-29T17:31:51.000Z</time>
</trkpt>
<trkpt lat="31.7901117" lon="35.0636792">
<ele>580.219971</ele>
<time>2018-05-29T17:31:55.000Z</time>
</trkpt>
<trkpt lat="31.7901502" lon="35.0635725">
<ele>581.140015</ele>
<time>2018-05-29T17:31:59.000Z</time>
</trkpt>
<trkpt lat="31.7901856" lon="35.0634639">
<ele>581.229980</ele>
<time>2018-05-29T17:32:03.000Z</time>
</trkpt>
<trkpt lat="31.7902097" lon="35.0633551">
<ele>581.619995</ele>
<time>2018-05-29T17:32:07.000Z</time>
</trkpt>
<trkpt lat="31.7902379" lon="35.0632250">
<ele>581.940002</ele>
<time>2018-05-29T17:32:12.000Z</time>
</trkpt>
<trkpt lat="31.7902486" lon="35.0631147">
<ele>582.710022</ele>
<time>2018-05-29T17:32:16.000Z</time>
</trkpt>
<trkpt lat="31.7902506" lon="35.0630050">
<ele>583.410034</ele>
<time>2018-05-29T17:32:20.000Z</time>
</trkpt>
<trkpt lat="31.7902333" lon="35.0629008">
<ele>583.789978</ele>
<time>2018-05-29T17:32:24.000Z</time>
</trkpt>
<trkpt lat="31.7902027" lon="35.0627759">
<ele>584.070007</ele>
<time>2018-05-29T17:32:29.000Z</time>
</trkpt>
<trkpt lat="31.7901727" lon="35.0626521">
<ele>584.790039</ele>
<time>2018-05-29T17:32:34.000Z</time>
</trkpt>
<trkpt lat="31.7901437" lon="35.0625298">
<ele>585.080017</ele>
<time>2018-05-29T17:32:39.000Z</time>
</trkpt>
<trkpt lat="31.7901127" lon="35.0624271">
<ele>584.929993</ele>
<time>2018-05-29T17:32:43.000Z</time>
</trkpt>
<trkpt lat="31.7900757" lon="35.0623227">
<ele>585.659973</ele>
<time>2018-05-29T17:32:47.000Z</time>
</trkpt>
<trkpt lat="31.7900404" lon="35.0622232">
<ele>586.020020</ele>
<time>2018-05-29T17:32:51.000Z</time>
</trkpt>
<trkpt lat="31.7900090" lon="35.0621022">
<ele>586.710022</ele>
<time>2018-05-29T17:32:56.000Z</time>
</trkpt>
<trkpt lat="31.7899839" lon="35.0619941">
<ele>586.760010</ele>
<time>2018-05-29T17:33:00.000Z</time>
</trkpt>
<trkpt lat="31.7899572" lon="35.0618749">
<ele>587.159973</ele>
<time>2018-05-29T17:33:04.000Z</time>
</trkpt>
<trkpt lat="31.7899349" lon="35.0617509">
<ele>587.830017</ele>
<time>2018-05-29T17:33:08.000Z</time>
</trkpt>
<trkpt lat="31.7899188" lon="35.0616270">
<ele>588.359985</ele>
<time>2018-05-29T17:33:12.000Z</time>
</trkpt>
<trkpt lat="31.7899081" lon="35.0615124">
<ele>588.349976</ele>
<time>2018-05-29T17:33:16.000Z</time>
</trkpt>
<trkpt lat="31.7898976" lon="35.0613945">
<ele>588.940002</ele>
<time>2018-05-29T17:33:20.000Z</time>
</trkpt>
<trkpt lat="31.7898895" lon="35.0612649">
<ele>589.190002</ele>
<time>2018-05-29T17:33:24.000Z</time>
</trkpt>
<trkpt lat="31.7898804" lon="35.0611292">
<ele>589.640015</ele>
<time>2018-05-29T17:33:28.000Z</time>
</trkpt>
<trkpt lat="31.7898702" lon="35.0609937">
<ele>590.210022</ele>
<time>2018-05-29T17:33:32.000Z</time>
</trkpt>
<trkpt lat="31.7898576" lon="35.0608865">
<ele>589.849976</ele>
<time>2018-05-29T17:33:35.000Z</time>
</trkpt>
<trkpt lat="31.7898391" lon="35.0607516">
<ele>590.140015</ele>
<time>2018-05-29T17:33:39.000Z</time>
</trkpt>
<trkpt lat="31.7898112" lon="35.0606444">
<ele>590.260010</ele>
<time>2018-05-29T17:33:42.000Z</time>
</trkpt>
<trkpt lat="31.7897800" lon="35.0605329">
<ele>590.679993</ele>
<time>2018-05-29T17:33:45.000Z</time>
</trkpt>
<trkpt lat="31.7897496" lon="35.0603954">
<ele>590.750000</ele>
<time>2018-05-29T17:33:49.000Z</time>
</trkpt>
<trkpt lat="31.7897155" lon="35.0602887">
<ele>590.669983</ele>
<time>2018-05-29T17:33:52.000Z</time>
</trkpt>
<trkpt lat="31.7896751" lon="35.0601764">
<ele>590.380005</ele>
<time>2018-05-29T17:33:55.000Z</time>
</trkpt>
<trkpt lat="31.7896337" lon="35.0600719">
<ele>590.369995</ele>
<time>2018-05-29T17:33:58.000Z</time>
</trkpt>
<trkpt lat="31.7895839" lon="35.0599810">
<ele>589.739990</ele>
<time>2018-05-29T17:34:01.000Z</time>
</trkpt>
<trkpt lat="31.7895145" lon="35.0598816">
<ele>589.410034</ele>
<time>2018-05-29T17:34:04.000Z</time>
</trkpt>
<trkpt lat="31.7894450" lon="35.0597878">
<ele>589.520020</ele>
<time>2018-05-29T17:34:07.000Z</time>
</trkpt>
<trkpt lat="31.7893618" lon="35.0596957">
<ele>588.869995</ele>
<time>2018-05-29T17:34:10.000Z</time>
</trkpt>
<trkpt lat="31.7892682" lon="35.0595965">
<ele>588.470032</ele>
<time>2018-05-29T17:34:13.000Z</time>
</trkpt>
<trkpt lat="31.7891739" lon="35.0594948">
<ele>587.910034</ele>
<time>2018-05-29T17:34:16.000Z</time>
</trkpt>
<trkpt lat="31.7890771" lon="35.0594020">
<ele>587.220032</ele>
<time>2018-05-29T17:34:19.000Z</time>
</trkpt>
<trkpt lat="31.7889833" lon="35.0593001">
<ele>586.889954</ele>
<time>2018-05-29T17:34:22.000Z</time>
</trkpt>
<trkpt lat="31.7888914" lon="35.0592034">
<ele>587.109985</ele>
<time>2018-05-29T17:34:25.000Z</time>
</trkpt>
<trkpt lat="31.7888054" lon="35.0591192">
<ele>586.640015</ele>
<time>2018-05-29T17:34:28.000Z</time>
</trkpt>
<trkpt lat="31.7887332" lon="35.0590365">
<ele>586.549988</ele>
<time>2018-05-29T17:34:32.000Z</time>
</trkpt>
<trkpt lat="31.7886757" lon="35.0589272">
<ele>586.510010</ele>
<time>2018-05-29T17:34:37.000Z</time>
</trkpt>
<trkpt lat="31.7886252" lon="35.0588391">
<ele>585.929993</ele>
<time>2018-05-29T17:34:56.000Z</time>
</trkpt>
<trkpt lat="31.7885764" lon="35.0587230">
<ele>586.330017</ele>
<time>2018-05-29T17:35:01.000Z</time>
</trkpt>
<trkpt lat="31.7885269" lon="35.0586230">
<ele>585.570007</ele>
<time>2018-05-29T17:35:05.000Z</time>
</trkpt>
<trkpt lat="31.7885008" lon="35.0585120">
<ele>585.070007</ele>
<time>2018-05-29T17:35:10.000Z</time>
</trkpt>
<trkpt lat="31.7884675" lon="35.0584120">
<ele>584.190002</ele>
<time>2018-05-29T17:35:14.000Z</time>
</trkpt>
<trkpt lat="31.7884289" lon="35.0582918">
<ele>583.830017</ele>
<time>2018-05-29T17:35:20.000Z</time>
</trkpt>
<trkpt lat="31.7883886" lon="35.0581912">
<ele>583.410034</ele>
<time>2018-05-29T17:35:24.000Z</time>
</trkpt>
<trkpt lat="31.7883525" lon="35.0580620">
<ele>583.450012</ele>
<time>2018-05-29T17:35:28.000Z</time>
</trkpt>
<trkpt lat="31.7883215" lon="35.0579608">
<ele>583.070007</ele>
<time>2018-05-29T17:35:31.000Z</time>
</trkpt>
<trkpt lat="31.7882955" lon="35.0578477">
<ele>583.140015</ele>
<time>2018-05-29T17:35:34.000Z</time>
</trkpt>
<trkpt lat="31.7882782" lon="35.0577185">
<ele>582.260010</ele>
<time>2018-05-29T17:35:37.000Z</time>
</trkpt>
<trkpt lat="31.7882601" lon="35.0575753">
<ele>581.729980</ele>
<time>2018-05-29T17:35:40.000Z</time>
</trkpt>
<trkpt lat="31.7882446" lon="35.0574264">
<ele>581.309998</ele>
<time>2018-05-29T17:35:43.000Z</time>
</trkpt>
<trkpt lat="31.7882361" lon="35.0572822">
<ele>580.179993</ele>
<time>2018-05-29T17:35:46.000Z</time>
</trkpt>
<trkpt lat="31.7882222" lon="35.0571641">
<ele>579.440002</ele>
<time>2018-05-29T17:35:49.000Z</time>
</trkpt>
<trkpt lat="31.7882124" lon="35.0570508">
<ele>579.600037</ele>
<time>2018-05-29T17:35:52.000Z</time>
</trkpt>
<trkpt lat="31.7882038" lon="35.0569445">
<ele>579.149963</ele>
<time>2018-05-29T17:35:55.000Z</time>
</trkpt>
<trkpt lat="31.7881889" lon="35.0568180">
<ele>578.770020</ele>
<time>2018-05-29T17:35:59.000Z</time>
</trkpt>
<trkpt lat="31.7881789" lon="35.0566737">
<ele>577.820007</ele>
<time>2018-05-29T17:36:03.000Z</time>
</trkpt>
<trkpt lat="31.7881755" lon="35.0565528">
<ele>576.940002</ele>
<time>2018-05-29T17:36:06.000Z</time>
</trkpt>
<trkpt lat="31.7881908" lon="35.0564249">
<ele>576.500000</ele>
<time>2018-05-29T17:36:09.000Z</time>
</trkpt>
<trkpt lat="31.7882368" lon="35.0562988">
<ele>575.809998</ele>
<time>2018-05-29T17:36:12.000Z</time>
</trkpt>
<trkpt lat="31.7882883" lon="35.0561744">
<ele>575.789978</ele>
<time>2018-05-29T17:36:15.000Z</time>
</trkpt>
<trkpt lat="31.7883327" lon="35.0560475">
<ele>575.160034</ele>
<time>2018-05-29T17:36:18.000Z</time>
</trkpt>
<trkpt lat="31.7883633" lon="35.0559250">
<ele>574.219971</ele>
<time>2018-05-29T17:36:21.000Z</time>
</trkpt>
<trkpt lat="31.7883767" lon="35.0558029">
<ele>573.409973</ele>
<time>2018-05-29T17:36:24.000Z</time>
</trkpt>
<trkpt lat="31.7883879" lon="35.0557004">
<ele>573.169983</ele>
<time>2018-05-29T17:36:27.000Z</time>
</trkpt>
<trkpt lat="31.7884077" lon="35.0555645">
<ele>571.760010</ele>
<time>2018-05-29T17:36:31.000Z</time>
</trkpt>
<trkpt lat="31.7884524" lon="35.0554374">
<ele>570.200012</ele>
<time>2018-05-29T17:36:35.000Z</time>
</trkpt>
<trkpt lat="31.7885095" lon="35.0553546">
<ele>569.929993</ele>
<time>2018-05-29T17:36:39.000Z</time>
</trkpt>
<trkpt lat="31.7886063" lon="35.0553013">
<ele>569.710022</ele>
<time>2018-05-29T17:36:43.000Z</time>
</trkpt>
<trkpt lat="31.7887134" lon="35.0552492">
<ele>569.840027</ele>
<time>2018-05-29T17:36:47.000Z</time>
</trkpt>
<trkpt lat="31.7888222" lon="35.0552331">
<ele>570.469971</ele>
<time>2018-05-29T17:36:51.000Z</time>
</trkpt>
<trkpt lat="31.7889290" lon="35.0552258">
<ele>570.900024</ele>
<time>2018-05-29T17:36:55.000Z</time>
</trkpt>
<trkpt lat="31.7890448" lon="35.0552315">
<ele>570.790039</ele>
<time>2018-05-29T17:36:59.000Z</time>
</trkpt>
<trkpt lat="31.7891460" lon="35.0552421">
<ele>570.459961</ele>
<time>2018-05-29T17:37:02.000Z</time>
</trkpt>
<trkpt lat="31.7892413" lon="35.0552640">
<ele>571.140015</ele>
<time>2018-05-29T17:37:05.000Z</time>
</trkpt>
<trkpt lat="31.7893630" lon="35.0552963">
<ele>571.220032</ele>
<time>2018-05-29T17:37:09.000Z</time>
</trkpt>
<trkpt lat="31.7894612" lon="35.0553247">
<ele>571.229980</ele>
<time>2018-05-29T17:37:12.000Z</time>
</trkpt>
<trkpt lat="31.7895624" lon="35.0553586">
<ele>571.510010</ele>
<time>2018-05-29T17:37:15.000Z</time>
</trkpt>
<trkpt lat="31.7896610" lon="35.0553778">
<ele>571.080017</ele>
<time>2018-05-29T17:37:18.000Z</time>
</trkpt>
<trkpt lat="31.7897561" lon="35.0553903">
<ele>570.479980</ele>
<time>2018-05-29T17:37:21.000Z</time>
</trkpt>
<trkpt lat="31.7898763" lon="35.0554048">
<ele>570.599976</ele>
<time>2018-05-29T17:37:25.000Z</time>
</trkpt>
<trkpt lat="31.7899955" lon="35.0554353">
<ele>570.419983</ele>
<time>2018-05-29T17:37:29.000Z</time>
</trkpt>
<trkpt lat="31.7901007" lon="35.0554648">
<ele>570.210022</ele>
<time>2018-05-29T17:37:32.000Z</time>
</trkpt>
<trkpt lat="31.7901999" lon="35.0554797">
<ele>569.750000</ele>
<time>2018-05-29T17:37:35.000Z</time>
</trkpt>
<trkpt lat="31.7902877" lon="35.0554471">
<ele>569.929993</ele>
<time>2018-05-29T17:37:39.000Z</time>
</trkpt>
<trkpt lat="31.7903301" lon="35.0553418">
<ele>569.700012</ele>
<time>2018-05-29T17:37:45.000Z</time>
</trkpt>
<trkpt lat="31.7902926" lon="35.0552140">
<ele>569.089966</ele>
<time>2018-05-29T17:37:52.000Z</time>
</trkpt>
<trkpt lat="31.7902226" lon="35.0550945">
<ele>568.580017</ele>
<time>2018-05-29T17:37:57.000Z</time>
</trkpt>
<trkpt lat="31.7901587" lon="35.0550013">
<ele>568.299988</ele>
<time>2018-05-29T17:38:01.000Z</time>
</trkpt>
<trkpt lat="31.7900879" lon="35.0549012">
<ele>567.790039</ele>
<time>2018-05-29T17:38:05.000Z</time>
</trkpt>
<trkpt lat="31.7900235" lon="35.0548117">
<ele>566.500000</ele>
<time>2018-05-29T17:38:09.000Z</time>
</trkpt>
<trkpt lat="31.7899508" lon="35.0547162">
<ele>566.299988</ele>
<time>2018-05-29T17:38:12.000Z</time>
</trkpt>
<trkpt lat="31.7898786" lon="35.0546062">
<ele>565.959961</ele>
<time>2018-05-29T17:38:15.000Z</time>
</trkpt>
<trkpt lat="31.7897999" lon="35.0544670">
<ele>565.159973</ele>
<time>2018-05-29T17:38:18.000Z</time>
</trkpt>
<trkpt lat="31.7897385" lon="35.0543696">
<ele>564.780029</ele>
<time>2018-05-29T17:38:20.000Z</time>
</trkpt>
<trkpt lat="31.7896764" lon="35.0542802">
<ele>564.530029</ele>
<time>2018-05-29T17:38:22.000Z</time>
</trkpt>
<trkpt lat="31.7896190" lon="35.0541945">
<ele>564.599976</ele>
<time>2018-05-29T17:38:24.000Z</time>
</trkpt>
<trkpt lat="31.7895500" lon="35.0540663">
<ele>563.809998</ele>
<time>2018-05-29T17:38:27.000Z</time>
</trkpt>
<trkpt lat="31.7894935" lon="35.0539594">
<ele>564.090027</ele>
<time>2018-05-29T17:38:30.000Z</time>
</trkpt>
<trkpt lat="31.7894336" lon="35.0538438">
<ele>563.539978</ele>
<time>2018-05-29T17:38:33.000Z</time>
</trkpt>
<trkpt lat="31.7893695" lon="35.0537187">
<ele>563.369995</ele>
<time>2018-05-29T17:38:36.000Z</time>
</trkpt>
<trkpt lat="31.7893066" lon="35.0535850">
<ele>562.900024</ele>
<time>2018-05-29T17:38:39.000Z</time>
</trkpt>
<trkpt lat="31.7892479" lon="35.0534449">
<ele>562.589966</ele>
<time>2018-05-29T17:38:42.000Z</time>
</trkpt>
<trkpt lat="31.7892118" lon="35.0533090">
<ele>562.409973</ele>
<time>2018-05-29T17:38:45.000Z</time>
</trkpt>
<trkpt lat="31.7891945" lon="35.0531611">
<ele>561.520020</ele>
<time>2018-05-29T17:38:48.000Z</time>
</trkpt>
<trkpt lat="31.7892167" lon="35.0530265">
<ele>562.250000</ele>
<time>2018-05-29T17:38:51.000Z</time>
</trkpt>
<trkpt lat="31.7892532" lon="35.0529077">
<ele>561.290039</ele>
<time>2018-05-29T17:38:54.000Z</time>
</trkpt>
<trkpt lat="31.7893061" lon="35.0527982">
<ele>561.349976</ele>
<time>2018-05-29T17:38:57.000Z</time>
</trkpt>
<trkpt lat="31.7893863" lon="35.0526961">
<ele>560.820007</ele>
<time>2018-05-29T17:39:00.000Z</time>
</trkpt>
<trkpt lat="31.7894890" lon="35.0526329">
<ele>561.020020</ele>
<time>2018-05-29T17:39:03.000Z</time>
</trkpt>
<trkpt lat="31.7895830" lon="35.0526151">
<ele>560.890015</ele>
<time>2018-05-29T17:39:06.000Z</time>
</trkpt>
<trkpt lat="31.7896697" lon="35.0525787">
<ele>561.119995</ele>
<time>2018-05-29T17:39:09.000Z</time>
</trkpt>
<trkpt lat="31.7897705" lon="35.0525372">
<ele>561.330017</ele>
<time>2018-05-29T17:39:13.000Z</time>
</trkpt>
<trkpt lat="31.7898910" lon="35.0524977">
<ele>561.070007</ele>
<time>2018-05-29T17:39:17.000Z</time>
</trkpt>
<trkpt lat="31.7899750" lon="35.0524527">
<ele>561.099976</ele>
<time>2018-05-29T17:39:20.000Z</time>
</trkpt>
<trkpt lat="31.7900717" lon="35.0524257">
<ele>561.160034</ele>
<time>2018-05-29T17:39:23.000Z</time>
</trkpt>
<trkpt lat="31.7901708" lon="35.0523854">
<ele>560.700012</ele>
<time>2018-05-29T17:39:26.000Z</time>
</trkpt>
<trkpt lat="31.7902670" lon="35.0523457">
<ele>561.130005</ele>
<time>2018-05-29T17:39:29.000Z</time>
</trkpt>
<trkpt lat="31.7903585" lon="35.0523092">
<ele>560.960022</ele>
<time>2018-05-29T17:39:32.000Z</time>
</trkpt>
<trkpt lat="31.7904530" lon="35.0522678">
<ele>560.989990</ele>
<time>2018-05-29T17:39:35.000Z</time>
</trkpt>
<trkpt lat="31.7905418" lon="35.0522142">
<ele>561.339966</ele>
<time>2018-05-29T17:39:38.000Z</time>
</trkpt>
<trkpt lat="31.7906198" lon="35.0521299">
<ele>560.510010</ele>
<time>2018-05-29T17:39:41.000Z</time>
</trkpt>
<trkpt lat="31.7906358" lon="35.0520218">
<ele>560.640015</ele>
<time>2018-05-29T17:39:44.000Z</time>
</trkpt>
<trkpt lat="31.7905954" lon="35.0519193">
<ele>560.229980</ele>
<time>2018-05-29T17:39:47.000Z</time>
</trkpt>
<trkpt lat="31.7905331" lon="35.0518220">
<ele>560.460022</ele>
<time>2018-05-29T17:39:50.000Z</time>
</trkpt>
<trkpt lat="31.7904789" lon="35.0517098">
<ele>560.559998</ele>
<time>2018-05-29T17:39:53.000Z</time>
</trkpt>
<trkpt lat="31.7904253" lon="35.0515913">
<ele>560.460022</ele>
<time>2018-05-29T17:39:56.000Z</time>
</trkpt>
<trkpt lat="31.7903805" lon="35.0514839">
<ele>559.920044</ele>
<time>2018-05-29T17:39:59.000Z</time>
</trkpt>
<trkpt lat="31.7903421" lon="35.0513845">
<ele>560.289978</ele>
<time>2018-05-29T17:40:02.000Z</time>
</trkpt>
<trkpt lat="31.7902855" lon="35.0512567">
<ele>559.920044</ele>
<time>2018-05-29T17:40:06.000Z</time>
</trkpt>
<trkpt lat="31.7902499" lon="35.0511569">
<ele>559.839966</ele>
<time>2018-05-29T17:40:09.000Z</time>
</trkpt>
<trkpt lat="31.7901952" lon="35.0510574">
<ele>559.690002</ele>
<time>2018-05-29T17:40:12.000Z</time>
</trkpt>
<trkpt lat="31.7900993" lon="35.0509611">
<ele>558.739990</ele>
<time>2018-05-29T17:40:15.000Z</time>
</trkpt>
<trkpt lat="31.7899779" lon="35.0508957">
<ele>558.679993</ele>
<time>2018-05-29T17:40:18.000Z</time>
</trkpt>
<trkpt lat="31.7898574" lon="35.0508608">
<ele>557.700012</ele>
<time>2018-05-29T17:40:21.000Z</time>
</trkpt>
<trkpt lat="31.7897312" lon="35.0508352">
<ele>557.159973</ele>
<time>2018-05-29T17:40:24.000Z</time>
</trkpt>
<trkpt lat="31.7896333" lon="35.0507991">
<ele>556.780029</ele>
<time>2018-05-29T17:40:26.000Z</time>
</trkpt>
<trkpt lat="31.7895314" lon="35.0507593">
<ele>556.450012</ele>
<time>2018-05-29T17:40:28.000Z</time>
</trkpt>
<trkpt lat="31.7894308" lon="35.0507119">
<ele>556.339966</ele>
<time>2018-05-29T17:40:30.000Z</time>
</trkpt>
<trkpt lat="31.7893376" lon="35.0506513">
<ele>555.400024</ele>
<time>2018-05-29T17:40:32.000Z</time>
</trkpt>
<trkpt lat="31.7892625" lon="35.0505761">
<ele>554.869995</ele>
<time>2018-05-29T17:40:34.000Z</time>
</trkpt>
<trkpt lat="31.7891935" lon="35.0504920">
<ele>554.710022</ele>
<time>2018-05-29T17:40:36.000Z</time>
</trkpt>
<trkpt lat="31.7891435" lon="35.0504001">
<ele>554.330017</ele>
<time>2018-05-29T17:40:38.000Z</time>
</trkpt>
<trkpt lat="31.7890806" lon="35.0502820">
<ele>554.149963</ele>
<time>2018-05-29T17:40:41.000Z</time>
</trkpt>
<trkpt lat="31.7890352" lon="35.0501691">
<ele>554.000000</ele>
<time>2018-05-29T17:40:44.000Z</time>
</trkpt>
<trkpt lat="31.7890018" lon="35.0500535">
<ele>553.790039</ele>
<time>2018-05-29T17:40:47.000Z</time>
</trkpt>
<trkpt lat="31.7889592" lon="35.0499287">
<ele>553.840027</ele>
<time>2018-05-29T17:40:50.000Z</time>
</trkpt>
<trkpt lat="31.7889598" lon="35.0497971">
<ele>553.830017</ele>
<time>2018-05-29T17:40:53.000Z</time>
</trkpt>
<trkpt lat="31.7889752" lon="35.0496661">
<ele>553.869995</ele>
<time>2018-05-29T17:40:56.000Z</time>
</trkpt>
<trkpt lat="31.7890064" lon="35.0495311">
<ele>553.859985</ele>
<time>2018-05-29T17:40:59.000Z</time>
</trkpt>
<trkpt lat="31.7890424" lon="35.0494007">
<ele>553.559998</ele>
<time>2018-05-29T17:41:02.000Z</time>
</trkpt>
<trkpt lat="31.7890776" lon="35.0492714">
<ele>553.159973</ele>
<time>2018-05-29T17:41:05.000Z</time>
</trkpt>
<trkpt lat="31.7891176" lon="35.0491379">
<ele>553.270020</ele>
<time>2018-05-29T17:41:08.000Z</time>
</trkpt>
<trkpt lat="31.7891617" lon="35.0490072">
<ele>553.299988</ele>
<time>2018-05-29T17:41:11.000Z</time>
</trkpt>
<trkpt lat="31.7892063" lon="35.0488965">
<ele>553.010010</ele>
<time>2018-05-29T17:41:14.000Z</time>
</trkpt>
<trkpt lat="31.7892491" lon="35.0487876">
<ele>552.679993</ele>
<time>2018-05-29T17:41:17.000Z</time>
</trkpt>
<trkpt lat="31.7892864" lon="35.0486752">
<ele>552.659973</ele>
<time>2018-05-29T17:41:20.000Z</time>
</trkpt>
<trkpt lat="31.7893432" lon="35.0485609">
<ele>553.109985</ele>
<time>2018-05-29T17:41:24.000Z</time>
</trkpt>
<trkpt lat="31.7894001" lon="35.0484311">
<ele>553.209961</ele>
<time>2018-05-29T17:41:28.000Z</time>
</trkpt>
<trkpt lat="31.7894454" lon="35.0483173">
<ele>553.289978</ele>
<time>2018-05-29T17:41:31.000Z</time>
</trkpt>
<trkpt lat="31.7894830" lon="35.0481870">
<ele>553.520020</ele>
<time>2018-05-29T17:41:34.000Z</time>
</trkpt>
<trkpt lat="31.7895172" lon="35.0480641">
<ele>554.010010</ele>
<time>2018-05-29T17:41:37.000Z</time>
</trkpt>
<trkpt lat="31.7895400" lon="35.0479458">
<ele>553.690002</ele>
<time>2018-05-29T17:41:40.000Z</time>
</trkpt>
<trkpt lat="31.7895379" lon="35.0478163">
<ele>553.589966</ele>
<time>2018-05-29T17:41:43.000Z</time>
</trkpt>
<trkpt lat="31.7895059" lon="35.0476926">
<ele>553.650024</ele>
<time>2018-05-29T17:41:46.000Z</time>
</trkpt>
<trkpt lat="31.7894498" lon="35.0475665">
<ele>553.049988</ele>
<time>2018-05-29T17:41:49.000Z</time>
</trkpt>
<trkpt lat="31.7893831" lon="35.0474392">
<ele>553.500000</ele>
<time>2018-05-29T17:41:53.000Z</time>
</trkpt>
<trkpt lat="31.7893154" lon="35.0473492">
<ele>553.770020</ele>
<time>2018-05-29T17:41:57.000Z</time>
</trkpt>
<trkpt lat="31.7892318" lon="35.0472532">
<ele>553.609985</ele>
<time>2018-05-29T17:42:01.000Z</time>
</trkpt>
<trkpt lat="31.7891632" lon="35.0471688">
<ele>553.750000</ele>
<time>2018-05-29T17:42:04.000Z</time>
</trkpt>
<trkpt lat="31.7890905" lon="35.0470885">
<ele>553.729980</ele>
<time>2018-05-29T17:42:07.000Z</time>
</trkpt>
<trkpt lat="31.7889932" lon="35.0469931">
<ele>553.950012</ele>
<time>2018-05-29T17:42:11.000Z</time>
</trkpt>
<trkpt lat="31.7889025" lon="35.0468972">
<ele>553.880005</ele>
<time>2018-05-29T17:42:15.000Z</time>
</trkpt>
<trkpt lat="31.7888299" lon="35.0468180">
<ele>553.219971</ele>
<time>2018-05-29T17:42:19.000Z</time>
</trkpt>
<trkpt lat="31.7887510" lon="35.0467398">
<ele>552.750000</ele>
<time>2018-05-29T17:42:23.000Z</time>
</trkpt>
<trkpt lat="31.7886545" lon="35.0466655">
<ele>552.190002</ele>
<time>2018-05-29T17:42:27.000Z</time>
</trkpt>
<trkpt lat="31.7885543" lon="35.0466250">
<ele>552.599976</ele>
<time>2018-05-29T17:43:15.000Z</time>
</trkpt>
<trkpt lat="31.7884754" lon="35.0465448">
<ele>552.690002</ele>
<time>2018-05-29T17:43:20.000Z</time>
</trkpt>
<trkpt lat="31.7884192" lon="35.0464563">
<ele>553.849976</ele>
<time>2018-05-29T17:43:24.000Z</time>
</trkpt>
<trkpt lat="31.7884065" lon="35.0463415">
<ele>554.600037</ele>
<time>2018-05-29T17:43:29.000Z</time>
</trkpt>
<trkpt lat="31.7884370" lon="35.0462198">
<ele>555.570007</ele>
<time>2018-05-29T17:43:35.000Z</time>
</trkpt>
<trkpt lat="31.7884743" lon="35.0461080">
<ele>555.280029</ele>
<time>2018-05-29T17:43:39.000Z</time>
</trkpt>
<trkpt lat="31.7885199" lon="35.0459895">
<ele>554.929993</ele>
<time>2018-05-29T17:43:43.000Z</time>
</trkpt>
<trkpt lat="31.7885672" lon="35.0458883">
<ele>554.340027</ele>
<time>2018-05-29T17:43:46.000Z</time>
</trkpt>
<trkpt lat="31.7886216" lon="35.0457867">
<ele>554.529968</ele>
<time>2018-05-29T17:43:49.000Z</time>
</trkpt>
<trkpt lat="31.7886865" lon="35.0457071">
<ele>554.239990</ele>
<time>2018-05-29T17:43:52.000Z</time>
</trkpt>
<trkpt lat="31.7887545" lon="35.0456266">
<ele>553.830017</ele>
<time>2018-05-29T17:43:55.000Z</time>
</trkpt>
<trkpt lat="31.7888322" lon="35.0455338">
<ele>553.890015</ele>
<time>2018-05-29T17:43:58.000Z</time>
</trkpt>
<trkpt lat="31.7889170" lon="35.0454490">
<ele>554.000000</ele>
<time>2018-05-29T17:44:01.000Z</time>
</trkpt>
<trkpt lat="31.7889925" lon="35.0453666">
<ele>554.299988</ele>
<time>2018-05-29T17:44:04.000Z</time>
</trkpt>
<trkpt lat="31.7890555" lon="35.0452785">
<ele>554.169983</ele>
<time>2018-05-29T17:44:07.000Z</time>
</trkpt>
<trkpt lat="31.7891095" lon="35.0451816">
<ele>554.049988</ele>
<time>2018-05-29T17:44:10.000Z</time>
</trkpt>
<trkpt lat="31.7891665" lon="35.0450851">
<ele>554.299988</ele>
<time>2018-05-29T17:44:13.000Z</time>
</trkpt>
<trkpt lat="31.7892254" lon="35.0449859">
<ele>554.109985</ele>
<time>2018-05-29T17:44:16.000Z</time>
</trkpt>
<trkpt lat="31.7892739" lon="35.0448745">
<ele>553.570007</ele>
<time>2018-05-29T17:44:19.000Z</time>
</trkpt>
<trkpt lat="31.7893045" lon="35.0447542">
<ele>553.510010</ele>
<time>2018-05-29T17:44:22.000Z</time>
</trkpt>
<trkpt lat="31.7893314" lon="35.0446176">
<ele>553.200012</ele>
<time>2018-05-29T17:44:25.000Z</time>
</trkpt>
<trkpt lat="31.7893542" lon="35.0444845">
<ele>553.400024</ele>
<time>2018-05-29T17:44:28.000Z</time>
</trkpt>
<trkpt lat="31.7893928" lon="35.0443493">
<ele>553.119995</ele>
<time>2018-05-29T17:44:31.000Z</time>
</trkpt>
<trkpt lat="31.7894257" lon="35.0442128">
<ele>553.270020</ele>
<time>2018-05-29T17:44:34.000Z</time>
</trkpt>
<trkpt lat="31.7894603" lon="35.0440912">
<ele>553.029968</ele>
<time>2018-05-29T17:44:37.000Z</time>
</trkpt>
<trkpt lat="31.7895003" lon="35.0439476">
<ele>553.410034</ele>
<time>2018-05-29T17:44:40.000Z</time>
</trkpt>
<trkpt lat="31.7895507" lon="35.0438072">
<ele>554.109985</ele>
<time>2018-05-29T17:44:43.000Z</time>
</trkpt>
<trkpt lat="31.7895896" lon="35.0437017">
<ele>554.849976</ele>
<time>2018-05-29T17:44:46.000Z</time>
</trkpt>
<trkpt lat="31.7896034" lon="35.0435800">
<ele>554.099976</ele>
<time>2018-05-29T17:44:50.000Z</time>
</trkpt>
<trkpt lat="31.7895788" lon="35.0434420">
<ele>552.659973</ele>
<time>2018-05-29T17:44:54.000Z</time>
</trkpt>
<trkpt lat="31.7895381" lon="35.0433184">
<ele>552.549988</ele>
<time>2018-05-29T17:44:57.000Z</time>
</trkpt>
<trkpt lat="31.7894820" lon="35.0432263">
<ele>552.089966</ele>
<time>2018-05-29T17:45:00.000Z</time>
</trkpt>
<trkpt lat="31.7893976" lon="35.0431336">
<ele>551.539978</ele>
<time>2018-05-29T17:45:03.000Z</time>
</trkpt>
<trkpt lat="31.7892860" lon="35.0430498">
<ele>550.919983</ele>
<time>2018-05-29T17:45:06.000Z</time>
</trkpt>
<trkpt lat="31.7891664" lon="35.0429857">
<ele>550.570007</ele>
<time>2018-05-29T17:45:09.000Z</time>
</trkpt>
<trkpt lat="31.7890444" lon="35.0429336">
<ele>550.119995</ele>
<time>2018-05-29T17:45:12.000Z</time>
</trkpt>
<trkpt lat="31.7889206" lon="35.0428817">
<ele>549.130005</ele>
<time>2018-05-29T17:45:15.000Z</time>
</trkpt>
<trkpt lat="31.7887917" lon="35.0428243">
<ele>549.190002</ele>
<time>2018-05-29T17:45:18.000Z</time>
</trkpt>
<trkpt lat="31.7886733" lon="35.0427753">
<ele>548.929993</ele>
<time>2018-05-29T17:45:21.000Z</time>
</trkpt>
<trkpt lat="31.7885539" lon="35.0427204">
<ele>548.340027</ele>
<time>2018-05-29T17:45:24.000Z</time>
</trkpt>
<trkpt lat="31.7884458" lon="35.0426318">
<ele>547.960022</ele>
<time>2018-05-29T17:45:27.000Z</time>
</trkpt>
<trkpt lat="31.7883715" lon="35.0425649">
<ele>547.700012</ele>
<time>2018-05-29T17:45:29.000Z</time>
</trkpt>
<trkpt lat="31.7882799" lon="35.0424730">
<ele>546.099976</ele>
<time>2018-05-29T17:45:31.000Z</time>
</trkpt>
<trkpt lat="31.7881994" lon="35.0424124">
<ele>546.169983</ele>
<time>2018-05-29T17:45:33.000Z</time>
</trkpt>
<trkpt lat="31.7881136" lon="35.0423559">
<ele>545.020020</ele>
<time>2018-05-29T17:45:35.000Z</time>
</trkpt>
<trkpt lat="31.7880484" lon="35.0422791">
<ele>544.679993</ele>
<time>2018-05-29T17:45:37.000Z</time>
</trkpt>
<trkpt lat="31.7879647" lon="35.0421457">
<ele>544.500000</ele>
<time>2018-05-29T17:45:40.000Z</time>
</trkpt>
<trkpt lat="31.7879002" lon="35.0420094">
<ele>544.349976</ele>
<time>2018-05-29T17:45:43.000Z</time>
</trkpt>
<trkpt lat="31.7878465" lon="35.0418727">
<ele>543.919983</ele>
<time>2018-05-29T17:45:46.000Z</time>
</trkpt>
<trkpt lat="31.7878137" lon="35.0417301">
<ele>544.710022</ele>
<time>2018-05-29T17:45:49.000Z</time>
</trkpt>
<trkpt lat="31.7878003" lon="35.0415805">
<ele>544.489990</ele>
<time>2018-05-29T17:45:52.000Z</time>
</trkpt>
<trkpt lat="31.7877945" lon="35.0414186">
<ele>544.440002</ele>
<time>2018-05-29T17:45:55.000Z</time>
</trkpt>
<trkpt lat="31.7877952" lon="35.0413019">
<ele>543.619995</ele>
<time>2018-05-29T17:45:57.000Z</time>
</trkpt>
<trkpt lat="31.7877857" lon="35.0411836">
<ele>543.049988</ele>
<time>2018-05-29T17:45:59.000Z</time>
</trkpt>
<trkpt lat="31.7877717" lon="35.0410651">
<ele>542.809998</ele>
<time>2018-05-29T17:46:01.000Z</time>
</trkpt>
<trkpt lat="31.7877490" lon="35.0409350">
<ele>541.559998</ele>
<time>2018-05-29T17:46:03.000Z</time>
</trkpt>
<trkpt lat="31.7877283" lon="35.0407888">
<ele>540.289978</ele>
<time>2018-05-29T17:46:05.000Z</time>
</trkpt>
<trkpt lat="31.7876999" lon="35.0406372">
<ele>538.980042</ele>
<time>2018-05-29T17:46:07.000Z</time>
</trkpt>
<trkpt lat="31.7876719" lon="35.0404780">
<ele>538.179993</ele>
<time>2018-05-29T17:46:09.000Z</time>
</trkpt>
<trkpt lat="31.7876460" lon="35.0403237">
<ele>537.640015</ele>
<time>2018-05-29T17:46:11.000Z</time>
</trkpt>
<trkpt lat="31.7876234" lon="35.0401888">
<ele>536.830017</ele>
<time>2018-05-29T17:46:13.000Z</time>
</trkpt>
<trkpt lat="31.7876074" lon="35.0400388">
<ele>536.679993</ele>
<time>2018-05-29T17:46:16.000Z</time>
</trkpt>
<trkpt lat="31.7875791" lon="35.0398887">
<ele>536.559998</ele>
<time>2018-05-29T17:46:19.000Z</time>
</trkpt>
<trkpt lat="31.7875539" lon="35.0397773">
<ele>536.609985</ele>
<time>2018-05-29T17:46:21.000Z</time>
</trkpt>
<trkpt lat="31.7875155" lon="35.0396585">
<ele>536.179993</ele>
<time>2018-05-29T17:46:23.000Z</time>
</trkpt>
<trkpt lat="31.7874702" lon="35.0395434">
<ele>536.030029</ele>
<time>2018-05-29T17:46:25.000Z</time>
</trkpt>
<trkpt lat="31.7874212" lon="35.0394292">
<ele>535.750000</ele>
<time>2018-05-29T17:46:27.000Z</time>
</trkpt>
<trkpt lat="31.7873706" lon="35.0393153">
<ele>535.269958</ele>
<time>2018-05-29T17:46:29.000Z</time>
</trkpt>
<trkpt lat="31.7873122" lon="35.0392071">
<ele>534.570007</ele>
<time>2018-05-29T17:46:31.000Z</time>
</trkpt>
<trkpt lat="31.7872419" lon="35.0391026">
<ele>534.530029</ele>
<time>2018-05-29T17:46:33.000Z</time>
</trkpt>
<trkpt lat="31.7871668" lon="35.0390092">
<ele>534.179993</ele>
<time>2018-05-29T17:46:35.000Z</time>
</trkpt>
<trkpt lat="31.7870910" lon="35.0389196">
<ele>534.130005</ele>
<time>2018-05-29T17:46:37.000Z</time>
</trkpt>
<trkpt lat="31.7870127" lon="35.0388362">
<ele>533.789978</ele>
<time>2018-05-29T17:46:39.000Z</time>
</trkpt>
<trkpt lat="31.7869384" lon="35.0387438">
<ele>533.540039</ele>
<time>2018-05-29T17:46:41.000Z</time>
</trkpt>
<trkpt lat="31.7868823" lon="35.0386587">
<ele>534.429993</ele>
<time>2018-05-29T17:46:43.000Z</time>
</trkpt>
<trkpt lat="31.7867853" lon="35.0385348">
<ele>533.799988</ele>
<time>2018-05-29T17:46:46.000Z</time>
</trkpt>
<trkpt lat="31.7866953" lon="35.0384315">
<ele>534.029968</ele>
<time>2018-05-29T17:46:49.000Z</time>
</trkpt>
<trkpt lat="31.7865933" lon="35.0383406">
<ele>533.890015</ele>
<time>2018-05-29T17:46:52.000Z</time>
</trkpt>
<trkpt lat="31.7865129" lon="35.0382801">
<ele>533.450012</ele>
<time>2018-05-29T17:46:54.000Z</time>
</trkpt>
<trkpt lat="31.7864196" lon="35.0382135">
<ele>533.049988</ele>
<time>2018-05-29T17:46:56.000Z</time>
</trkpt>
<trkpt lat="31.7863202" lon="35.0381420">
<ele>532.539978</ele>
<time>2018-05-29T17:46:58.000Z</time>
</trkpt>
<trkpt lat="31.7862167" lon="35.0380749">
<ele>531.979980</ele>
<time>2018-05-29T17:47:00.000Z</time>
</trkpt>
<trkpt lat="31.7861207" lon="35.0380071">
<ele>532.139954</ele>
<time>2018-05-29T17:47:02.000Z</time>
</trkpt>
<trkpt lat="31.7860206" lon="35.0379504">
<ele>531.289978</ele>
<time>2018-05-29T17:47:04.000Z</time>
</trkpt>
<trkpt lat="31.7859144" lon="35.0378933">
<ele>531.080017</ele>
<time>2018-05-29T17:47:06.000Z</time>
</trkpt>
<trkpt lat="31.7858070" lon="35.0378239">
<ele>530.750000</ele>
<time>2018-05-29T17:47:08.000Z</time>
</trkpt>
<trkpt lat="31.7857018" lon="35.0377496">
<ele>530.160034</ele>
<time>2018-05-29T17:47:10.000Z</time>
</trkpt>
<trkpt lat="31.7855997" lon="35.0376893">
<ele>530.590027</ele>
<time>2018-05-29T17:47:12.000Z</time>
</trkpt>
<trkpt lat="31.7855071" lon="35.0376327">
<ele>530.690002</ele>
<time>2018-05-29T17:47:14.000Z</time>
</trkpt>
<trkpt lat="31.7854122" lon="35.0375811">
<ele>530.299988</ele>
<time>2018-05-29T17:47:16.000Z</time>
</trkpt>
<trkpt lat="31.7853081" lon="35.0375397">
<ele>530.330017</ele>
<time>2018-05-29T17:47:18.000Z</time>
</trkpt>
<trkpt lat="31.7852231" lon="35.0375074">
<ele>530.109985</ele>
<time>2018-05-29T17:47:20.000Z</time>
</trkpt>
<trkpt lat="31.7851295" lon="35.0374656">
<ele>529.969971</ele>
<time>2018-05-29T17:47:22.000Z</time>
</trkpt>
<trkpt lat="31.7850323" lon="35.0374363">
<ele>529.729980</ele>
<time>2018-05-29T17:47:24.000Z</time>
</trkpt>
<trkpt lat="31.7849326" lon="35.0374165">
<ele>529.750000</ele>
<time>2018-05-29T17:47:26.000Z</time>
</trkpt>
<trkpt lat="31.7848325" lon="35.0373983">
<ele>529.489990</ele>
<time>2018-05-29T17:47:28.000Z</time>
</trkpt>
<trkpt lat="31.7847272" lon="35.0373825">
<ele>529.330017</ele>
<time>2018-05-29T17:47:30.000Z</time>
</trkpt>
<trkpt lat="31.7846088" lon="35.0373657">
<ele>529.959961</ele>
<time>2018-05-29T17:47:33.000Z</time>
</trkpt>
<trkpt lat="31.7844957" lon="35.0373665">
<ele>528.700012</ele>
<time>2018-05-29T17:47:36.000Z</time>
</trkpt>
<trkpt lat="31.7843782" lon="35.0373775">
<ele>529.480042</ele>
<time>2018-05-29T17:47:39.000Z</time>
</trkpt>
<trkpt lat="31.7842539" lon="35.0373914">
<ele>529.190002</ele>
<time>2018-05-29T17:47:42.000Z</time>
</trkpt>
<trkpt lat="31.7841387" lon="35.0373898">
<ele>529.839966</ele>
<time>2018-05-29T17:47:45.000Z</time>
</trkpt>
<trkpt lat="31.7840249" lon="35.0373807">
<ele>530.150024</ele>
<time>2018-05-29T17:47:48.000Z</time>
</trkpt>
<trkpt lat="31.7839092" lon="35.0373856">
<ele>530.059998</ele>
<time>2018-05-29T17:47:51.000Z</time>
</trkpt>
<trkpt lat="31.7838133" lon="35.0373727">
<ele>529.549988</ele>
<time>2018-05-29T17:47:53.000Z</time>
</trkpt>
<trkpt lat="31.7837084" lon="35.0373383">
<ele>528.469971</ele>
<time>2018-05-29T17:47:55.000Z</time>
</trkpt>
<trkpt lat="31.7835854" lon="35.0372784">
<ele>526.900024</ele>
<time>2018-05-29T17:47:57.000Z</time>
</trkpt>
<trkpt lat="31.7834542" lon="35.0371987">
<ele>525.869995</ele>
<time>2018-05-29T17:47:59.000Z</time>
</trkpt>
<trkpt lat="31.7833283" lon="35.0370899">
<ele>524.880005</ele>
<time>2018-05-29T17:48:01.000Z</time>
</trkpt>
<trkpt lat="31.7832076" lon="35.0369823">
<ele>525.039978</ele>
<time>2018-05-29T17:48:03.000Z</time>
</trkpt>
<trkpt lat="31.7830865" lon="35.0368857">
<ele>524.399963</ele>
<time>2018-05-29T17:48:05.000Z</time>
</trkpt>
<trkpt lat="31.7829711" lon="35.0367989">
<ele>524.479980</ele>
<time>2018-05-29T17:48:07.000Z</time>
</trkpt>
<trkpt lat="31.7828847" lon="35.0367062">
<ele>524.479980</ele>
<time>2018-05-29T17:48:09.000Z</time>
</trkpt>
<trkpt lat="31.7828365" lon="35.0365930">
<ele>524.369995</ele>
<time>2018-05-29T17:48:11.000Z</time>
</trkpt>
<trkpt lat="31.7828268" lon="35.0364750">
<ele>524.529968</ele>
<time>2018-05-29T17:48:13.000Z</time>
</trkpt>
<trkpt lat="31.7828399" lon="35.0363580">
<ele>524.099976</ele>
<time>2018-05-29T17:48:15.000Z</time>
</trkpt>
<trkpt lat="31.7828699" lon="35.0362461">
<ele>524.040039</ele>
<time>2018-05-29T17:48:17.000Z</time>
</trkpt>
<trkpt lat="31.7829030" lon="35.0361394">
<ele>523.880005</ele>
<time>2018-05-29T17:48:19.000Z</time>
</trkpt>
<trkpt lat="31.7829471" lon="35.0359971">
<ele>523.489990</ele>
<time>2018-05-29T17:48:22.000Z</time>
</trkpt>
<trkpt lat="31.7829869" lon="35.0358711">
<ele>523.360046</ele>
<time>2018-05-29T17:48:25.000Z</time>
</trkpt>
<trkpt lat="31.7830286" lon="35.0357534">
<ele>523.650024</ele>
<time>2018-05-29T17:48:28.000Z</time>
</trkpt>
<trkpt lat="31.7830687" lon="35.0356165">
<ele>523.640015</ele>
<time>2018-05-29T17:48:31.000Z</time>
</trkpt>
<trkpt lat="31.7830834" lon="35.0355112">
<ele>523.830017</ele>
<time>2018-05-29T17:48:33.000Z</time>
</trkpt>
<trkpt lat="31.7831100" lon="35.0353555">
<ele>522.960022</ele>
<time>2018-05-29T17:48:36.000Z</time>
</trkpt>
<trkpt lat="31.7831379" lon="35.0352427">
<ele>522.290039</ele>
<time>2018-05-29T17:48:38.000Z</time>
</trkpt>
<trkpt lat="31.7831453" lon="35.0351173">
<ele>522.169983</ele>
<time>2018-05-29T17:48:40.000Z</time>
</trkpt>
<trkpt lat="31.7831212" lon="35.0349808">
<ele>521.200012</ele>
<time>2018-05-29T17:48:42.000Z</time>
</trkpt>
<trkpt lat="31.7830847" lon="35.0348572">
<ele>520.220032</ele>
<time>2018-05-29T17:48:44.000Z</time>
</trkpt>
<trkpt lat="31.7830463" lon="35.0347306">
<ele>519.290039</ele>
<time>2018-05-29T17:48:46.000Z</time>
</trkpt>
<trkpt lat="31.7829972" lon="35.0346043">
<ele>517.900024</ele>
<time>2018-05-29T17:48:48.000Z</time>
</trkpt>
<trkpt lat="31.7829341" lon="35.0344672">
<ele>516.809998</ele>
<time>2018-05-29T17:48:50.000Z</time>
</trkpt>
<trkpt lat="31.7828712" lon="35.0343210">
<ele>515.529968</ele>
<time>2018-05-29T17:48:52.000Z</time>
</trkpt>
<trkpt lat="31.7828185" lon="35.0341771">
<ele>514.950012</ele>
<time>2018-05-29T17:48:54.000Z</time>
</trkpt>
<trkpt lat="31.7827796" lon="35.0340394">
<ele>513.989990</ele>
<time>2018-05-29T17:48:56.000Z</time>
</trkpt>
<trkpt lat="31.7827469" lon="35.0338979">
<ele>513.940002</ele>
<time>2018-05-29T17:48:58.000Z</time>
</trkpt>
<trkpt lat="31.7827094" lon="35.0337585">
<ele>513.900024</ele>
<time>2018-05-29T17:49:00.000Z</time>
</trkpt>
<trkpt lat="31.7826698" lon="35.0336274">
<ele>512.969971</ele>
<time>2018-05-29T17:49:02.000Z</time>
</trkpt>
<trkpt lat="31.7826292" lon="35.0335171">
<ele>513.710022</ele>
<time>2018-05-29T17:49:04.000Z</time>
</trkpt>
<trkpt lat="31.7825808" lon="35.0334142">
<ele>513.080017</ele>
<time>2018-05-29T17:49:06.000Z</time>
</trkpt>
<trkpt lat="31.7825248" lon="35.0333164">
<ele>512.549988</ele>
<time>2018-05-29T17:49:08.000Z</time>
</trkpt>
<trkpt lat="31.7824515" lon="35.0332201">
<ele>513.000000</ele>
<time>2018-05-29T17:49:10.000Z</time>
</trkpt>
<trkpt lat="31.7823595" lon="35.0331386">
<ele>511.490021</ele>
<time>2018-05-29T17:49:12.000Z</time>
</trkpt>
<trkpt lat="31.7822636" lon="35.0330494">
<ele>511.940002</ele>
<time>2018-05-29T17:49:14.000Z</time>
</trkpt>
<trkpt lat="31.7821597" lon="35.0329698">
<ele>510.569977</ele>
<time>2018-05-29T17:49:16.000Z</time>
</trkpt>
<trkpt lat="31.7820540" lon="35.0328852">
<ele>510.359985</ele>
<time>2018-05-29T17:49:18.000Z</time>
</trkpt>
<trkpt lat="31.7819489" lon="35.0328030">
<ele>509.700012</ele>
<time>2018-05-29T17:49:20.000Z</time>
</trkpt>
<trkpt lat="31.7818614" lon="35.0327262">
<ele>510.190002</ele>
<time>2018-05-29T17:49:22.000Z</time>
</trkpt>
<trkpt lat="31.7817798" lon="35.0326619">
<ele>509.740021</ele>
<time>2018-05-29T17:49:24.000Z</time>
</trkpt>
<trkpt lat="31.7816998" lon="35.0325975">
<ele>509.029999</ele>
<time>2018-05-29T17:49:26.000Z</time>
</trkpt>
<trkpt lat="31.7816122" lon="35.0325418">
<ele>508.769989</ele>
<time>2018-05-29T17:49:28.000Z</time>
</trkpt>
<trkpt lat="31.7815230" lon="35.0324754">
<ele>508.399994</ele>
<time>2018-05-29T17:49:30.000Z</time>
</trkpt>
<trkpt lat="31.7814578" lon="35.0323730">
<ele>508.529999</ele>
<time>2018-05-29T17:49:32.000Z</time>
</trkpt>
<trkpt lat="31.7814253" lon="35.0322642">
<ele>507.660004</ele>
<time>2018-05-29T17:49:34.000Z</time>
</trkpt>
<trkpt lat="31.7814109" lon="35.0321164">
<ele>507.119995</ele>
<time>2018-05-29T17:49:37.000Z</time>
</trkpt>
<trkpt lat="31.7814030" lon="35.0319900">
<ele>507.269989</ele>
<time>2018-05-29T17:49:40.000Z</time>
</trkpt>
<trkpt lat="31.7814079" lon="35.0318655">
<ele>506.879974</ele>
<time>2018-05-29T17:49:43.000Z</time>
</trkpt>
<trkpt lat="31.7814046" lon="35.0317207">
<ele>506.480011</ele>
<time>2018-05-29T17:49:46.000Z</time>
</trkpt>
<trkpt lat="31.7813916" lon="35.0315666">
<ele>505.489990</ele>
<time>2018-05-29T17:49:49.000Z</time>
</trkpt>
<trkpt lat="31.7813779" lon="35.0314528">
<ele>504.880005</ele>
<time>2018-05-29T17:49:51.000Z</time>
</trkpt>
<trkpt lat="31.7813655" lon="35.0313220">
<ele>504.970001</ele>
<time>2018-05-29T17:49:53.000Z</time>
</trkpt>
<trkpt lat="31.7813603" lon="35.0311835">
<ele>503.639984</ele>
<time>2018-05-29T17:49:55.000Z</time>
</trkpt>
<trkpt lat="31.7813815" lon="35.0310619">
<ele>503.979980</ele>
<time>2018-05-29T17:49:57.000Z</time>
</trkpt>
<trkpt lat="31.7814782" lon="35.0309882">
<ele>504.640015</ele>
<time>2018-05-29T17:50:00.000Z</time>
</trkpt>
<trkpt lat="31.7815887" lon="35.0310085">
<ele>505.240021</ele>
<time>2018-05-29T17:50:03.000Z</time>
</trkpt>
<trkpt lat="31.7816890" lon="35.0310340">
<ele>505.989990</ele>
<time>2018-05-29T17:50:06.000Z</time>
</trkpt>
<trkpt lat="31.7817863" lon="35.0310576">
<ele>506.299988</ele>
<time>2018-05-29T17:50:09.000Z</time>
</trkpt>
<trkpt lat="31.7819093" lon="35.0310621">
<ele>506.580017</ele>
<time>2018-05-29T17:50:13.000Z</time>
</trkpt>
<trkpt lat="31.7820139" lon="35.0310767">
<ele>506.480011</ele>
<time>2018-05-29T17:50:16.000Z</time>
</trkpt>
<trkpt lat="31.7821354" lon="35.0310767">
<ele>506.179993</ele>
<time>2018-05-29T17:50:19.000Z</time>
</trkpt>
<trkpt lat="31.7822362" lon="35.0310643">
<ele>505.739990</ele>
<time>2018-05-29T17:50:22.000Z</time>
</trkpt>
<trkpt lat="31.7823568" lon="35.0310462">
<ele>505.200012</ele>
<time>2018-05-29T17:50:25.000Z</time>
</trkpt>
<trkpt lat="31.7824792" lon="35.0310154">
<ele>505.080017</ele>
<time>2018-05-29T17:50:28.000Z</time>
</trkpt>
<trkpt lat="31.7825898" lon="35.0309480">
<ele>504.659973</ele>
<time>2018-05-29T17:50:31.000Z</time>
</trkpt>
<trkpt lat="31.7826759" lon="35.0308369">
<ele>503.669983</ele>
<time>2018-05-29T17:50:34.000Z</time>
</trkpt>
<trkpt lat="31.7827418" lon="35.0307391">
<ele>503.779999</ele>
<time>2018-05-29T17:50:37.000Z</time>
</trkpt>
<trkpt lat="31.7827808" lon="35.0306294">
<ele>503.260010</ele>
<time>2018-05-29T17:50:41.000Z</time>
</trkpt>
<trkpt lat="31.7828099" lon="35.0305058">
<ele>503.049988</ele>
<time>2018-05-29T17:50:45.000Z</time>
</trkpt>
<trkpt lat="31.7828247" lon="35.0303899">
<ele>502.949982</ele>
<time>2018-05-29T17:50:48.000Z</time>
</trkpt>
<trkpt lat="31.7828320" lon="35.0302486">
<ele>502.500000</ele>
<time>2018-05-29T17:50:51.000Z</time>
</trkpt>
<trkpt lat="31.7828257" lon="35.0300894">
<ele>501.779999</ele>
<time>2018-05-29T17:50:54.000Z</time>
</trkpt>
<trkpt lat="31.7828194" lon="35.0299641">
<ele>501.750000</ele>
<time>2018-05-29T17:50:56.000Z</time>
</trkpt>
<trkpt lat="31.7828061" lon="35.0298334">
<ele>501.720001</ele>
<time>2018-05-29T17:50:58.000Z</time>
</trkpt>
<trkpt lat="31.7827815" lon="35.0297075">
<ele>500.929993</ele>
<time>2018-05-29T17:51:00.000Z</time>
</trkpt>
<trkpt lat="31.7827536" lon="35.0295762">
<ele>500.399994</ele>
<time>2018-05-29T17:51:02.000Z</time>
</trkpt>
<trkpt lat="31.7827258" lon="35.0294430">
<ele>500.260010</ele>
<time>2018-05-29T17:51:04.000Z</time>
</trkpt>
<trkpt lat="31.7827025" lon="35.0293103">
<ele>500.000000</ele>
<time>2018-05-29T17:51:06.000Z</time>
</trkpt>
<trkpt lat="31.7826781" lon="35.0291706">
<ele>498.730011</ele>
<time>2018-05-29T17:51:08.000Z</time>
</trkpt>
<trkpt lat="31.7826588" lon="35.0290370">
<ele>498.329987</ele>
<time>2018-05-29T17:51:10.000Z</time>
</trkpt>
<trkpt lat="31.7826579" lon="35.0289110">
<ele>497.700012</ele>
<time>2018-05-29T17:51:12.000Z</time>
</trkpt>
<trkpt lat="31.7826997" lon="35.0288018">
<ele>496.779999</ele>
<time>2018-05-29T17:51:14.000Z</time>
</trkpt>
<trkpt lat="31.7827709" lon="35.0287116">
<ele>496.789978</ele>
<time>2018-05-29T17:51:16.000Z</time>
</trkpt>
<trkpt lat="31.7828518" lon="35.0286230">
<ele>496.170013</ele>
<time>2018-05-29T17:51:18.000Z</time>
</trkpt>
<trkpt lat="31.7829282" lon="35.0285321">
<ele>495.209991</ele>
<time>2018-05-29T17:51:20.000Z</time>
</trkpt>
<trkpt lat="31.7830079" lon="35.0284474">
<ele>494.240021</ele>
<time>2018-05-29T17:51:22.000Z</time>
</trkpt>
<trkpt lat="31.7830907" lon="35.0283565">
<ele>493.850006</ele>
<time>2018-05-29T17:51:24.000Z</time>
</trkpt>
<trkpt lat="31.7831767" lon="35.0282541">
<ele>493.399994</ele>
<time>2018-05-29T17:51:26.000Z</time>
</trkpt>
<trkpt lat="31.7832702" lon="35.0281842">
<ele>492.390015</ele>
<time>2018-05-29T17:51:28.000Z</time>
</trkpt>
<trkpt lat="31.7833629" lon="35.0281702">
<ele>492.190002</ele>
<time>2018-05-29T17:51:30.000Z</time>
</trkpt>
<trkpt lat="31.7834857" lon="35.0282321">
<ele>491.279999</ele>
<time>2018-05-29T17:51:33.000Z</time>
</trkpt>
<trkpt lat="31.7835769" lon="35.0282944">
<ele>490.579987</ele>
<time>2018-05-29T17:51:35.000Z</time>
</trkpt>
<trkpt lat="31.7836739" lon="35.0283621">
<ele>489.820007</ele>
<time>2018-05-29T17:51:37.000Z</time>
</trkpt>
<trkpt lat="31.7837680" lon="35.0284352">
<ele>488.510010</ele>
<time>2018-05-29T17:51:39.000Z</time>
</trkpt>
<trkpt lat="31.7838695" lon="35.0285022">
<ele>488.239990</ele>
<time>2018-05-29T17:51:41.000Z</time>
</trkpt>
<trkpt lat="31.7839748" lon="35.0285215">
<ele>487.260010</ele>
<time>2018-05-29T17:51:43.000Z</time>
</trkpt>
<trkpt lat="31.7840813" lon="35.0285338">
<ele>487.310028</ele>
<time>2018-05-29T17:51:45.000Z</time>
</trkpt>
<trkpt lat="31.7841841" lon="35.0285756">
<ele>487.160004</ele>
<time>2018-05-29T17:51:47.000Z</time>
</trkpt>
<trkpt lat="31.7842794" lon="35.0286392">
<ele>486.500031</ele>
<time>2018-05-29T17:51:49.000Z</time>
</trkpt>
<trkpt lat="31.7843634" lon="35.0287242">
<ele>485.980011</ele>
<time>2018-05-29T17:51:51.000Z</time>
</trkpt>
<trkpt lat="31.7844323" lon="35.0288123">
<ele>486.070007</ele>
<time>2018-05-29T17:51:53.000Z</time>
</trkpt>
<trkpt lat="31.7845005" lon="35.0288985">
<ele>484.860016</ele>
<time>2018-05-29T17:51:55.000Z</time>
</trkpt>
<trkpt lat="31.7845739" lon="35.0289896">
<ele>484.910004</ele>
<time>2018-05-29T17:51:57.000Z</time>
</trkpt>
<trkpt lat="31.7846591" lon="35.0290646">
<ele>484.610016</ele>
<time>2018-05-29T17:51:59.000Z</time>
</trkpt>
<trkpt lat="31.7847441" lon="35.0291129">
<ele>484.250000</ele>
<time>2018-05-29T17:52:01.000Z</time>
</trkpt>
<trkpt lat="31.7848306" lon="35.0291483">
<ele>482.839996</ele>
<time>2018-05-29T17:52:03.000Z</time>
</trkpt>
<trkpt lat="31.7849434" lon="35.0291525">
<ele>482.890015</ele>
<time>2018-05-29T17:52:06.000Z</time>
</trkpt>
<trkpt lat="31.7850787" lon="35.0291156">
<ele>482.510010</ele>
<time>2018-05-29T17:52:09.000Z</time>
</trkpt>
<trkpt lat="31.7851952" lon="35.0290744">
<ele>481.660004</ele>
<time>2018-05-29T17:52:12.000Z</time>
</trkpt>
<trkpt lat="31.7852991" lon="35.0290090">
<ele>481.119995</ele>
<time>2018-05-29T17:52:15.000Z</time>
</trkpt>
<trkpt lat="31.7854151" lon="35.0289379">
<ele>480.230011</ele>
<time>2018-05-29T17:52:18.000Z</time>
</trkpt>
<trkpt lat="31.7854999" lon="35.0288952">
<ele>479.500000</ele>
<time>2018-05-29T17:52:20.000Z</time>
</trkpt>
<trkpt lat="31.7855927" lon="35.0288521">
<ele>479.209991</ele>
<time>2018-05-29T17:52:22.000Z</time>
</trkpt>
<trkpt lat="31.7856857" lon="35.0288124">
<ele>478.519989</ele>
<time>2018-05-29T17:52:24.000Z</time>
</trkpt>
<trkpt lat="31.7857861" lon="35.0287892">
<ele>478.020020</ele>
<time>2018-05-29T17:52:26.000Z</time>
</trkpt>
<trkpt lat="31.7858968" lon="35.0287751">
<ele>476.889984</ele>
<time>2018-05-29T17:52:28.000Z</time>
</trkpt>
<trkpt lat="31.7860177" lon="35.0287770">
<ele>476.260010</ele>
<time>2018-05-29T17:52:30.000Z</time>
</trkpt>
<trkpt lat="31.7861379" lon="35.0287870">
<ele>474.500000</ele>
<time>2018-05-29T17:52:32.000Z</time>
</trkpt>
<trkpt lat="31.7862517" lon="35.0287926">
<ele>473.019989</ele>
<time>2018-05-29T17:52:34.000Z</time>
</trkpt>
<trkpt lat="31.7863715" lon="35.0287975">
<ele>472.959991</ele>
<time>2018-05-29T17:52:36.000Z</time>
</trkpt>
<trkpt lat="31.7864964" lon="35.0288058">
<ele>471.320007</ele>
<time>2018-05-29T17:52:38.000Z</time>
</trkpt>
<trkpt lat="31.7866014" lon="35.0288305">
<ele>471.309998</ele>
<time>2018-05-29T17:52:40.000Z</time>
</trkpt>
<trkpt lat="31.7866875" lon="35.0288847">
<ele>470.520020</ele>
<time>2018-05-29T17:52:42.000Z</time>
</trkpt>
<trkpt lat="31.7867753" lon="35.0289494">
<ele>470.409973</ele>
<time>2018-05-29T17:52:44.000Z</time>
</trkpt>
<trkpt lat="31.7868650" lon="35.0290132">
<ele>470.000000</ele>
<time>2018-05-29T17:52:46.000Z</time>
</trkpt>
<trkpt lat="31.7869548" lon="35.0290819">
<ele>469.519989</ele>
<time>2018-05-29T17:52:48.000Z</time>
</trkpt>
<trkpt lat="31.7870477" lon="35.0291503">
<ele>469.160004</ele>
<time>2018-05-29T17:52:50.000Z</time>
</trkpt>
<trkpt lat="31.7871351" lon="35.0292017">
<ele>468.839996</ele>
<time>2018-05-29T17:52:52.000Z</time>
</trkpt>
<trkpt lat="31.7872256" lon="35.0292622">
<ele>468.679993</ele>
<time>2018-05-29T17:52:54.000Z</time>
</trkpt>
<trkpt lat="31.7873230" lon="35.0293247">
<ele>468.380005</ele>
<time>2018-05-29T17:52:56.000Z</time>
</trkpt>
<trkpt lat="31.7874211" lon="35.0293903">
<ele>467.769989</ele>
<time>2018-05-29T17:52:58.000Z</time>
</trkpt>
<trkpt lat="31.7875255" lon="35.0294487">
<ele>467.549988</ele>
<time>2018-05-29T17:53:00.000Z</time>
</trkpt>
<trkpt lat="31.7876339" lon="35.0295105">
<ele>466.519989</ele>
<time>2018-05-29T17:53:02.000Z</time>
</trkpt>
<trkpt lat="31.7877437" lon="35.0295695">
<ele>466.149994</ele>
<time>2018-05-29T17:53:04.000Z</time>
</trkpt>
<trkpt lat="31.7878534" lon="35.0296214">
<ele>465.720001</ele>
<time>2018-05-29T17:53:06.000Z</time>
</trkpt>
<trkpt lat="31.7879602" lon="35.0296837">
<ele>464.700012</ele>
<time>2018-05-29T17:53:08.000Z</time>
</trkpt>
<trkpt lat="31.7880605" lon="35.0297537">
<ele>463.709991</ele>
<time>2018-05-29T17:53:10.000Z</time>
</trkpt>
<trkpt lat="31.7881543" lon="35.0298331">
<ele>463.380005</ele>
<time>2018-05-29T17:53:12.000Z</time>
</trkpt>
<trkpt lat="31.7882456" lon="35.0299168">
<ele>463.000031</ele>
<time>2018-05-29T17:53:14.000Z</time>
</trkpt>
<trkpt lat="31.7883242" lon="35.0299963">
<ele>463.340027</ele>
<time>2018-05-29T17:53:16.000Z</time>
</trkpt>
<trkpt lat="31.7884041" lon="35.0300721">
<ele>463.349976</ele>
<time>2018-05-29T17:53:18.000Z</time>
</trkpt>
<trkpt lat="31.7884743" lon="35.0301563">
<ele>463.239990</ele>
<time>2018-05-29T17:53:20.000Z</time>
</trkpt>
<trkpt lat="31.7885472" lon="35.0302347">
<ele>462.250000</ele>
<time>2018-05-29T17:53:22.000Z</time>
</trkpt>
<trkpt lat="31.7886197" lon="35.0303143">
<ele>462.209991</ele>
<time>2018-05-29T17:53:24.000Z</time>
</trkpt>
<trkpt lat="31.7886696" lon="35.0304001">
<ele>461.660004</ele>
<time>2018-05-29T17:53:26.000Z</time>
</trkpt>
<trkpt lat="31.7887240" lon="35.0304897">
<ele>461.360016</ele>
<time>2018-05-29T17:53:28.000Z</time>
</trkpt>
<trkpt lat="31.7888052" lon="35.0305996">
<ele>460.709991</ele>
<time>2018-05-29T17:53:31.000Z</time>
</trkpt>
<trkpt lat="31.7889023" lon="35.0306070">
<ele>460.330017</ele>
<time>2018-05-29T17:53:35.000Z</time>
</trkpt>
<trkpt lat="31.7889672" lon="35.0305308">
<ele>459.960022</ele>
<time>2018-05-29T17:53:38.000Z</time>
</trkpt>
<trkpt lat="31.7889956" lon="35.0304078">
<ele>460.500000</ele>
<time>2018-05-29T17:53:41.000Z</time>
</trkpt>
<trkpt lat="31.7890162" lon="35.0302775">
<ele>459.990021</ele>
<time>2018-05-29T17:53:44.000Z</time>
</trkpt>
<trkpt lat="31.7890313" lon="35.0301366">
<ele>459.940002</ele>
<time>2018-05-29T17:53:47.000Z</time>
</trkpt>
<trkpt lat="31.7890273" lon="35.0300038">
<ele>460.760010</ele>
<time>2018-05-29T17:53:50.000Z</time>
</trkpt>
<trkpt lat="31.7890074" lon="35.0298967">
<ele>460.790009</ele>
<time>2018-05-29T17:53:53.000Z</time>
</trkpt>
<trkpt lat="31.7889733" lon="35.0297763">
<ele>460.170013</ele>
<time>2018-05-29T17:53:56.000Z</time>
</trkpt>
<trkpt lat="31.7889300" lon="35.0296502">
<ele>460.709991</ele>
<time>2018-05-29T17:53:59.000Z</time>
</trkpt>
<trkpt lat="31.7889018" lon="35.0295308">
<ele>460.649994</ele>
<time>2018-05-29T17:54:02.000Z</time>
</trkpt>
<trkpt lat="31.7888705" lon="35.0294098">
<ele>459.660004</ele>
<time>2018-05-29T17:54:05.000Z</time>
</trkpt>
<trkpt lat="31.7888181" lon="35.0292788">
<ele>459.339996</ele>
<time>2018-05-29T17:54:08.000Z</time>
</trkpt>
<trkpt lat="31.7887559" lon="35.0291405">
<ele>459.250000</ele>
<time>2018-05-29T17:54:11.000Z</time>
</trkpt>
<trkpt lat="31.7887105" lon="35.0290414">
<ele>459.309998</ele>
<time>2018-05-29T17:54:13.000Z</time>
</trkpt>
<trkpt lat="31.7886628" lon="35.0289427">
<ele>458.949982</ele>
<time>2018-05-29T17:54:15.000Z</time>
</trkpt>
<trkpt lat="31.7886252" lon="35.0288401">
<ele>458.949982</ele>
<time>2018-05-29T17:54:17.000Z</time>
</trkpt>
<trkpt lat="31.7885798" lon="35.0287442">
<ele>459.119995</ele>
<time>2018-05-29T17:54:19.000Z</time>
</trkpt>
<trkpt lat="31.7885119" lon="35.0286059">
<ele>458.470001</ele>
<time>2018-05-29T17:54:22.000Z</time>
</trkpt>
<trkpt lat="31.7884195" lon="35.0284883">
<ele>458.249969</ele>
<time>2018-05-29T17:54:25.000Z</time>
</trkpt>
<trkpt lat="31.7883555" lon="35.0284075">
<ele>456.740021</ele>
<time>2018-05-29T17:54:27.000Z</time>
</trkpt>
<trkpt lat="31.7882911" lon="35.0283232">
<ele>457.390015</ele>
<time>2018-05-29T17:54:29.000Z</time>
</trkpt>
<trkpt lat="31.7882078" lon="35.0282157">
<ele>457.119995</ele>
<time>2018-05-29T17:54:32.000Z</time>
</trkpt>
<trkpt lat="31.7881287" lon="35.0281176">
<ele>456.409973</ele>
<time>2018-05-29T17:54:35.000Z</time>
</trkpt>
<trkpt lat="31.7880588" lon="35.0280178">
<ele>456.660004</ele>
<time>2018-05-29T17:54:38.000Z</time>
</trkpt>
<trkpt lat="31.7879685" lon="35.0278874">
<ele>456.470001</ele>
<time>2018-05-29T17:54:41.000Z</time>
</trkpt>
<trkpt lat="31.7879033" lon="35.0277910">
<ele>455.529999</ele>
<time>2018-05-29T17:54:43.000Z</time>
</trkpt>
<trkpt lat="31.7878408" lon="35.0276969">
<ele>455.970001</ele>
<time>2018-05-29T17:54:45.000Z</time>
</trkpt>
<trkpt lat="31.7877757" lon="35.0276066">
<ele>455.779999</ele>
<time>2018-05-29T17:54:47.000Z</time>
</trkpt>
<trkpt lat="31.7877058" lon="35.0275210">
<ele>455.700012</ele>
<time>2018-05-29T17:54:49.000Z</time>
</trkpt>
<trkpt lat="31.7876297" lon="35.0274459">
<ele>455.100006</ele>
<time>2018-05-29T17:54:51.000Z</time>
</trkpt>
<trkpt lat="31.7875436" lon="35.0273786">
<ele>455.339996</ele>
<time>2018-05-29T17:54:53.000Z</time>
</trkpt>
<trkpt lat="31.7874561" lon="35.0273034">
<ele>454.510010</ele>
<time>2018-05-29T17:54:55.000Z</time>
</trkpt>
<trkpt lat="31.7873691" lon="35.0272264">
<ele>454.480011</ele>
<time>2018-05-29T17:54:57.000Z</time>
</trkpt>
<trkpt lat="31.7872681" lon="35.0271465">
<ele>453.529999</ele>
<time>2018-05-29T17:54:59.000Z</time>
</trkpt>
<trkpt lat="31.7871728" lon="35.0270622">
<ele>453.289978</ele>
<time>2018-05-29T17:55:01.000Z</time>
</trkpt>
<trkpt lat="31.7870962" lon="35.0269871">
<ele>451.619995</ele>
<time>2018-05-29T17:55:03.000Z</time>
</trkpt>
<trkpt lat="31.7870145" lon="35.0269222">
<ele>451.180023</ele>
<time>2018-05-29T17:55:05.000Z</time>
</trkpt>
<trkpt lat="31.7869341" lon="35.0268564">
<ele>450.639984</ele>
<time>2018-05-29T17:55:07.000Z</time>
</trkpt>
<trkpt lat="31.7868576" lon="35.0267914">
<ele>450.389984</ele>
<time>2018-05-29T17:55:09.000Z</time>
</trkpt>
<trkpt lat="31.7867565" lon="35.0266936">
<ele>448.530029</ele>
<time>2018-05-29T17:55:12.000Z</time>
</trkpt>
<trkpt lat="31.7866538" lon="35.0265861">
<ele>447.190002</ele>
<time>2018-05-29T17:55:15.000Z</time>
</trkpt>
<trkpt lat="31.7865823" lon="35.0265161">
<ele>446.860016</ele>
<time>2018-05-29T17:55:17.000Z</time>
</trkpt>
<trkpt lat="31.7865020" lon="35.0264474">
<ele>446.099976</ele>
<time>2018-05-29T17:55:19.000Z</time>
</trkpt>
<trkpt lat="31.7864192" lon="35.0263875">
<ele>445.570007</ele>
<time>2018-05-29T17:55:21.000Z</time>
</trkpt>
<trkpt lat="31.7863395" lon="35.0263221">
<ele>445.559998</ele>
<time>2018-05-29T17:55:23.000Z</time>
</trkpt>
<trkpt lat="31.7862549" lon="35.0262546">
<ele>444.599976</ele>
<time>2018-05-29T17:55:25.000Z</time>
</trkpt>
<trkpt lat="31.7861755" lon="35.0261832">
<ele>444.230011</ele>
<time>2018-05-29T17:55:27.000Z</time>
</trkpt>
<trkpt lat="31.7861011" lon="35.0261137">
<ele>443.679993</ele>
<time>2018-05-29T17:55:29.000Z</time>
</trkpt>
<trkpt lat="31.7860213" lon="35.0260442">
<ele>443.890015</ele>
<time>2018-05-29T17:55:31.000Z</time>
</trkpt>
<trkpt lat="31.7859328" lon="35.0259809">
<ele>442.860016</ele>
<time>2018-05-29T17:55:33.000Z</time>
</trkpt>
<trkpt lat="31.7858497" lon="35.0259175">
<ele>443.350006</ele>
<time>2018-05-29T17:55:35.000Z</time>
</trkpt>
<trkpt lat="31.7857788" lon="35.0258260">
<ele>443.399994</ele>
<time>2018-05-29T17:55:37.000Z</time>
</trkpt>
<trkpt lat="31.7857249" lon="35.0257198">
<ele>442.419983</ele>
<time>2018-05-29T17:55:39.000Z</time>
</trkpt>
<trkpt lat="31.7856807" lon="35.0256053">
<ele>441.609985</ele>
<time>2018-05-29T17:55:41.000Z</time>
</trkpt>
<trkpt lat="31.7856515" lon="35.0254824">
<ele>441.169983</ele>
<time>2018-05-29T17:55:43.000Z</time>
</trkpt>
<trkpt lat="31.7856149" lon="35.0253345">
<ele>441.089996</ele>
<time>2018-05-29T17:55:46.000Z</time>
</trkpt>
<trkpt lat="31.7855769" lon="35.0251948">
<ele>439.989990</ele>
<time>2018-05-29T17:55:49.000Z</time>
</trkpt>
<trkpt lat="31.7855510" lon="35.0250384">
<ele>440.019989</ele>
<time>2018-05-29T17:55:52.000Z</time>
</trkpt>
<trkpt lat="31.7855322" lon="35.0249341">
<ele>439.700012</ele>
<time>2018-05-29T17:55:54.000Z</time>
</trkpt>
<trkpt lat="31.7855163" lon="35.0248333">
<ele>439.350006</ele>
<time>2018-05-29T17:55:56.000Z</time>
</trkpt>
<trkpt lat="31.7854759" lon="35.0246858">
<ele>439.589996</ele>
<time>2018-05-29T17:55:59.000Z</time>
</trkpt>
<trkpt lat="31.7854501" lon="35.0245343">
<ele>439.169983</ele>
<time>2018-05-29T17:56:02.000Z</time>
</trkpt>
<trkpt lat="31.7854410" lon="35.0244270">
<ele>438.269989</ele>
<time>2018-05-29T17:56:04.000Z</time>
</trkpt>
<trkpt lat="31.7854180" lon="35.0243247">
<ele>438.259979</ele>
<time>2018-05-29T17:56:06.000Z</time>
</trkpt>
<trkpt lat="31.7853955" lon="35.0242179">
<ele>438.250000</ele>
<time>2018-05-29T17:56:08.000Z</time>
</trkpt>
<trkpt lat="31.7853587" lon="35.0240774">
<ele>437.630005</ele>
<time>2018-05-29T17:56:11.000Z</time>
</trkpt>
<trkpt lat="31.7853166" lon="35.0239505">
<ele>437.520020</ele>
<time>2018-05-29T17:56:14.000Z</time>
</trkpt>
<trkpt lat="31.7852600" lon="35.0238317">
<ele>436.899994</ele>
<time>2018-05-29T17:56:17.000Z</time>
</trkpt>
<trkpt lat="31.7852112" lon="35.0237133">
<ele>437.010010</ele>
<time>2018-05-29T17:56:20.000Z</time>
</trkpt>
<trkpt lat="31.7851630" lon="35.0235989">
<ele>436.750000</ele>
<time>2018-05-29T17:56:23.000Z</time>
</trkpt>
<trkpt lat="31.7850888" lon="35.0235004">
<ele>436.159973</ele>
<time>2018-05-29T17:56:26.000Z</time>
</trkpt>
<trkpt lat="31.7850132" lon="35.0234080">
<ele>435.670013</ele>
<time>2018-05-29T17:56:29.000Z</time>
</trkpt>
<trkpt lat="31.7849198" lon="35.0233375">
<ele>435.940002</ele>
<time>2018-05-29T17:56:33.000Z</time>
</trkpt>
<trkpt lat="31.7848448" lon="35.0232660">
<ele>436.159973</ele>
<time>2018-05-29T17:56:37.000Z</time>
</trkpt>
<trkpt lat="31.7847795" lon="35.0231842">
<ele>435.850006</ele>
<time>2018-05-29T17:56:41.000Z</time>
</trkpt>
<trkpt lat="31.7846990" lon="35.0230943">
<ele>436.559998</ele>
<time>2018-05-29T17:56:45.000Z</time>
</trkpt>
<trkpt lat="31.7846165" lon="35.0230317">
<ele>436.119995</ele>
<time>2018-05-29T17:56:48.000Z</time>
</trkpt>
<trkpt lat="31.7845451" lon="35.0229632">
<ele>437.079987</ele>
<time>2018-05-29T17:56:51.000Z</time>
</trkpt>
<trkpt lat="31.7844752" lon="35.0228878">
<ele>436.859985</ele>
<time>2018-05-29T17:56:54.000Z</time>
</trkpt>
<trkpt lat="31.7843956" lon="35.0228118">
<ele>436.580017</ele>
<time>2018-05-29T17:56:57.000Z</time>
</trkpt>
<trkpt lat="31.7843159" lon="35.0227094">
<ele>436.030029</ele>
<time>2018-05-29T17:57:00.000Z</time>
</trkpt>
<trkpt lat="31.7842435" lon="35.0225842">
<ele>435.300018</ele>
<time>2018-05-29T17:57:03.000Z</time>
</trkpt>
<trkpt lat="31.7842255" lon="35.0224798">
<ele>435.229980</ele>
<time>2018-05-29T17:57:06.000Z</time>
</trkpt>
<trkpt lat="31.7842567" lon="35.0223626">
<ele>435.550018</ele>
<time>2018-05-29T17:57:10.000Z</time>
</trkpt>
<trkpt lat="31.7843271" lon="35.0222711">
<ele>434.589996</ele>
<time>2018-05-29T17:57:14.000Z</time>
</trkpt>
<trkpt lat="31.7844051" lon="35.0221819">
<ele>434.470001</ele>
<time>2018-05-29T17:57:17.000Z</time>
</trkpt>
<trkpt lat="31.7844711" lon="35.0220940">
<ele>435.049988</ele>
<time>2018-05-29T17:57:20.000Z</time>
</trkpt>
<trkpt lat="31.7845544" lon="35.0220065">
<ele>434.779999</ele>
<time>2018-05-29T17:57:24.000Z</time>
</trkpt>
<trkpt lat="31.7846448" lon="35.0219428">
<ele>435.869995</ele>
<time>2018-05-29T17:57:28.000Z</time>
</trkpt>
<trkpt lat="31.7847396" lon="35.0218906">
<ele>436.079987</ele>
<time>2018-05-29T17:57:32.000Z</time>
</trkpt>
<trkpt lat="31.7848353" lon="35.0218500">
<ele>436.100006</ele>
<time>2018-05-29T17:57:36.000Z</time>
</trkpt>
<trkpt lat="31.7849300" lon="35.0218205">
<ele>436.869995</ele>
<time>2018-05-29T17:57:40.000Z</time>
</trkpt>
<trkpt lat="31.7850440" lon="35.0217867">
<ele>436.700012</ele>
<time>2018-05-29T17:57:44.000Z</time>
</trkpt>
<trkpt lat="31.7851527" lon="35.0217539">
<ele>436.940002</ele>
<time>2018-05-29T17:57:48.000Z</time>
</trkpt>
<trkpt lat="31.7852486" lon="35.0217197">
<ele>437.089996</ele>
<time>2018-05-29T17:57:52.000Z</time>
</trkpt>
<trkpt lat="31.7853572" lon="35.0216729">
<ele>437.250000</ele>
<time>2018-05-29T17:57:56.000Z</time>
</trkpt>
<trkpt lat="31.7854391" lon="35.0216150">
<ele>436.370026</ele>
<time>2018-05-29T17:57:59.000Z</time>
</trkpt>
<trkpt lat="31.7855354" lon="35.0215600">
<ele>436.580017</ele>
<time>2018-05-29T17:58:02.000Z</time>
</trkpt>
<trkpt lat="31.7856348" lon="35.0215371">
<ele>436.630005</ele>
<time>2018-05-29T17:58:05.000Z</time>
</trkpt>
<trkpt lat="31.7857316" lon="35.0214759">
<ele>435.919983</ele>
<time>2018-05-29T17:58:09.000Z</time>
</trkpt>
<trkpt lat="31.7858162" lon="35.0213955">
<ele>434.960022</ele>
<time>2018-05-29T17:58:13.000Z</time>
</trkpt>
<trkpt lat="31.7859053" lon="35.0213258">
<ele>434.390015</ele>
<time>2018-05-29T17:58:16.000Z</time>
</trkpt>
<trkpt lat="31.7859949" lon="35.0212488">
<ele>434.209991</ele>
<time>2018-05-29T17:58:19.000Z</time>
</trkpt>
<trkpt lat="31.7860778" lon="35.0211659">
<ele>434.010010</ele>
<time>2018-05-29T17:58:22.000Z</time>
</trkpt>
<trkpt lat="31.7861516" lon="35.0210796">
<ele>433.119995</ele>
<time>2018-05-29T17:58:25.000Z</time>
</trkpt>
<trkpt lat="31.7862307" lon="35.0209946">
<ele>433.240021</ele>
<time>2018-05-29T17:58:28.000Z</time>
</trkpt>
<trkpt lat="31.7863019" lon="35.0208842">
<ele>433.100006</ele>
<time>2018-05-29T17:58:31.000Z</time>
</trkpt>
<trkpt lat="31.7863937" lon="35.0207576">
<ele>432.410004</ele>
<time>2018-05-29T17:58:34.000Z</time>
</trkpt>
<trkpt lat="31.7864639" lon="35.0206724">
<ele>431.940002</ele>
<time>2018-05-29T17:58:36.000Z</time>
</trkpt>
<trkpt lat="31.7865413" lon="35.0205906">
<ele>430.920013</ele>
<time>2018-05-29T17:58:38.000Z</time>
</trkpt>
<trkpt lat="31.7866228" lon="35.0205056">
<ele>429.369995</ele>
<time>2018-05-29T17:58:40.000Z</time>
</trkpt>
<trkpt lat="31.7867126" lon="35.0204381">
<ele>428.660004</ele>
<time>2018-05-29T17:58:42.000Z</time>
</trkpt>
<trkpt lat="31.7868089" lon="35.0203792">
<ele>427.519989</ele>
<time>2018-05-29T17:58:44.000Z</time>
</trkpt>
<trkpt lat="31.7869036" lon="35.0203353">
<ele>427.299988</ele>
<time>2018-05-29T17:58:46.000Z</time>
</trkpt>
<trkpt lat="31.7870320" lon="35.0203322">
<ele>426.099976</ele>
<time>2018-05-29T17:58:49.000Z</time>
</trkpt>
<trkpt lat="31.7871204" lon="35.0203670">
<ele>424.829987</ele>
<time>2018-05-29T17:58:51.000Z</time>
</trkpt>
<trkpt lat="31.7872031" lon="35.0204407">
<ele>424.320007</ele>
<time>2018-05-29T17:58:53.000Z</time>
</trkpt>
<trkpt lat="31.7872824" lon="35.0205302">
<ele>423.589996</ele>
<time>2018-05-29T17:58:55.000Z</time>
</trkpt>
<trkpt lat="31.7873595" lon="35.0206163">
<ele>423.250000</ele>
<time>2018-05-29T17:58:57.000Z</time>
</trkpt>
<trkpt lat="31.7874416" lon="35.0206917">
<ele>422.119995</ele>
<time>2018-05-29T17:58:59.000Z</time>
</trkpt>
<trkpt lat="31.7875327" lon="35.0207568">
<ele>420.600006</ele>
<time>2018-05-29T17:59:01.000Z</time>
</trkpt>
<trkpt lat="31.7876253" lon="35.0208208">
<ele>420.350006</ele>
<time>2018-05-29T17:59:03.000Z</time>
</trkpt>
<trkpt lat="31.7877242" lon="35.0208746">
<ele>419.330017</ele>
<time>2018-05-29T17:59:05.000Z</time>
</trkpt>
<trkpt lat="31.7878371" lon="35.0209100">
<ele>418.890015</ele>
<time>2018-05-29T17:59:07.000Z</time>
</trkpt>
<trkpt lat="31.7879451" lon="35.0209321">
<ele>418.970001</ele>
<time>2018-05-29T17:59:09.000Z</time>
</trkpt>
<trkpt lat="31.7880449" lon="35.0209528">
<ele>419.160004</ele>
<time>2018-05-29T17:59:11.000Z</time>
</trkpt>
<trkpt lat="31.7881467" lon="35.0209668">
<ele>419.149994</ele>
<time>2018-05-29T17:59:13.000Z</time>
</trkpt>
<trkpt lat="31.7882495" lon="35.0209661">
<ele>419.179993</ele>
<time>2018-05-29T17:59:15.000Z</time>
</trkpt>
<trkpt lat="31.7883473" lon="35.0209345">
<ele>419.240021</ele>
<time>2018-05-29T17:59:17.000Z</time>
</trkpt>
<trkpt lat="31.7884385" lon="35.0208706">
<ele>417.950012</ele>
<time>2018-05-29T17:59:19.000Z</time>
</trkpt>
<trkpt lat="31.7885173" lon="35.0207717">
<ele>417.920013</ele>
<time>2018-05-29T17:59:21.000Z</time>
</trkpt>
<trkpt lat="31.7885787" lon="35.0206656">
<ele>416.989990</ele>
<time>2018-05-29T17:59:23.000Z</time>
</trkpt>
<trkpt lat="31.7886171" lon="35.0205656">
<ele>416.540009</ele>
<time>2018-05-29T17:59:25.000Z</time>
</trkpt>
<trkpt lat="31.7886433" lon="35.0204622">
<ele>415.480011</ele>
<time>2018-05-29T17:59:27.000Z</time>
</trkpt>
<trkpt lat="31.7886730" lon="35.0203426">
<ele>414.700012</ele>
<time>2018-05-29T17:59:29.000Z</time>
</trkpt>
<trkpt lat="31.7886973" lon="35.0202033">
<ele>413.709991</ele>
<time>2018-05-29T17:59:31.000Z</time>
</trkpt>
<trkpt lat="31.7887264" lon="35.0200596">
<ele>412.539978</ele>
<time>2018-05-29T17:59:33.000Z</time>
</trkpt>
<trkpt lat="31.7887721" lon="35.0199225">
<ele>411.700012</ele>
<time>2018-05-29T17:59:35.000Z</time>
</trkpt>
<trkpt lat="31.7888288" lon="35.0197990">
<ele>411.059998</ele>
<time>2018-05-29T17:59:37.000Z</time>
</trkpt>
<trkpt lat="31.7888994" lon="35.0197036">
<ele>409.799988</ele>
<time>2018-05-29T17:59:39.000Z</time>
</trkpt>
<trkpt lat="31.7889933" lon="35.0196344">
<ele>408.830017</ele>
<time>2018-05-29T17:59:41.000Z</time>
</trkpt>
<trkpt lat="31.7891050" lon="35.0195827">
<ele>407.649994</ele>
<time>2018-05-29T17:59:43.000Z</time>
</trkpt>
<trkpt lat="31.7892204" lon="35.0195389">
<ele>406.570007</ele>
<time>2018-05-29T17:59:45.000Z</time>
</trkpt>
<trkpt lat="31.7893393" lon="35.0194991">
<ele>406.250000</ele>
<time>2018-05-29T17:59:47.000Z</time>
</trkpt>
<trkpt lat="31.7894573" lon="35.0194527">
<ele>405.190002</ele>
<time>2018-05-29T17:59:49.000Z</time>
</trkpt>
<trkpt lat="31.7895802" lon="35.0194066">
<ele>404.619995</ele>
<time>2018-05-29T17:59:51.000Z</time>
</trkpt>
<trkpt lat="31.7897000" lon="35.0193594">
<ele>403.419983</ele>
<time>2018-05-29T17:59:53.000Z</time>
</trkpt>
<trkpt lat="31.7898197" lon="35.0193075">
<ele>402.899994</ele>
<time>2018-05-29T17:59:55.000Z</time>
</trkpt>
<trkpt lat="31.7899442" lon="35.0192566">
<ele>402.179993</ele>
<time>2018-05-29T17:59:57.000Z</time>
</trkpt>
<trkpt lat="31.7900707" lon="35.0192026">
<ele>400.920013</ele>
<time>2018-05-29T17:59:59.000Z</time>
</trkpt>
<trkpt lat="31.7901970" lon="35.0191629">
<ele>399.019989</ele>
<time>2018-05-29T18:00:01.000Z</time>
</trkpt>
<trkpt lat="31.7903259" lon="35.0191496">
<ele>398.230011</ele>
<time>2018-05-29T18:00:03.000Z</time>
</trkpt>
<trkpt lat="31.7904748" lon="35.0191695">
<ele>396.200012</ele>
<time>2018-05-29T18:00:05.000Z</time>
</trkpt>
<trkpt lat="31.7906327" lon="35.0192171">
<ele>394.809998</ele>
<time>2018-05-29T18:00:07.000Z</time>
</trkpt>
<trkpt lat="31.7907849" lon="35.0192762">
<ele>393.350006</ele>
<time>2018-05-29T18:00:09.000Z</time>
</trkpt>
<trkpt lat="31.7909277" lon="35.0193295">
<ele>391.580017</ele>
<time>2018-05-29T18:00:11.000Z</time>
</trkpt>
<trkpt lat="31.7910531" lon="35.0193529">
<ele>391.619995</ele>
<time>2018-05-29T18:00:13.000Z</time>
</trkpt>
<trkpt lat="31.7911844" lon="35.0193688">
<ele>389.920013</ele>
<time>2018-05-29T18:00:15.000Z</time>
</trkpt>
<trkpt lat="31.7913182" lon="35.0193731">
<ele>388.930023</ele>
<time>2018-05-29T18:00:17.000Z</time>
</trkpt>
<trkpt lat="31.7914584" lon="35.0193760">
<ele>388.380005</ele>
<time>2018-05-29T18:00:19.000Z</time>
</trkpt>
<trkpt lat="31.7915982" lon="35.0193784">
<ele>387.570007</ele>
<time>2018-05-29T18:00:21.000Z</time>
</trkpt>
<trkpt lat="31.7917299" lon="35.0193773">
<ele>386.880005</ele>
<time>2018-05-29T18:00:23.000Z</time>
</trkpt>
<trkpt lat="31.7918664" lon="35.0193713">
<ele>386.130005</ele>
<time>2018-05-29T18:00:25.000Z</time>
</trkpt>
<trkpt lat="31.7920021" lon="35.0193757">
<ele>385.510010</ele>
<time>2018-05-29T18:00:27.000Z</time>
</trkpt>
<trkpt lat="31.7921223" lon="35.0193737">
<ele>384.610016</ele>
<time>2018-05-29T18:00:29.000Z</time>
</trkpt>
<trkpt lat="31.7922237" lon="35.0193507">
<ele>384.089996</ele>
<time>2018-05-29T18:00:31.000Z</time>
</trkpt>
<trkpt lat="31.7923271" lon="35.0193022">
<ele>382.339996</ele>
<time>2018-05-29T18:00:33.000Z</time>
</trkpt>
<trkpt lat="31.7924265" lon="35.0192347">
<ele>381.989990</ele>
<time>2018-05-29T18:00:35.000Z</time>
</trkpt>
<trkpt lat="31.7925225" lon="35.0191548">
<ele>380.550018</ele>
<time>2018-05-29T18:00:37.000Z</time>
</trkpt>
<trkpt lat="31.7925943" lon="35.0190754">
<ele>379.250000</ele>
<time>2018-05-29T18:00:39.000Z</time>
</trkpt>
<trkpt lat="31.7926358" lon="35.0189510">
<ele>378.110016</ele>
<time>2018-05-29T18:00:42.000Z</time>
</trkpt>
<trkpt lat="31.7926280" lon="35.0188346">
<ele>377.339996</ele>
<time>2018-05-29T18:00:45.000Z</time>
</trkpt>
<trkpt lat="31.7925888" lon="35.0187147">
<ele>376.650024</ele>
<time>2018-05-29T18:00:48.000Z</time>
</trkpt>
<trkpt lat="31.7925265" lon="35.0185917">
<ele>376.149994</ele>
<time>2018-05-29T18:00:51.000Z</time>
</trkpt>
<trkpt lat="31.7924868" lon="35.0184928">
<ele>375.370026</ele>
<time>2018-05-29T18:00:53.000Z</time>
</trkpt>
<trkpt lat="31.7924484" lon="35.0183790">
<ele>374.479980</ele>
<time>2018-05-29T18:00:55.000Z</time>
</trkpt>
<trkpt lat="31.7924119" lon="35.0182542">
<ele>373.429993</ele>
<time>2018-05-29T18:00:57.000Z</time>
</trkpt>
<trkpt lat="31.7923676" lon="35.0181349">
<ele>372.849976</ele>
<time>2018-05-29T18:00:59.000Z</time>
</trkpt>
<trkpt lat="31.7923132" lon="35.0180052">
<ele>371.210022</ele>
<time>2018-05-29T18:01:01.000Z</time>
</trkpt>
<trkpt lat="31.7922540" lon="35.0178696">
<ele>370.270020</ele>
<time>2018-05-29T18:01:03.000Z</time>
</trkpt>
<trkpt lat="31.7921971" lon="35.0177306">
<ele>369.290009</ele>
<time>2018-05-29T18:01:05.000Z</time>
</trkpt>
<trkpt lat="31.7921618" lon="35.0176038">
<ele>368.660004</ele>
<time>2018-05-29T18:01:07.000Z</time>
</trkpt>
<trkpt lat="31.7921446" lon="35.0174727">
<ele>367.549988</ele>
<time>2018-05-29T18:01:09.000Z</time>
</trkpt>
<trkpt lat="31.7921404" lon="35.0173301">
<ele>366.389984</ele>
<time>2018-05-29T18:01:11.000Z</time>
</trkpt>
<trkpt lat="31.7921443" lon="35.0171739">
<ele>365.160004</ele>
<time>2018-05-29T18:01:13.000Z</time>
</trkpt>
<trkpt lat="31.7921338" lon="35.0170167">
<ele>364.069977</ele>
<time>2018-05-29T18:01:15.000Z</time>
</trkpt>
<trkpt lat="31.7921188" lon="35.0168553">
<ele>363.429993</ele>
<time>2018-05-29T18:01:17.000Z</time>
</trkpt>
<trkpt lat="31.7921126" lon="35.0166849">
<ele>362.929993</ele>
<time>2018-05-29T18:01:19.000Z</time>
</trkpt>
<trkpt lat="31.7921148" lon="35.0165128">
<ele>362.290009</ele>
<time>2018-05-29T18:01:21.000Z</time>
</trkpt>
<trkpt lat="31.7921281" lon="35.0163456">
<ele>361.020020</ele>
<time>2018-05-29T18:01:23.000Z</time>
</trkpt>
<trkpt lat="31.7921499" lon="35.0161813">
<ele>360.000031</ele>
<time>2018-05-29T18:01:25.000Z</time>
</trkpt>
<trkpt lat="31.7921971" lon="35.0160294">
<ele>359.619995</ele>
<time>2018-05-29T18:01:27.000Z</time>
</trkpt>
<trkpt lat="31.7922583" lon="35.0159075">
<ele>357.680023</ele>
<time>2018-05-29T18:01:29.000Z</time>
</trkpt>
<trkpt lat="31.7923213" lon="35.0158043">
<ele>356.109985</ele>
<time>2018-05-29T18:01:31.000Z</time>
</trkpt>
<trkpt lat="31.7923835" lon="35.0157229">
<ele>354.760010</ele>
<time>2018-05-29T18:01:33.000Z</time>
</trkpt>
<trkpt lat="31.7924805" lon="35.0156662">
<ele>354.080017</ele>
<time>2018-05-29T18:01:36.000Z</time>
</trkpt>
<trkpt lat="31.7925861" lon="35.0156344">
<ele>352.859985</ele>
<time>2018-05-29T18:01:39.000Z</time>
</trkpt>
<trkpt lat="31.7926851" lon="35.0155755">
<ele>351.959991</ele>
<time>2018-05-29T18:01:43.000Z</time>
</trkpt>
<trkpt lat="31.7927524" lon="35.0154754">
<ele>350.750000</ele>
<time>2018-05-29T18:01:48.000Z</time>
</trkpt>
<trkpt lat="31.7927220" lon="35.0153796">
<ele>350.339996</ele>
<time>2018-05-29T18:01:52.000Z</time>
</trkpt>
<trkpt lat="31.7926363" lon="35.0153008">
<ele>347.330017</ele>
<time>2018-05-29T18:01:56.000Z</time>
</trkpt>
<trkpt lat="31.7925447" lon="35.0152298">
<ele>344.570007</ele>
<time>2018-05-29T18:01:59.000Z</time>
</trkpt>
<trkpt lat="31.7924441" lon="35.0151828">
<ele>343.170013</ele>
<time>2018-05-29T18:02:02.000Z</time>
</trkpt>
<trkpt lat="31.7923484" lon="35.0151274">
<ele>340.909973</ele>
<time>2018-05-29T18:02:05.000Z</time>
</trkpt>
<trkpt lat="31.7922650" lon="35.0150485">
<ele>339.220001</ele>
<time>2018-05-29T18:02:08.000Z</time>
</trkpt>
<trkpt lat="31.7921924" lon="35.0149663">
<ele>336.339996</ele>
<time>2018-05-29T18:02:11.000Z</time>
</trkpt>
<trkpt lat="31.7921017" lon="35.0149009">
<ele>334.570007</ele>
<time>2018-05-29T18:02:14.000Z</time>
</trkpt>
<trkpt lat="31.7919833" lon="35.0148556">
<ele>331.510010</ele>
<time>2018-05-29T18:02:17.000Z</time>
</trkpt>
<trkpt lat="31.7918928" lon="35.0148256">
<ele>330.209991</ele>
<time>2018-05-29T18:02:19.000Z</time>
</trkpt>
<trkpt lat="31.7917666" lon="35.0147882">
<ele>328.580017</ele>
<time>2018-05-29T18:02:22.000Z</time>
</trkpt>
<trkpt lat="31.7916554" lon="35.0147419">
<ele>325.869995</ele>
<time>2018-05-29T18:02:25.000Z</time>
</trkpt>
<trkpt lat="31.7915588" lon="35.0147258">
<ele>323.570007</ele>
<time>2018-05-29T18:02:28.000Z</time>
</trkpt>
<trkpt lat="31.7914433" lon="35.0147316">
<ele>322.790009</ele>
<time>2018-05-29T18:02:31.000Z</time>
</trkpt>
<trkpt lat="31.7913545" lon="35.0147031">
<ele>322.629974</ele>
<time>2018-05-29T18:02:33.000Z</time>
</trkpt>
<trkpt lat="31.7912700" lon="35.0146527">
<ele>322.220001</ele>
<time>2018-05-29T18:02:35.000Z</time>
</trkpt>
<trkpt lat="31.7911878" lon="35.0145901">
<ele>322.110016</ele>
<time>2018-05-29T18:02:37.000Z</time>
</trkpt>
<trkpt lat="31.7910962" lon="35.0145298">
<ele>322.000000</ele>
<time>2018-05-29T18:02:39.000Z</time>
</trkpt>
<trkpt lat="31.7909942" lon="35.0144880">
<ele>322.419983</ele>
<time>2018-05-29T18:02:41.000Z</time>
</trkpt>
<trkpt lat="31.7908821" lon="35.0144516">
<ele>323.380005</ele>
<time>2018-05-29T18:02:43.000Z</time>
</trkpt>
<trkpt lat="31.7907764" lon="35.0144236">
<ele>323.899994</ele>
<time>2018-05-29T18:02:45.000Z</time>
</trkpt>
<trkpt lat="31.7906800" lon="35.0143994">
<ele>324.220001</ele>
<time>2018-05-29T18:02:47.000Z</time>
</trkpt>
<trkpt lat="31.7905814" lon="35.0143733">
<ele>324.670013</ele>
<time>2018-05-29T18:02:49.000Z</time>
</trkpt>
<trkpt lat="31.7904882" lon="35.0143555">
<ele>325.809998</ele>
<time>2018-05-29T18:02:51.000Z</time>
</trkpt>
<trkpt lat="31.7903645" lon="35.0143561">
<ele>326.739990</ele>
<time>2018-05-29T18:02:54.000Z</time>
</trkpt>
<trkpt lat="31.7902645" lon="35.0143778">
<ele>327.339996</ele>
<time>2018-05-29T18:02:57.000Z</time>
</trkpt>
<trkpt lat="31.7901634" lon="35.0143889">
<ele>327.959991</ele>
<time>2018-05-29T18:03:01.000Z</time>
</trkpt>
<trkpt lat="31.7900592" lon="35.0143843">
<ele>327.350006</ele>
<time>2018-05-29T18:03:05.000Z</time>
</trkpt>
<trkpt lat="31.7899527" lon="35.0143828">
<ele>326.850006</ele>
<time>2018-05-29T18:03:09.000Z</time>
</trkpt>
<trkpt lat="31.7898613" lon="35.0143700">
<ele>326.730011</ele>
<time>2018-05-29T18:03:12.000Z</time>
</trkpt>
<trkpt lat="31.7897552" lon="35.0143311">
<ele>325.010010</ele>
<time>2018-05-29T18:03:15.000Z</time>
</trkpt>
<trkpt lat="31.7896694" lon="35.0142922">
<ele>323.750000</ele>
<time>2018-05-29T18:03:17.000Z</time>
</trkpt>
<trkpt lat="31.7895789" lon="35.0142588">
<ele>322.869995</ele>
<time>2018-05-29T18:03:19.000Z</time>
</trkpt>
<trkpt lat="31.7894869" lon="35.0142298">
<ele>321.000031</ele>
<time>2018-05-29T18:03:21.000Z</time>
</trkpt>
<trkpt lat="31.7893868" lon="35.0142112">
<ele>319.269989</ele>
<time>2018-05-29T18:03:23.000Z</time>
</trkpt>
<trkpt lat="31.7892856" lon="35.0141992">
<ele>317.140015</ele>
<time>2018-05-29T18:03:25.000Z</time>
</trkpt>
<trkpt lat="31.7891856" lon="35.0141841">
<ele>314.899994</ele>
<time>2018-05-29T18:03:27.000Z</time>
</trkpt>
<trkpt lat="31.7890483" lon="35.0141666">
<ele>313.080017</ele>
<time>2018-05-29T18:03:29.000Z</time>
</trkpt>
<trkpt lat="31.7888797" lon="35.0141437">
<ele>311.540009</ele>
<time>2018-05-29T18:03:31.000Z</time>
</trkpt>
<trkpt lat="31.7887083" lon="35.0141156">
<ele>310.959991</ele>
<time>2018-05-29T18:03:33.000Z</time>
</trkpt>
<trkpt lat="31.7885493" lon="35.0140980">
<ele>311.279999</ele>
<time>2018-05-29T18:03:35.000Z</time>
</trkpt>
<trkpt lat="31.7884290" lon="35.0140985">
<ele>312.569977</ele>
<time>2018-05-29T18:03:37.000Z</time>
</trkpt>
<trkpt lat="31.7883337" lon="35.0141018">
<ele>313.029999</ele>
<time>2018-05-29T18:03:39.000Z</time>
</trkpt>
<trkpt lat="31.7882362" lon="35.0140964">
<ele>313.779999</ele>
<time>2018-05-29T18:03:42.000Z</time>
</trkpt>
<trkpt lat="31.7881217" lon="35.0140829">
<ele>313.330017</ele>
<time>2018-05-29T18:03:46.000Z</time>
</trkpt>
<trkpt lat="31.7879867" lon="35.0140761">
<ele>313.029999</ele>
<time>2018-05-29T18:03:49.000Z</time>
</trkpt>
<trkpt lat="31.7878801" lon="35.0140756">
<ele>312.510010</ele>
<time>2018-05-29T18:03:51.000Z</time>
</trkpt>
<trkpt lat="31.7877687" lon="35.0140790">
<ele>312.209991</ele>
<time>2018-05-29T18:03:53.000Z</time>
</trkpt>
<trkpt lat="31.7876477" lon="35.0140839">
<ele>311.070007</ele>
<time>2018-05-29T18:03:55.000Z</time>
</trkpt>
<trkpt lat="31.7875188" lon="35.0140883">
<ele>310.399994</ele>
<time>2018-05-29T18:03:57.000Z</time>
</trkpt>
<trkpt lat="31.7873894" lon="35.0141000">
<ele>309.970001</ele>
<time>2018-05-29T18:03:59.000Z</time>
</trkpt>
<trkpt lat="31.7872485" lon="35.0141036">
<ele>308.750000</ele>
<time>2018-05-29T18:04:01.000Z</time>
</trkpt>
<trkpt lat="31.7870919" lon="35.0140943">
<ele>308.259979</ele>
<time>2018-05-29T18:04:03.000Z</time>
</trkpt>
<trkpt lat="31.7869322" lon="35.0140941">
<ele>306.959991</ele>
<time>2018-05-29T18:04:05.000Z</time>
</trkpt>
<trkpt lat="31.7867837" lon="35.0141126">
<ele>305.470001</ele>
<time>2018-05-29T18:04:07.000Z</time>
</trkpt>
<trkpt lat="31.7866524" lon="35.0141438">
<ele>304.200012</ele>
<time>2018-05-29T18:04:09.000Z</time>
</trkpt>
<trkpt lat="31.7865221" lon="35.0141727">
<ele>302.110016</ele>
<time>2018-05-29T18:04:11.000Z</time>
</trkpt>
<trkpt lat="31.7863746" lon="35.0142008">
<ele>299.520020</ele>
<time>2018-05-29T18:04:13.000Z</time>
</trkpt>
<trkpt lat="31.7861977" lon="35.0142420">
<ele>297.059998</ele>
<time>2018-05-29T18:04:15.000Z</time>
</trkpt>
<trkpt lat="31.7860995" lon="35.0142650">
<ele>296.229980</ele>
<time>2018-05-29T18:04:16.000Z</time>
</trkpt>
<trkpt lat="31.7860039" lon="35.0142880">
<ele>295.779999</ele>
<time>2018-05-29T18:04:17.000Z</time>
</trkpt>
<trkpt lat="31.7859105" lon="35.0143088">
<ele>295.520020</ele>
<time>2018-05-29T18:04:18.000Z</time>
</trkpt>
<trkpt lat="31.7858211" lon="35.0143284">
<ele>296.209991</ele>
<time>2018-05-29T18:04:19.000Z</time>
</trkpt>
<trkpt lat="31.7856569" lon="35.0143587">
<ele>295.290009</ele>
<time>2018-05-29T18:04:21.000Z</time>
</trkpt>
<trkpt lat="31.7855092" lon="35.0143743">
<ele>296.619995</ele>
<time>2018-05-29T18:04:23.000Z</time>
</trkpt>
<trkpt lat="31.7853741" lon="35.0143799">
<ele>296.880005</ele>
<time>2018-05-29T18:04:25.000Z</time>
</trkpt>
<trkpt lat="31.7852604" lon="35.0143777">
<ele>296.890015</ele>
<time>2018-05-29T18:04:27.000Z</time>
</trkpt>
<trkpt lat="31.7851630" lon="35.0143795">
<ele>296.910004</ele>
<time>2018-05-29T18:04:29.000Z</time>
</trkpt>
<trkpt lat="31.7850689" lon="35.0143928">
<ele>296.679993</ele>
<time>2018-05-29T18:04:31.000Z</time>
</trkpt>
<trkpt lat="31.7849799" lon="35.0144153">
<ele>295.860016</ele>
<time>2018-05-29T18:04:33.000Z</time>
</trkpt>
<trkpt lat="31.7848852" lon="35.0144429">
<ele>294.910004</ele>
<time>2018-05-29T18:04:35.000Z</time>
</trkpt>
<trkpt lat="31.7847749" lon="35.0144674">
<ele>294.420013</ele>
<time>2018-05-29T18:04:37.000Z</time>
</trkpt>
<trkpt lat="31.7846682" lon="35.0144937">
<ele>293.239990</ele>
<time>2018-05-29T18:04:39.000Z</time>
</trkpt>
<trkpt lat="31.7845754" lon="35.0145170">
<ele>292.320007</ele>
<time>2018-05-29T18:04:41.000Z</time>
</trkpt>
<trkpt lat="31.7844889" lon="35.0145383">
<ele>291.500000</ele>
<time>2018-05-29T18:04:43.000Z</time>
</trkpt>
<trkpt lat="31.7843945" lon="35.0145423">
<ele>291.149994</ele>
<time>2018-05-29T18:04:45.000Z</time>
</trkpt>
<trkpt lat="31.7842616" lon="35.0145491">
<ele>290.929993</ele>
<time>2018-05-29T18:04:48.000Z</time>
</trkpt>
<trkpt lat="31.7841664" lon="35.0145518">
<ele>289.910004</ele>
<time>2018-05-29T18:04:50.000Z</time>
</trkpt>
<trkpt lat="31.7840637" lon="35.0145518">
<ele>289.019989</ele>
<time>2018-05-29T18:04:52.000Z</time>
</trkpt>
<trkpt lat="31.7839532" lon="35.0145493">
<ele>288.570007</ele>
<time>2018-05-29T18:04:54.000Z</time>
</trkpt>
<trkpt lat="31.7838242" lon="35.0145518">
<ele>287.040009</ele>
<time>2018-05-29T18:04:56.000Z</time>
</trkpt>
<trkpt lat="31.7836774" lon="35.0145572">
<ele>286.119995</ele>
<time>2018-05-29T18:04:58.000Z</time>
</trkpt>
<trkpt lat="31.7835194" lon="35.0145687">
<ele>285.800018</ele>
<time>2018-05-29T18:05:00.000Z</time>
</trkpt>
<trkpt lat="31.7833589" lon="35.0145830">
<ele>284.690002</ele>
<time>2018-05-29T18:05:02.000Z</time>
</trkpt>
<trkpt lat="31.7832013" lon="35.0145937">
<ele>284.459991</ele>
<time>2018-05-29T18:05:04.000Z</time>
</trkpt>
<trkpt lat="31.7830483" lon="35.0145999">
<ele>284.269989</ele>
<time>2018-05-29T18:05:06.000Z</time>
</trkpt>
<trkpt lat="31.7828906" lon="35.0145986">
<ele>283.989990</ele>
<time>2018-05-29T18:05:08.000Z</time>
</trkpt>
<trkpt lat="31.7827382" lon="35.0145890">
<ele>283.720001</ele>
<time>2018-05-29T18:05:10.000Z</time>
</trkpt>
<trkpt lat="31.7825876" lon="35.0145757">
<ele>283.859985</ele>
<time>2018-05-29T18:05:12.000Z</time>
</trkpt>
<trkpt lat="31.7824330" lon="35.0145655">
<ele>283.250000</ele>
<time>2018-05-29T18:05:14.000Z</time>
</trkpt>
<trkpt lat="31.7822696" lon="35.0145619">
<ele>283.109985</ele>
<time>2018-05-29T18:05:16.000Z</time>
</trkpt>
<trkpt lat="31.7821050" lon="35.0145659">
<ele>281.950012</ele>
<time>2018-05-29T18:05:18.000Z</time>
</trkpt>
<trkpt lat="31.7819405" lon="35.0145710">
<ele>281.230011</ele>
<time>2018-05-29T18:05:20.000Z</time>
</trkpt>
<trkpt lat="31.7817716" lon="35.0145737">
<ele>281.209991</ele>
<time>2018-05-29T18:05:22.000Z</time>
</trkpt>
<trkpt lat="31.7815921" lon="35.0145753">
<ele>280.709991</ele>
<time>2018-05-29T18:05:24.000Z</time>
</trkpt>
<trkpt lat="31.7815029" lon="35.0145782">
<ele>280.070007</ele>
<time>2018-05-29T18:05:25.000Z</time>
</trkpt>
<trkpt lat="31.7813257" lon="35.0145883">
<ele>279.660004</ele>
<time>2018-05-29T18:05:27.000Z</time>
</trkpt>
<trkpt lat="31.7811528" lon="35.0145973">
<ele>279.220001</ele>
<time>2018-05-29T18:05:29.000Z</time>
</trkpt>
<trkpt lat="31.7809852" lon="35.0145921">
<ele>278.229980</ele>
<time>2018-05-29T18:05:31.000Z</time>
</trkpt>
<trkpt lat="31.7808241" lon="35.0145746">
<ele>278.330017</ele>
<time>2018-05-29T18:05:33.000Z</time>
</trkpt>
<trkpt lat="31.7806637" lon="35.0145349">
<ele>277.049988</ele>
<time>2018-05-29T18:05:35.000Z</time>
</trkpt>
<trkpt lat="31.7805003" lon="35.0144828">
<ele>275.540009</ele>
<time>2018-05-29T18:05:37.000Z</time>
</trkpt>
<trkpt lat="31.7803351" lon="35.0144194">
<ele>274.970001</ele>
<time>2018-05-29T18:05:39.000Z</time>
</trkpt>
<trkpt lat="31.7801727" lon="35.0143559">
<ele>274.410004</ele>
<time>2018-05-29T18:05:41.000Z</time>
</trkpt>
<trkpt lat="31.7800174" lon="35.0142857">
<ele>273.739990</ele>
<time>2018-05-29T18:05:43.000Z</time>
</trkpt>
<trkpt lat="31.7798870" lon="35.0142259">
<ele>273.220001</ele>
<time>2018-05-29T18:05:45.000Z</time>
</trkpt>
<trkpt lat="31.7797886" lon="35.0141963">
<ele>273.320007</ele>
<time>2018-05-29T18:05:47.000Z</time>
</trkpt>
<trkpt lat="31.7796788" lon="35.0142057">
<ele>273.149994</ele>
<time>2018-05-29T18:05:50.000Z</time>
</trkpt>
<trkpt lat="31.7796023" lon="35.0142546">
<ele>272.899994</ele>
<time>2018-05-29T18:05:53.000Z</time>
</trkpt>
<trkpt lat="31.7795365" lon="35.0143606">
<ele>272.950012</ele>
<time>2018-05-29T18:05:58.000Z</time>
</trkpt>
<trkpt lat="31.7794803" lon="35.0144749">
<ele>273.420013</ele>
<time>2018-05-29T18:06:02.000Z</time>
</trkpt>
<trkpt lat="31.7794411" lon="35.0145802">
<ele>273.859985</ele>
<time>2018-05-29T18:06:05.000Z</time>
</trkpt>
<trkpt lat="31.7794085" lon="35.0146878">
<ele>274.299988</ele>
<time>2018-05-29T18:06:08.000Z</time>
</trkpt>
<trkpt lat="31.7793803" lon="35.0148056">
<ele>274.779999</ele>
<time>2018-05-29T18:06:11.000Z</time>
</trkpt>
<trkpt lat="31.7793558" lon="35.0149208">
<ele>274.209991</ele>
<time>2018-05-29T18:06:14.000Z</time>
</trkpt>
<trkpt lat="31.7793414" lon="35.0150442">
<ele>274.839996</ele>
<time>2018-05-29T18:06:17.000Z</time>
</trkpt>
<trkpt lat="31.7793080" lon="35.0151609">
<ele>275.149994</ele>
<time>2018-05-29T18:06:20.000Z</time>
</trkpt>
<trkpt lat="31.7792891" lon="35.0152848">
<ele>275.130005</ele>
<time>2018-05-29T18:06:23.000Z</time>
</trkpt>
<trkpt lat="31.7792681" lon="35.0154093">
<ele>276.329987</ele>
<time>2018-05-29T18:06:26.000Z</time>
</trkpt>
<trkpt lat="31.7792463" lon="35.0155328">
<ele>276.399994</ele>
<time>2018-05-29T18:06:29.000Z</time>
</trkpt>
<trkpt lat="31.7792284" lon="35.0156622">
<ele>276.669983</ele>
<time>2018-05-29T18:06:32.000Z</time>
</trkpt>
<trkpt lat="31.7792059" lon="35.0157919">
<ele>276.770020</ele>
<time>2018-05-29T18:06:35.000Z</time>
</trkpt>
<trkpt lat="31.7791731" lon="35.0159312">
<ele>276.899994</ele>
<time>2018-05-29T18:06:38.000Z</time>
</trkpt>
<trkpt lat="31.7791311" lon="35.0160772">
<ele>277.309998</ele>
<time>2018-05-29T18:06:41.000Z</time>
</trkpt>
<trkpt lat="31.7791043" lon="35.0161783">
<ele>277.290009</ele>
<time>2018-05-29T18:06:43.000Z</time>
</trkpt>
<trkpt lat="31.7790679" lon="35.0163351">
<ele>277.529999</ele>
<time>2018-05-29T18:06:46.000Z</time>
</trkpt>
<trkpt lat="31.7790457" lon="35.0164425">
<ele>277.470001</ele>
<time>2018-05-29T18:06:48.000Z</time>
</trkpt>
<trkpt lat="31.7790264" lon="35.0165480">
<ele>277.049988</ele>
<time>2018-05-29T18:06:50.000Z</time>
</trkpt>
<trkpt lat="31.7790172" lon="35.0166630">
<ele>276.209991</ele>
<time>2018-05-29T18:06:52.000Z</time>
</trkpt>
<trkpt lat="31.7790156" lon="35.0167792">
<ele>276.100006</ele>
<time>2018-05-29T18:06:54.000Z</time>
</trkpt>
<trkpt lat="31.7790342" lon="35.0169004">
<ele>275.919983</ele>
<time>2018-05-29T18:06:56.000Z</time>
</trkpt>
<trkpt lat="31.7790634" lon="35.0170185">
<ele>275.519989</ele>
<time>2018-05-29T18:06:58.000Z</time>
</trkpt>
<trkpt lat="31.7791111" lon="35.0171319">
<ele>275.169983</ele>
<time>2018-05-29T18:07:00.000Z</time>
</trkpt>
<trkpt lat="31.7791753" lon="35.0172313">
<ele>275.179993</ele>
<time>2018-05-29T18:07:02.000Z</time>
</trkpt>
<trkpt lat="31.7792552" lon="35.0173223">
<ele>274.889984</ele>
<time>2018-05-29T18:07:04.000Z</time>
</trkpt>
<trkpt lat="31.7793411" lon="35.0174011">
<ele>274.959991</ele>
<time>2018-05-29T18:07:06.000Z</time>
</trkpt>
<trkpt lat="31.7794260" lon="35.0174696">
<ele>275.220001</ele>
<time>2018-05-29T18:07:08.000Z</time>
</trkpt>
<trkpt lat="31.7795066" lon="35.0175327">
<ele>275.579987</ele>
<time>2018-05-29T18:07:10.000Z</time>
</trkpt>
<trkpt lat="31.7795897" lon="35.0175917">
<ele>275.979980</ele>
<time>2018-05-29T18:07:12.000Z</time>
</trkpt>
<trkpt lat="31.7796721" lon="35.0176468">
<ele>275.929993</ele>
<time>2018-05-29T18:07:14.000Z</time>
</trkpt>
<trkpt lat="31.7797865" lon="35.0177347">
<ele>275.610016</ele>
<time>2018-05-29T18:07:17.000Z</time>
</trkpt>
<trkpt lat="31.7798873" lon="35.0178092">
<ele>275.649994</ele>
<time>2018-05-29T18:07:20.000Z</time>
</trkpt>
<trkpt lat="31.7799803" lon="35.0178948">
<ele>275.250000</ele>
<time>2018-05-29T18:07:23.000Z</time>
</trkpt>
<trkpt lat="31.7800278" lon="35.0179885">
<ele>275.049988</ele>
<time>2018-05-29T18:07:25.000Z</time>
</trkpt>
<trkpt lat="31.7800776" lon="35.0181135">
<ele>274.459991</ele>
<time>2018-05-29T18:07:28.000Z</time>
</trkpt>
<trkpt lat="31.7799932" lon="35.0181633">
<ele>274.419983</ele>
<time>2018-05-29T18:07:32.000Z</time>
</trkpt>
<trkpt lat="31.7798843" lon="35.0181467">
<ele>274.920013</ele>
<time>2018-05-29T18:07:35.000Z</time>
</trkpt>
<trkpt lat="31.7797753" lon="35.0181307">
<ele>275.709991</ele>
<time>2018-05-29T18:07:38.000Z</time>
</trkpt>
<trkpt lat="31.7796785" lon="35.0181185">
<ele>275.459991</ele>
<time>2018-05-29T18:07:41.000Z</time>
</trkpt>
<trkpt lat="31.7795789" lon="35.0180973">
<ele>275.820007</ele>
<time>2018-05-29T18:07:44.000Z</time>
</trkpt>
<trkpt lat="31.7794637" lon="35.0180533">
<ele>275.290009</ele>
<time>2018-05-29T18:07:47.000Z</time>
</trkpt>
<trkpt lat="31.7793735" lon="35.0180204">
<ele>275.209991</ele>
<time>2018-05-29T18:07:49.000Z</time>
</trkpt>
<trkpt lat="31.7792425" lon="35.0179827">
<ele>276.299988</ele>
<time>2018-05-29T18:07:52.000Z</time>
</trkpt>
<trkpt lat="31.7791292" lon="35.0179519">
<ele>276.459991</ele>
<time>2018-05-29T18:07:55.000Z</time>
</trkpt>
<trkpt lat="31.7790125" lon="35.0179122">
<ele>277.089996</ele>
<time>2018-05-29T18:07:58.000Z</time>
</trkpt>
<trkpt lat="31.7789129" lon="35.0178728">
<ele>277.209991</ele>
<time>2018-05-29T18:08:01.000Z</time>
</trkpt>
<trkpt lat="31.7788227" lon="35.0178256">
<ele>277.119995</ele>
<time>2018-05-29T18:08:04.000Z</time>
</trkpt>
<trkpt lat="31.7787348" lon="35.0177393">
<ele>277.209991</ele>
<time>2018-05-29T18:08:07.000Z</time>
</trkpt>
<trkpt lat="31.7786609" lon="35.0176603">
<ele>276.720001</ele>
<time>2018-05-29T18:08:10.000Z</time>
</trkpt>
<trkpt lat="31.7786028" lon="35.0175614">
<ele>276.170013</ele>
<time>2018-05-29T18:08:13.000Z</time>
</trkpt>
<trkpt lat="31.7785603" lon="35.0174483">
<ele>275.239990</ele>
<time>2018-05-29T18:08:18.000Z</time>
</trkpt>
<trkpt lat="31.7784854" lon="35.0173640">
<ele>275.000000</ele>
<time>2018-05-29T18:08:57.000Z</time>
</trkpt>
<trkpt lat="31.7785022" lon="35.0174003">
<ele>273.750000</ele>
<time>2018-05-29T18:11:31.000Z</time>
</trkpt>
</trkseg>
</trk>
</gpx>
